[[{"header":{"parameterUnit":"m.s-1","parameterCategory":1,"la1":30.6,"la2":29.2853,"lo1":-89.7004,"lo2":-87.6739,"dy":0.0162,"dx":0.0183,"nx":112,"ny":82,"refTime":"2026-05-12T12:00:00:Z","depth":0,"parameterNumber":2,"parameterNumberName":"U-component_of_WINDS"},"data":[0.0,0.0,0.0,0.0,0.0,0.0,0.0,0.0,0.0,0.0,0.0,0.0,0.0,0.0,0.0,0.0,0.0,0.0,0.0,0.0,0.0,0.0,0.0,0.0,0.0,0.0,0.0,0.0,0.0,0.0,0.0,0.0,0.0,0.0,0.0,0.0,0.0,0.0,0.0,0.0,0.0,0.0,0.0,0.0,0.0,0.0,0.0,0.0,0.0,0.0,0.0,0.0,0.0,0.0,0.0,0.0,0.0,0.0,0.0,0.0,0.0,0.0,0.0,0.0,0.0,0.0,0.0,0.0,0.0,0.0,0.0,0.0,0.0,0.0,0.0,0.0,0.0,0.0,0.0,0.0,0.0,0.0,0.0,0.0,0.0,0.0,0.0,0.0,0.0,0.0,-0.5156,-0.6105,-0.6714,-0.6694,-0.5826,-0.5762,-0.4543,-0.1684,0.0,0.0,0.0,0.0,0.0,0.0,0.0,0.0,0.0,0.0,0.0,0.0,0.0,0.0,0.0,0.0,0.0,0.0,0.0,0.0,0.0,0.0,0.0,0.0,0.0,0.0,0.0,0.0,0.0,0.0,0.0,0.0,0.0,0.0,0.0,0.0,0.0,0.0,0.0,0.0,0.0,0.0,0.0,0.0,0.0,0.0,0.0,0.0,0.0,0.0,0.0,0.0,0.0,0.0,0.0,0.0,0.0,0.0,0.0,0.0,0.0,0.0,0.0,0.0,0.0,0.0,0.0,0.0,0.0,0.0,0.0,0.0,0.0,0.0,0.0,0.0,0.0,0.0,0.0,0.0,0.0,0.0,0.0,0.0,0.0,0.0,0.0,0.0,0.0,0.0,0.0,0.0,0.0,0.0,0.0,0.0,0.0,0.0,0.0,0.0,0.0,0.0,0.0,0.0,-0.5294,-0.6545,-0.7809,-0.8023,-0.6656,-0.6521,-0.5106,-0.1717,0.0,0.0,0.0,0.0,0.0,0.0,0.0,0.0,0.0,0.0,0.0,0.0,0.0,0.0,0.0,0.0,0.0,0.0,0.0,0.0,0.0,0.0,0.0,0.0,0.0,0.0,0.0,0.0,0.0,0.0,0.0,0.0,0.0,0.0,0.0,0.0,0.0,0.0,0.0,0.0,0.0,0.0,0.0,0.0,0.0,0.0,0.0,0.0,0.0,0.0,0.0,0.0,0.0,0.0,0.0,0.0,0.0,0.0,0.0,0.0,0.0,0.0,0.0,0.0,0.0,0.0,0.0,0.0,0.0,0.0,0.0,0.0,0.0,0.0,0.0,0.0,0.0,0.0,0.0,0.0,0.0,0.0,0.0,0.0,0.0,0.0,0.0,0.0,0.0,0.0,0.0,0.0,0.0,0.0,0.0,0.0,0.0,0.0,0.0,0.0,0.0,0.0,0.0,-0.5036,-0.6199,-0.6779,-0.8117,-0.833,-0.6846,-0.6694,-0.5204,-0.1721,-0.1507,0.0,0.0,0.0,0.0,0.0,0.0,0.0,0.0,0.0,0.0,0.0,0.0,0.0,0.0,0.0,0.0,0.0,0.0,0.0,0.0,0.0,0.0,0.0,0.0,0.0,0.0,0.0,0.0,0.0,0.0,0.0,0.0,0.0,0.0,0.0,0.0,0.0,0.0,0.0,0.0,0.0,0.0,0.0,0.0,0.0,0.0,0.0,0.0,0.0,0.0,0.0,0.0,0.0,0.0,0.0,0.0,0.0,0.0,0.0,0.0,0.0,0.0,0.0,0.0,0.0,0.0,0.0,0.0,0.0,0.0,0.0,0.0,0.0,0.0,0.0,0.0,0.0,0.0,0.0,0.0,0.0,0.0,0.0,0.0,0.0,0.0,0.0,0.0,0.0,0.0,0.0,0.0,0.0,0.0,0.0,0.0,0.0,0.0,0.0,0.0,0.0,0.0,-0.6093,-0.6999,-0.6929,-0.8179,-0.8391,-0.6859,-0.6711,-0.5204,-0.1721,-0.1507,0.0,0.0,0.0,0.0,0.0,0.0,0.0,0.0,0.0,0.0,0.0,0.0,0.0,0.0,0.0,0.0,0.0,0.0,0.0,0.0,0.0,0.0,0.0,0.0,0.0,0.0,0.0,0.0,0.0,0.0,0.0,0.0,0.0,0.0,0.0,0.0,0.0,0.0,0.0,0.0,0.0,0.0,0.0,0.0,0.0,0.0,0.0,0.0,0.0,0.0,0.0,0.0,0.0,0.0,0.0,0.0,0.0,0.0,0.0,0.0,0.0,0.0,0.0,0.0,0.0,0.0,0.0,0.0,0.0,0.0,0.0,0.0,0.0,0.0,0.0,0.0,0.0,0.0,0.0,0.0,0.0,0.0,0.0,0.0,0.0,0.0,0.0,0.0,0.0,0.0,0.0,0.0,0.0,0.0,0.0,0.0,0.0,0.0,0.0,0.0,0.0,0.0,-0.6132,-0.7083,-0.6999,-0.8267,-0.8484,-0.6933,-0.674,-0.5204,-0.1721,-0.1507,0.0,0.0,0.0,0.0,0.0,0.0,0.0,0.0,0.0,0.0,0.0,0.0,0.0,0.0,0.0,0.0,0.0,0.0,0.0,0.0,0.0,0.0,0.0,0.0,0.0,0.0,0.0,0.0,0.0,0.0,0.0,0.0,0.0,0.0,0.0,0.0,0.0,0.0,0.0,0.0,0.0,0.0,0.0,0.0,0.0,0.0,0.0,0.0,0.0,0.0,0.0,0.0,0.0,0.0,0.0,0.0,0.0,0.0,0.0,0.0,0.0,0.0,0.0,0.0,0.0,0.0,0.0,0.0,0.0,0.0,0.0,0.0,0.0,0.0,0.0,0.0,0.0,0.0,0.0,0.0,0.0,0.0,0.0,0.0,0.0,0.0,0.0,0.0,0.0,0.0,0.0,0.0,0.0,0.0,0.0,0.0,0.0,0.0,0.0,0.0,0.0,0.0,-0.6561,-0.7267,0.0,-0.8606,-0.8527,-0.6934,-0.6752,-0.5204,-0.1721,0.0,0.0,0.0,0.0,0.0,0.0,0.0,0.0,0.0,0.0,0.0,0.0,0.0,0.0,0.0,0.0,0.0,0.0,0.0,0.0,0.0,0.0,0.0,0.0,0.0,0.0,0.0,0.0,0.0,0.0,0.0,0.0,0.0,0.0,0.0,0.0,0.0,0.0,0.0,0.0,0.0,0.0,0.0,0.0,0.0,0.0,0.0,0.0,0.0,0.0,0.0,0.0,0.0,0.0,0.0,0.0,0.0,0.0,0.0,0.0,0.0,0.0,0.0,0.0,0.0,0.0,0.0,0.0,0.0,0.0,0.0,0.0,0.0,0.0,0.0,0.0,0.0,0.0,0.0,0.0,0.0,0.0,0.0,0.0,0.0,0.0,0.0,0.0,0.0,0.0,0.0,0.0,0.0,0.0,0.0,0.0,0.0,0.0,0.0,0.0,0.0,0.0,-0.6223,-0.7035,-0.7718,0.0,-0.8815,-0.8688,-0.7313,-0.6871,-0.5311,-0.2083,0.0,0.0,0.0,0.0,0.0,0.0,0.0,0.0,0.0,0.0,0.0,0.0,0.0,0.0,0.0,0.0,0.0,0.0,0.0,0.0,0.0,0.0,0.0,0.0,0.0,0.0,0.0,0.0,0.0,0.0,0.0,0.0,0.0,0.0,0.0,0.0,0.0,0.0,0.0,0.0,0.0,0.0,0.0,0.0,0.0,0.0,0.0,0.0,0.0,0.0,0.0,0.0,0.0,0.0,0.0,0.0,0.0,0.0,0.0,0.0,0.0,0.0,0.0,0.0,0.0,0.0,0.0,0.0,0.0,0.0,0.0,0.0,0.0,0.0,0.0,0.0,0.0,0.0,0.0,0.0,0.0,0.0,0.0,0.0,0.0,0.0,0.0,0.0,0.0,0.0,0.0,0.0,0.0,0.0,0.0,0.0,0.0,0.0,0.0,0.0,0.0,0.0,-0.6128,-0.7485,-0.8445,-0.8323,-0.8894,-0.8939,-0.808,-0.7196,-0.5562,0.0,0.0,0.0,0.0,0.0,0.0,0.0,0.0,0.0,0.0,0.0,0.0,0.0,0.0,0.0,0.0,0.0,0.0,0.0,0.0,0.0,0.0,0.0,0.0,0.0,0.0,0.0,0.0,0.0,0.0,0.0,0.0,0.0,0.0,0.0,0.0,0.0,0.0,0.0,0.0,0.0,0.0,0.0,0.0,0.0,0.0,0.0,0.0,0.0,0.0,0.0,0.0,0.0,0.0,0.0,0.0,0.0,0.0,0.0,0.0,0.0,0.0,0.0,0.0,0.0,0.0,0.0,0.0,0.0,0.0,0.0,0.0,0.0,0.0,0.0,0.0,0.0,0.0,0.0,0.0,0.0,0.0,0.0,0.0,0.0,0.0,0.0,0.0,0.0,0.0,0.0,0.0,0.0,0.0,0.0,0.0,0.0,0.0,0.0,0.0,0.0,0.0,0.0,-0.6949,-0.7858,-0.8672,-0.9147,-0.9291,-0.9015,-0.8154,-0.726,-0.5872,-0.3743,0.0,0.0,0.0,0.0,0.0,0.0,0.0,0.0,0.0,0.0,0.0,0.0,0.0,0.0,0.0,0.0,0.0,0.0,0.0,0.0,0.0,0.0,0.0,0.0,0.0,0.0,0.0,0.0,0.0,0.0,0.0,0.0,0.0,0.0,0.0,0.0,0.0,0.0,0.0,0.0,0.0,0.0,0.0,0.0,0.0,0.0,0.0,0.0,0.0,0.0,0.0,0.0,0.0,0.0,0.0,0.0,0.0,0.0,0.0,0.0,0.0,0.0,0.0,0.0,0.0,0.0,0.0,0.0,0.0,0.0,0.0,0.0,0.0,0.0,0.0,0.0,0.0,0.0,0.0,0.0,0.0,0.0,0.0,0.0,0.0,0.0,0.0,0.0,0.0,0.0,0.0,0.0,0.0,0.0,0.0,0.0,0.0,0.0,0.0,0.0,0.0,0.0,-0.7285,-0.8269,-0.9122,-0.9571,-0.9487,-0.9216,-0.8625,-0.7774,-0.6487,-0.4683,0.0,0.0,0.0,0.0,0.0,0.0,0.0,0.0,0.0,0.0,0.0,0.0,0.0,0.0,0.0,0.0,0.0,0.0,0.0,0.0,0.0,0.0,0.0,0.0,0.0,0.0,0.0,0.0,0.0,0.0,0.0,0.0,0.0,0.0,0.0,0.0,0.0,0.0,0.0,0.0,0.0,0.0,0.0,0.0,0.0,0.0,0.0,0.0,0.0,0.0,0.0,0.0,0.0,0.0,0.0,0.0,0.0,0.0,0.0,0.0,0.0,0.0,0.0,0.0,0.0,0.0,0.0,0.0,0.0,0.0,0.0,0.0,0.0,0.0,0.0,0.0,0.0,0.0,0.0,0.0,0.0,0.0,0.0,0.0,0.0,0.0,0.0,0.0,0.0,0.0,0.0,0.0,0.0,0.0,0.0,0.0,0.0,0.0,0.0,0.0,0.0,0.0,-0.7322,-0.8713,-0.9683,-0.9595,-0.9542,-0.9461,-0.9308,-0.8492,-0.7285,-0.5621,0.0,0.0,0.0,0.0,0.0,0.0,0.0,0.0,0.0,0.0,0.0,0.0,0.0,0.0,0.0,0.0,0.0,0.0,0.0,0.0,0.0,0.0,0.0,0.0,0.0,0.0,0.0,0.0,0.0,0.0,0.0,0.0,0.0,0.0,0.0,0.0,0.0,0.0,0.0,0.0,0.0,0.0,0.0,0.0,0.0,0.0,0.0,0.0,0.0,0.0,0.0,0.0,0.0,0.0,0.0,0.0,0.0,0.0,0.0,0.0,-1.2072,-1.0976,0.0,0.0,0.0,0.0,0.0,0.0,0.0,0.0,0.0,0.0,0.0,0.0,0.0,0.0,0.0,0.0,0.0,0.0,0.0,0.0,0.0,0.0,0.0,0.0,0.0,0.0,0.0,0.0,0.0,0.0,0.0,0.0,0.0,0.0,0.0,0.0,0.0,0.0,0.0,0.0,-0.7359,-0.8713,-0.9687,-0.9615,-0.9571,-0.954,-0.9408,-0.8594,-0.7601,-0.65,-0.5169,0.0,0.0,0.0,0.0,0.0,0.0,0.0,0.0,0.0,0.0,0.0,0.0,0.0,0.0,0.0,0.0,0.0,0.0,0.0,0.0,0.0,0.0,0.0,0.0,0.0,0.0,0.0,0.0,0.0,0.0,0.0,0.0,0.0,0.0,0.0,0.0,0.0,0.0,0.0,0.0,0.0,0.0,0.0,0.0,0.0,0.0,0.0,0.0,0.0,0.0,0.0,0.0,0.0,0.0,0.0,0.0,0.0,0.0,0.0,-1.5044,-1.3753,0.0,0.0,0.0,0.0,0.0,0.0,0.0,0.0,0.0,0.0,0.0,0.0,0.0,0.0,0.0,0.0,0.0,0.0,0.0,0.0,0.0,0.0,0.0,0.0,0.0,0.0,0.0,0.0,0.0,0.0,0.0,0.0,0.0,0.0,0.0,0.0,0.0,0.0,0.0,0.0,-0.7901,-0.893,-0.9694,-0.9642,-0.9655,-0.9603,-0.947,-0.8971,-0.829,-0.7389,-0.6407,0.0,0.0,0.0,0.0,0.0,0.0,0.0,0.0,0.0,0.0,0.0,0.0,0.0,0.0,0.0,0.0,0.0,0.0,0.0,0.0,0.0,0.0,0.0,0.0,0.0,0.0,0.0,0.0,0.0,0.0,0.0,0.0,0.0,0.0,0.0,0.0,0.0,0.0,0.0,0.0,0.0,0.0,0.0,0.0,0.0,0.0,0.0,0.0,0.0,0.0,0.0,0.0,0.0,-1.7157,-1.7503,-1.8161,-1.8315,-1.8776,-1.9357,-1.8122,-1.6983,-1.5979,-1.5762,0.0,0.0,0.0,0.0,0.0,0.0,0.0,0.0,0.0,0.0,0.0,0.0,0.0,0.0,0.0,0.0,0.0,0.0,0.0,0.0,0.0,0.0,-1.2302,-1.2302,-1.2187,-1.1384,-0.8713,0.0,0.0,0.0,0.0,0.0,0.0,0.0,0.0,0.0,0.0,0.0,-0.8479,-0.9217,-0.9702,-0.9702,-0.9702,-0.9659,-0.9513,-0.9359,-0.8939,-0.804,-0.7671,-0.6622,0.0,0.0,0.0,0.0,0.0,0.0,0.0,0.0,0.0,0.0,0.0,0.0,0.0,0.0,0.0,0.0,0.0,0.0,0.0,0.0,0.0,0.0,0.0,0.0,0.0,0.0,0.0,0.0,0.0,0.0,0.0,0.0,-0.8109,-0.848,0.0,0.0,0.0,0.0,0.0,0.0,0.0,0.0,0.0,0.0,0.0,0.0,0.0,-1.6619,-1.7199,-1.8927,-1.9808,-1.9808,-1.9808,-1.9846,-1.9962,-2.0696,-2.1043,-2.1196,-2.1739,0.0,-1.9457,-1.8692,0.0,0.0,0.0,0.0,0.0,0.0,0.0,0.0,0.0,0.0,0.0,0.0,0.0,0.0,0.0,0.0,0.0,0.0,0.0,0.0,0.0,0.0,-1.3151,-1.3151,-1.2595,-1.1966,-1.1567,-1.1563,-1.1187,-0.968,-0.8544,0.0,0.0,0.0,0.0,0.0,0.0,0.0,-0.8476,-0.9217,-0.9702,-0.9702,-0.9702,-0.9659,-0.9513,-0.9359,-0.8939,-0.804,-0.7843,-0.7075,-0.5528,-0.5562,0.0,0.0,0.0,0.0,0.0,0.0,0.0,0.0,0.0,0.0,0.0,0.0,0.0,0.0,0.0,0.0,0.0,0.0,0.0,0.0,0.0,0.0,0.0,0.0,0.0,0.0,0.0,0.0,0.0,-0.8769,-1.0115,-1.0261,-1.1109,-1.1536,0.0,0.0,0.0,0.0,0.0,0.0,0.0,0.0,0.0,-1.8115,-1.8923,-1.9969,-2.1281,-2.2504,-2.3346,-2.3846,-2.4351,-2.4582,-2.4582,-2.4928,-2.5082,-2.512,-2.551,-2.5231,-2.4293,-2.1482,-1.9759,-1.8773,0.0,0.0,0.0,0.0,-1.5845,-1.5808,-1.5447,-1.5013,-1.4578,-1.4248,0.0,0.0,0.0,0.0,0.0,0.0,0.0,-1.3618,-1.4431,-1.4976,-1.5197,-1.4762,-1.4395,-1.3985,-1.3545,-1.3466,-1.2947,0.0,-1.0708,-1.0177,-0.9389,0.0,0.0,0.0,0.0,-1.0017,-1.0461,-1.0833,-1.0869,-1.0425,-1.0384,-1.0127,-0.9549,-0.9359,-0.9106,-0.8686,-0.8528,-0.796,-0.6876,-0.6842,-0.6066,0.0,0.0,0.0,0.0,0.0,0.0,0.0,0.0,0.0,0.0,0.0,0.0,0.0,0.0,0.0,0.0,0.0,0.0,0.0,0.0,0.0,0.0,0.0,0.0,0.0,0.0,0.0,0.0,-1.0846,-1.2195,-1.2659,-1.3808,-1.4346,0.0,0.0,0.0,0.0,0.0,0.0,-1.8584,-1.8892,-1.9969,-2.2081,-2.2581,-2.3428,-2.474,-2.5543,-2.6269,-2.6928,-2.7582,-2.7895,-2.7895,-2.7895,-2.7895,-2.7895,-2.7895,-2.789,-2.761,-2.3924,-2.1972,-2.1216,-1.9972,-1.9027,-1.8372,-1.8197,-1.8163,-1.8163,-1.8163,-1.7766,-1.7222,-1.6995,-1.6108,-1.5007,-1.4389,0.0,0.0,0.0,0.0,-1.5264,-1.5857,-1.6438,-1.6762,-1.6151,-1.6004,-1.5857,-1.5227,-1.5111,-1.4567,0.0,-1.2412,-1.215,-1.1338,0.0,0.0,0.0,0.0,-1.1411,-1.2003,-1.2113,-1.1856,-1.126,-1.1223,-1.0826,-0.9896,-0.9708,-0.9514,-0.9214,-0.9023,-0.8586,-0.7829,-0.7786,-0.6821,-0.4761,0.0,0.0,0.0,0.0,0.0,0.0,0.0,0.0,0.0,0.0,0.0,0.0,0.0,0.0,0.0,0.0,0.0,0.0,0.0,0.0,0.0,0.0,0.0,0.0,0.0,0.0,0.0,0.0,0.0,-1.6042,-1.6311,0.0,0.0,0.0,0.0,-1.7507,-1.9081,-2.0423,-2.1273,-2.2081,-2.297,-2.3937,-2.5505,-2.639,-2.6467,-2.7351,-2.778,-2.7857,-2.7895,-2.7895,-2.7895,-2.7895,-2.7895,-2.7895,-2.7895,-2.7874,-2.7648,-2.5869,-2.5055,-2.4748,-2.2836,-2.2011,-2.1809,-2.1611,-2.1555,-2.1555,-2.1555,-2.1519,-2.1372,-2.0511,-1.8669,-1.6762,-1.6725,-1.6145,0.0,0.0,-1.6762,-1.6798,-1.6835,-1.6872,-1.6908,-1.6835,-1.6835,-1.6835,-1.6798,-1.6798,-1.6071,0.0,-1.3225,-1.2968,-1.2187,0.0,-1.2003,-1.204,-1.204,-1.204,-1.2076,-1.2113,-1.2076,-1.204,-1.204,-1.1686,-1.0817,-1.0596,-1.0155,-0.9269,-0.9071,-0.8628,-0.7824,-0.7795,-0.7021,-0.5388,-0.4775,0.0,0.0,0.0,0.0,0.0,0.0,0.0,0.0,0.0,0.0,0.0,0.0,0.0,0.0,0.0,0.0,0.0,0.0,0.0,0.0,0.0,0.0,0.0,0.0,0.0,0.0,0.0,0.0,-1.8049,-1.9046,0.0,-1.9735,-2.0465,-2.12,-2.1782,-2.2889,-2.3885,-2.4736,-2.5082,-2.562,-2.651,-2.7126,-2.7698,-2.8198,-2.8511,-2.8967,-2.95,-2.95,-2.95,-2.95,-2.95,-2.95,-2.95,-2.95,-2.9471,-2.9302,-2.8058,-2.6874,-2.5703,-2.4365,-2.3424,-2.2744,-2.2036,-2.1812,-2.1812,-2.1812,-2.1812,-2.1739,-2.1445,-2.0372,-1.9219,-1.9219,-1.8273,-1.7399,-1.8207,-1.8052,-1.7796,-1.8317,-1.8427,-1.8317,-1.7796,-1.7686,-1.7539,-1.7018,-1.6908,-1.6652,-1.5778,-1.5631,-1.5374,-1.4578,-1.4431,-1.4242,-1.3723,-1.3649,-1.3649,-1.3649,-1.3649,-1.3435,-1.2931,-1.2858,-1.2324,-1.0913,-1.0716,-1.025,-0.9337,-0.9124,-0.8917,-0.8591,-0.8534,-0.78,-0.6257,-0.6025,-0.5401,0.0,0.0,0.0,0.0,0.0,0.0,0.0,0.0,0.0,0.0,0.0,0.0,0.0,0.0,0.0,0.0,0.0,0.0,0.0,0.0,0.0,0.0,0.0,0.0,0.0,0.0,-2.0396,-2.0704,-2.1927,-2.2769,-2.2769,-2.3581,-2.4317,-2.4894,-2.5697,-2.6428,-2.7005,-2.7313,-2.7698,-2.828,-2.889,-2.9429,-2.9967,-3.0242,-3.066,-3.1231,-3.1231,-3.1115,-3.0846,-3.0846,-3.0692,-3.0385,-3.0385,-3.0343,-3.0221,-2.9448,-2.8449,-2.7206,-2.5925,-2.5011,-2.4347,-2.3667,-2.3428,-2.3391,-2.3098,-2.2657,-2.2208,-2.2208,-2.162,-2.0951,-2.0951,-2.0189,-1.9455,-1.9976,-1.9756,-1.9455,-2.0013,-1.994,-1.9565,-1.9043,-1.872,-1.8353,-1.7832,-1.7722,-1.7722,-1.7722,-1.7275,-1.6725,-1.6181,-1.5894,-1.5527,-1.4976,-1.4677,-1.4493,-1.4493,-1.4493,-1.431,-1.377,-1.3697,-1.3026,-1.137,-1.1167,-1.061,-0.9403,-0.9194,-0.9118,-0.905,-0.8964,-0.8332,-0.7095,-0.6352,-0.5473,-0.4499,0.0,0.0,0.0,0.0,0.0,0.0,0.0,0.0,0.0,0.0,0.0,0.0,0.0,0.0,0.0,0.0,0.0,0.0,0.0,0.0,0.0,0.0,0.0,-1.9112,-2.1273,-2.3201,-2.4091,-2.4889,-2.5385,-2.5423,-2.6192,-2.6697,-2.6736,-2.7505,-2.8011,-2.8011,-2.8742,-2.9204,-2.9204,-3.0852,-3.1737,-3.1737,-3.2506,-3.2891,-3.2891,-3.2891,-3.2506,-3.1737,-3.1737,-3.1269,-3.0462,-3.0462,-3.0407,-3.0258,-3.0023,-2.983,-2.9458,-2.7643,-2.6878,-2.6827,-2.6665,-2.6602,-2.6502,-2.5705,-2.441,-2.3116,-2.3079,-2.2538,-2.1923,-2.1886,-2.1849,-2.1849,-2.1849,-2.1812,-2.1812,-2.1812,-2.118,-2.0548,-2.0511,-1.9895,-1.9315,-1.9315,-1.9315,-1.9315,-1.9315,-1.8052,-1.6982,-1.6945,-1.6291,-1.5753,-1.5753,-1.5086,0.0,-1.453,-1.453,-1.453,-1.4493,-1.4493,-1.3864,-1.2267,-1.2054,-1.1262,-0.9538,-0.9282,-0.9164,-0.9092,-0.898,-0.8536,-0.7815,-0.5683,-0.4567,-0.4533,0.0,0.0,0.0,0.0,0.0,0.0,0.0,0.0,0.0,0.0,0.0,0.0,0.0,0.0,0.0,0.0,0.0,0.0,0.0,0.0,0.0,-2.0777,-2.2474,-2.185,-2.3385,-2.4923,-2.5813,-2.6659,-2.739,-2.8005,-2.828,-2.8659,-2.9308,-2.9577,-3.0,-3.0621,-3.0852,-3.1237,-3.1852,-3.2314,-3.2583,-3.2583,-3.2776,-3.2891,-3.2891,-3.2891,-3.2776,-3.2583,-3.2583,-3.2429,-3.2199,-3.2199,-3.2128,-3.1943,-3.1075,-3.0593,-3.0223,-2.8386,-2.7651,-2.7538,-2.6864,-2.6602,-2.6576,-2.6355,-2.5988,-2.5501,-2.4924,-2.4603,-2.4309,-2.3722,-2.3125,-2.2685,-2.2685,-2.2244,-2.1812,-2.1812,-2.1629,-2.129,-2.0658,-2.0327,-1.9997,-1.9426,-1.9315,-1.9315,-1.9315,-1.8948,-1.8463,-1.7869,-1.7575,-1.7245,-1.6658,-1.6395,0.0,-1.5454,-1.538,-1.516,-1.4567,-1.4493,-1.409,-1.3068,-1.2434,-1.1575,-1.0417,-0.9661,-0.9243,-0.9173,-0.8996,-0.8536,-0.7815,-0.669,-0.5913,0.0,0.0,0.0,0.0,0.0,0.0,0.0,0.0,0.0,0.0,0.0,0.0,0.0,0.0,0.0,0.0,0.0,0.0,0.0,0.0,0.0,0.0,-2.3389,-2.5356,-2.589,-2.6505,-2.7082,-2.7582,-2.8736,-2.966,-3.0121,-3.0506,-3.0891,-3.1423,-3.1462,-3.166,-3.2199,-3.2199,-3.2429,-3.2891,-3.3237,-3.343,-3.343,-3.3814,-3.4007,-3.4007,-3.4007,-3.3814,-3.343,-3.343,-3.3237,-3.2891,-3.2891,-3.2812,-3.2623,-3.1829,-3.1365,-3.1032,0.0,0.0,0.0,0.0,-2.7372,-2.709,-2.709,-2.6869,-2.6539,-2.6062,-2.5888,-2.5815,-2.5364,-2.463,-2.4006,-2.4006,-2.3419,-2.2804,-2.2804,-2.2547,-2.2171,-2.1685,-2.1025,-2.0364,-1.9895,-1.9536,-1.9315,-1.9315,-1.9315,0.0,-1.8684,-1.8317,-1.7942,-1.7458,-1.7128,-1.6615,-1.5784,-1.5717,-1.538,-1.4603,-1.4493,-1.4169,-1.3372,-1.2858,0.0,0.0,0.0,-0.9645,-0.9121,-0.9014,0.0,0.0,0.0,0.0,0.0,0.0,0.0,0.0,-0.6078,-0.6723,0.0,0.0,0.0,0.0,0.0,0.0,0.0,0.0,0.0,0.0,0.0,0.0,0.0,0.0,0.0,0.0,-2.5813,-2.7808,-3.0077,-2.989,-2.955,-2.955,-3.0891,-3.1852,-3.1852,-3.2468,-3.2891,-3.2891,-3.2891,-3.2929,-3.3045,0.0,0.0,0.0,0.0,-3.4359,-3.4359,-3.5115,-3.55,-3.55,-3.55,-3.5084,-3.4359,-3.4359,-3.393,-3.3199,-3.3199,-3.3119,-3.2967,-3.2502,-3.2162,-3.1655,-2.986,-2.9097,-2.8987,-2.8987,-2.8546,-2.7934,-2.7934,0.0,0.0,-2.6749,-2.6759,-2.6722,-2.6638,-2.6098,-2.5521,-2.5411,-2.4897,-2.43,-2.4226,-2.3676,-2.3116,-2.3006,-2.1795,-2.0621,-2.0503,-1.9858,-1.9315,-1.9315,-1.9315,-1.9315,-1.9315,-1.872,-1.8243,-1.8243,-1.7649,-1.6878,-1.6078,-1.5894,-1.5527,-1.4714,0.0,0.0,-1.3519,-1.3335,-1.2973,-1.2196,-1.125,-1.0302,-0.9326,-0.9276,-0.9214,-0.9151,-0.8496,-0.8187,-0.8153,-0.7501,-0.7192,-0.7192,-0.7365,-0.723,0.0,0.0,0.0,0.0,0.0,0.0,0.0,0.0,0.0,0.0,0.0,0.0,0.0,0.0,0.0,-2.4885,-2.7654,-2.9846,-3.0346,-3.1429,-3.216,-3.216,-3.2468,-3.266,-3.266,-3.2814,-3.2891,-3.2891,-3.2891,-3.3199,-3.3898,-3.3936,-3.4276,-3.4962,-3.5154,-3.5231,-3.5231,-3.5423,-3.55,-3.55,-3.55,0.0,-3.5231,-3.5231,-3.5154,-3.5,-3.5,-3.4877,-3.4639,-3.3619,-3.2499,-3.1384,-3.038,-2.9574,-2.8987,-2.8987,-2.8913,-2.8767,-2.8767,-2.8656,-2.8436,-2.7787,-2.7567,-2.7457,-2.6796,-2.6502,0.0,-2.5595,-2.5301,-2.5007,-2.4373,-2.408,-2.3786,-2.3153,-2.2244,-2.1363,-2.0658,-1.9858,-1.9315,-1.9315,-1.9315,-1.9315,-1.9315,-1.9168,-1.9058,-1.9058,-1.8948,-1.8537,-1.7729,-1.7062,-1.6365,-1.5564,-1.4897,-1.4457,-1.4273,-1.366,-1.3204,-1.2999,-1.2037,-1.1305,-1.0945,-1.0886,-1.0796,-1.0663,-1.0521,-1.0453,-1.0453,-1.0318,-1.025,-1.0216,-0.8525,-0.7679,0.0,0.0,0.0,0.0,0.0,0.0,0.0,0.0,0.0,0.0,0.0,-2.0773,-2.25,0.0,-2.6395,-2.7654,-2.9654,-3.1346,-3.2199,-3.3006,-3.3391,-3.2968,-3.3276,-3.3545,-3.3545,-3.3968,-3.4192,-3.4192,-3.4192,-3.4391,-3.4814,-3.4853,-3.5045,-3.55,-3.55,-3.55,-3.55,-3.55,-3.5493,-3.5434,-3.5412,-3.5398,-3.5415,-3.5361,-3.5346,-3.5346,-3.5346,-3.5253,-3.499,-3.4151,-3.3099,-3.1971,-3.1568,-3.0638,-2.961,-2.961,-2.9354,-2.8987,-2.8987,-2.8987,-2.8913,-2.8521,-2.8411,-2.8326,-2.7923,-2.753,-2.7016,-2.6209,-2.5705,-2.5191,-2.441,-2.419,-2.4116,-2.3712,-2.2685,-2.1666,-2.1253,-2.0197,-1.9315,-1.9315,-1.9315,-1.9315,-1.9315,-1.9315,-1.9315,-1.9315,-1.9315,-1.9022,-1.8207,-1.7385,-1.6578,-1.579,-1.4976,-1.4493,-1.4493,-1.4121,-1.3695,-1.3249,-1.2684,-1.2139,-1.1528,-1.1451,-1.1334,-1.1206,-1.1178,-1.1124,-1.1103,-1.1103,-1.1103,-1.1062,-0.998,-0.9269,0.0,0.0,0.0,0.0,0.0,0.0,0.0,0.0,-1.8696,-1.9577,-2.162,-2.3735,-2.5269,-2.6967,-2.8621,-3.0154,-3.1269,-3.2468,-3.3975,-3.4359,-3.4199,-3.3506,-3.4045,-3.443,-3.443,-3.5084,-3.55,-3.55,-3.55,-3.55,-3.55,-3.55,-3.55,-3.55,-3.55,-3.55,-3.55,-3.55,-3.5479,-3.5391,-3.53,-3.5246,-3.5237,-3.5141,-3.5107,-3.5107,-3.5089,-3.4944,-3.4733,-3.4344,-3.3648,-3.2839,-3.2839,-3.1959,-3.065,-3.032,-2.9806,-2.9207,-2.906,-2.8987,-2.8987,-2.8987,-2.8987,-2.8987,-2.8987,-2.8546,-2.7824,-2.6869,-2.6135,-2.5411,-2.4447,-2.419,-2.419,-2.419,-2.3098,-2.2033,-2.2033,-2.0858,-1.9756,-1.9572,-1.9528,-1.9499,-1.9315,-1.9315,-1.9315,-1.9315,-1.9315,-1.9058,-1.8427,-1.7649,-1.6835,-1.6004,-1.5191,-1.4677,-1.4493,-1.4513,-1.4196,-1.3504,-1.34,-1.2968,-1.2133,-1.2045,-1.1903,-1.1747,-1.1691,-1.1601,-1.1543,-1.1543,-1.1543,-1.1543,-1.1408,-1.0927,-1.7365,-1.7695,-1.8281,-1.8425,-1.9063,-1.9628,0.0,0.0,-2.1312,-2.2197,-2.3774,-2.5308,-2.6269,-2.7813,-2.9275,-3.0231,-3.1737,-3.3083,-3.4052,-3.4853,-3.5308,-3.5231,-3.5308,-3.5346,-3.5346,-3.5423,-3.55,-3.55,-3.55,-3.55,-3.55,-3.55,-3.55,-3.55,-3.55,-3.55,-3.55,-3.55,-3.5427,-3.5315,-3.516,-3.506,-3.4934,-3.4794,-3.4763,-3.4763,-3.4624,-3.4438,-3.4258,-3.4166,-3.393,-3.366,-3.366,-3.3109,-3.2142,-3.0723,-3.0136,-2.9953,-2.9244,-2.8987,-2.8987,-2.8987,-2.8987,-2.8987,-2.8987,-2.895,-2.8546,-2.7042,-2.6539,-2.6135,-2.4593,-2.419,-2.419,-2.419,-2.3529,-2.2859,-2.2859,-2.2171,-2.1298,-2.0511,-2.0364,-2.0144,-1.9426,-1.9315,-1.9315,-1.9315,-1.9315,-1.9279,-1.9168,-1.8463,-1.7649,-1.6835,-1.6041,-1.527,-1.4567,-1.4488,-1.4451,-1.4372,-1.4283,-1.4168,-1.3905,-1.3803,-1.3588,-1.3359,-1.3301,-1.3206,-1.3142,-1.3142,-1.3142,-1.3142,-1.2457,-1.1739,-1.8505,-1.9368,0.0,0.0,-2.1082,-2.1863,-2.2342,-2.3115,-2.4115,-2.5466,-2.6697,-2.7775,-2.8654,-2.9385,-3.0314,0.0,-3.2429,-3.3391,-3.4776,-3.4814,-3.493,-3.5423,-3.5045,-3.493,-3.5462,-3.55,-3.55,-3.55,-3.55,-3.5493,-3.5434,-3.5904,-3.5921,-3.54,-3.5837,-3.5822,-3.5331,-3.5331,-3.5277,-3.5124,-3.4972,-3.4851,-3.4713,-3.4577,-3.4524,-3.4513,-3.439,-3.4274,-3.4117,-3.4018,-3.3926,-3.3807,-3.3807,-3.3587,-3.3146,-3.2008,-3.1017,-3.0136,-2.9843,-2.939,-2.8987,-2.8987,-2.8987,-2.8987,-2.8987,-2.8987,-2.8767,-2.764,-2.6979,-2.6355,-2.5191,-2.4566,-2.419,-2.419,-2.3602,-2.3006,-2.3006,-2.2354,-2.1702,-2.1327,-2.0841,-2.0401,-2.0071,-1.9601,-1.9315,-1.9315,-1.9315,-1.9315,-1.9315,-1.861,-1.7612,-1.6328,-1.5881,-1.5356,-1.452,-1.4423,-1.4435,-1.4381,-1.435,-1.4287,-1.4167,-1.4026,-1.3855,-1.3659,-1.3534,-1.3462,-1.3413,-1.3413,-1.3413,-1.3379,-1.3066,-1.2762,-1.9677,0.0,0.0,-2.2235,-2.3043,-2.4009,-2.4663,-2.5428,-2.6428,-2.7934,-2.8511,-2.9083,-3.0192,-3.0192,-3.0621,-3.2275,-3.2776,-3.343,-3.493,-3.4814,-3.4776,-3.5423,-3.493,-3.4808,-3.5409,-3.5493,-3.55,-3.55,-3.55,-3.5556,-3.5736,-3.6243,-3.6332,-3.59,-3.6174,-3.6024,-3.5415,-3.5186,-3.4972,-3.4879,-3.4723,-3.4577,-3.4461,-3.4323,-3.4215,-3.4252,-3.4117,-3.4043,-3.3992,-3.3926,-3.386,-3.3807,-3.3807,-3.3807,-3.3733,-3.3146,-3.2032,-3.0797,-3.0356,-2.9843,-2.928,-2.906,-2.8987,-2.8987,-2.8987,-2.8987,-2.884,-2.8044,-2.7236,-2.6429,-2.5595,-2.4787,-2.419,-2.419,-2.3749,-2.3336,-2.3336,-2.2868,-2.24,-2.218,-2.162,-2.1061,-2.0576,-2.0042,-1.9572,-1.9315,-1.9315,-1.9315,-1.9315,-1.861,-1.7656,-1.6481,-1.5942,-1.5385,-1.4745,-1.4476,-1.4274,-1.418,-1.4196,-1.4163,-1.4045,-1.392,-1.3818,-1.3659,-1.3568,-1.3462,-1.3413,-1.3413,-1.3413,-1.3413,-1.3413,-1.3413,0.0,0.0,-2.4014,-2.4014,-2.5279,-2.6505,-2.6505,-2.7198,-2.8049,-2.8896,-2.8472,-2.8429,-3.0115,-2.9698,-2.9704,-3.1468,-3.2391,-3.3199,-3.4129,-3.493,-3.5462,-3.55,-3.5462,-3.5448,0.0,-3.5479,-3.55,-3.55,-3.55,-3.5811,-3.6535,-3.6396,-3.6615,-3.7318,-3.6419,-3.592,-3.5883,-3.51,-3.4634,-3.4518,-3.4304,-3.4189,-3.4093,-3.3926,-3.382,-3.382,-3.382,-3.382,-3.382,-3.3807,-3.3807,-3.3807,-3.3807,-3.3807,-3.3807,-3.377,-3.3256,-3.2289,-3.076,-3.0173,-3.0014,-2.9244,-2.8987,-2.8987,-2.8987,-2.8987,-2.884,-2.8044,-2.7236,-2.6429,-2.5595,-2.4787,-2.419,-2.419,-2.419,-2.4153,-2.4153,-2.4153,-2.3896,-2.3116,-2.2933,-2.2419,-2.0768,-2.0474,-2.0217,-1.9426,-1.9315,-1.9315,-1.9315,-1.861,-1.8089,-1.8016,-1.6568,-1.5539,-1.5379,-1.4576,-1.4045,-1.3927,-1.3913,-1.3913,-1.3913,-1.3849,-1.3746,-1.3609,-1.3549,-1.3479,-1.3413,-1.3413,-1.3413,-1.3413,-1.3413,-1.3413,0.0,0.0,-2.5043,-2.562,-2.6621,-2.7582,-2.8126,-2.8472,-2.878,-2.905,-2.8896,-2.8703,-2.8736,-2.8934,-2.9473,-3.0654,-3.2006,-3.3199,-3.409,-3.443,-3.4853,-3.5423,-3.5007,0.0,0.0,0.0,0.0,-3.5354,-3.586,-3.6209,-3.6347,-3.7242,-3.7564,-3.7159,-3.7275,-3.7091,-3.6517,-3.6218,-3.6047,-3.5876,-3.5204,-3.4803,-3.4673,-3.4054,-3.3807,-3.3807,-3.3807,-3.3807,-3.3807,-3.3807,-3.3807,-3.3807,-3.3807,-3.3807,-3.3807,-3.3807,-3.3623,-3.3183,-3.1531,-3.065,-3.0063,-2.9244,-2.8987,-2.8987,-2.8987,-2.8987,-2.895,-2.8656,-2.7629,-2.6539,-2.6282,-2.5181,-2.419,-2.419,-2.419,-2.419,-2.419,-2.419,-2.4116,-2.3859,-2.3373,-2.2639,-2.1547,-2.0878,-2.0217,-1.9426,-1.9315,-1.9315,-1.9315,-1.9058,-1.8684,-1.817,-1.7555,-1.6703,-1.556,-1.5124,-1.4595,-1.3947,-1.3875,-1.3811,-1.3754,-1.3686,-1.3644,-1.3549,-1.3469,-1.3429,-1.3413,-1.3413,-1.3413,-1.3413,-1.3413,-1.3413,-2.4006,-2.5241,-2.6346,-2.6928,-2.7698,-2.8396,-2.8626,-2.8896,-2.9011,-2.8742,-2.8165,-2.7775,-2.7895,-2.8088,-2.8582,-2.9737,-3.1583,-3.3083,-3.3667,-3.4276,-3.4846,-3.5402,-3.4934,-3.4784,0.0,0.0,0.0,-3.5607,-3.6033,-3.6492,-3.69,-3.7777,-3.8126,-3.7742,-3.7849,-3.7607,-3.7074,-3.6777,-3.6589,-3.6495,-3.5878,-3.5537,-3.5445,-3.4945,-3.4504,-3.4234,-3.4234,-3.4064,-3.3807,-3.3807,-3.3807,-3.3807,-3.3807,-3.3807,-3.3807,-3.3807,-3.3807,-3.355,-3.1947,-3.1054,-3.0467,-2.9354,-2.8987,-2.8987,-2.8987,-2.8987,-2.8987,-2.8987,-2.8033,-2.6979,-2.6675,-2.5621,-2.4566,-2.4263,-2.419,-2.419,-2.419,-2.419,-2.419,-2.419,-2.3786,-2.3088,-2.1996,-2.0849,-1.9895,-1.9389,-1.9315,-1.9315,-1.9315,-1.9315,-1.9095,-1.8574,-1.8221,-1.7555,-1.6407,-1.5928,-1.5396,-1.4698,-1.4313,-1.4067,-1.3979,-1.3705,-1.3528,-1.3479,-1.3429,-1.3396,-1.3413,-1.3413,-1.3413,-1.3413,-1.3413,-1.3413,-2.5232,-2.6617,-2.7972,-2.8011,-2.8588,-2.8934,-2.8165,-2.8511,-2.8819,-2.7934,-2.6428,-2.5731,0.0,0.0,-2.7082,-2.878,-3.116,-3.2852,-3.2891,-3.4385,-3.5486,0.0,0.0,0.0,0.0,0.0,0.0,-3.6226,0.0,-3.6663,-3.8102,-3.8027,-3.8265,-3.897,-3.8052,-3.7566,-3.7566,-3.6795,-3.6413,-3.6413,-3.6376,-3.634,-3.634,-3.6303,-3.5826,-3.5004,-3.5004,-3.4527,-3.3807,-3.3807,-3.3807,-3.3807,-3.3807,-3.3807,-3.3807,-3.3807,-3.3807,-3.3587,-3.2021,-3.1433,-3.114,-2.9574,-2.9023,-2.8987,-2.8987,-2.8987,-2.8987,-2.8987,-2.8411,-2.7603,-2.6869,-2.6025,-2.5191,-2.4447,-2.4226,-2.419,-2.419,-2.419,-2.419,-2.419,-2.4153,-2.3639,-2.2069,-2.0454,-1.9352,-1.9315,-1.9315,-1.9315,-1.9315,-1.9315,-1.9308,-1.9308,-1.8558,-1.8,-1.7819,-1.6952,-1.6339,-1.601,-1.5193,-1.4683,-1.4513,-1.3845,-1.3447,-1.3413,-1.3413,-1.3413,-1.3413,-1.3413,-1.3413,-1.3413,-1.3413,-1.3413,-2.748,-2.8306,-2.8934,-2.9621,-2.9923,-2.9852,-2.9011,-2.8472,-2.7775,-2.6269,-2.512,-2.4548,0.0,0.0,0.0,-2.7934,-3.0352,0.0,-3.2814,-3.4385,0.0,-3.533,0.0,-3.603,-3.5941,-3.6518,0.0,0.0,-3.772,-3.7802,-3.8051,-3.8478,-3.8771,-3.8848,-3.8544,-3.8395,-3.8395,-3.8175,-3.8102,-3.8065,-3.7477,-3.7199,-3.7162,-3.656,-3.5826,-3.5004,-3.5004,-3.4527,-3.3807,-3.3807,-3.3807,-3.3807,-3.3807,-3.3807,-3.3807,-3.3807,-3.3807,-3.366,-3.2632,-3.1898,-3.125,-3.021,-2.95,-2.8987,-2.8987,-2.8987,-2.8987,-2.8987,-2.8411,-2.7761,-2.753,-2.6439,-2.5338,-2.5154,-2.464,-2.419,-2.419,-2.419,-2.419,-2.419,-2.3712,-2.2978,-2.1959,-2.0923,-2.0005,-1.9389,-1.9315,-1.9315,-1.9315,-1.9285,-1.929,-1.9214,-1.8996,-1.8507,-1.7779,-1.7353,-1.6835,-1.6044,-1.5656,-1.5176,-1.4537,-1.4334,-1.3971,-1.3413,-1.3413,-1.3413,-1.3413,-1.3413,-1.3413,-1.3413,-1.3413,-1.3413,-2.8465,-2.9167,-2.974,-3.0251,-3.011,-2.9506,-2.8275,-2.7351,-2.6274,-2.4543,-2.3274,0.0,0.0,0.0,0.0,0.0,0.0,0.0,-3.2718,-3.4043,-3.5108,0.0,-3.5977,0.0,-3.657,-3.7219,-3.7784,0.0,-3.8153,-3.8202,-3.8427,-3.8691,-3.8818,-3.8765,-3.8719,-3.8689,-3.8689,-3.8689,-3.8689,-3.8689,-3.8248,-3.8028,-3.8006,-3.7551,-3.6707,-3.5555,-3.5555,-3.4908,-3.3807,-3.3807,-3.3807,-3.3807,-3.3807,-3.3807,-3.3807,-3.3807,-3.3807,-3.3733,-3.3293,-3.2596,-3.1751,-3.0577,-2.9867,-2.9464,-2.9097,-2.8987,-2.8987,-2.8987,-2.8656,-2.8264,-2.7897,-2.7137,-2.6292,-2.5558,-2.5044,-2.464,-2.4263,-2.419,-2.419,-2.419,-2.3566,-2.2859,-2.2391,-2.1318,-2.0364,-1.9895,-1.952,-1.9277,-1.9253,-1.9266,-1.9219,-1.9129,-1.9008,-1.8725,-1.8128,-1.7949,-1.7606,-1.6988,-1.6517,-1.6038,-1.5503,-1.4842,-1.4301,-1.387,-1.3574,-1.354,-1.387,-1.354,-1.3574,-1.387,-1.354,-1.3413,-2.8788,-2.9534,-3.0241,-3.0132,-2.9598,-2.8626,-2.6851,-2.5654,-2.45,-2.2812,0.0,-2.0465,-2.2158,-2.247,-2.3351,-2.6005,0.0,-3.068,-3.2448,-3.3482,-3.4611,-3.6093,-3.6174,-3.6395,-3.7159,-3.7938,-3.8353,-3.8239,-3.8113,-3.8319,-3.8933,-3.881,-3.8689,-3.8689,-3.8689,-3.8689,-3.8689,-3.8689,-3.8689,-3.8689,-3.8689,-3.8689,-3.8689,-3.8689,-3.7808,-3.6303,-3.6303,-3.5349,-3.3807,-3.3807,-3.3807,-3.3807,-3.3807,-3.3807,-3.3807,-3.3807,-3.3807,-3.3807,-3.3807,-3.333,-3.2509,-3.1017,-3.0393,-3.0063,-2.9354,-2.9097,-2.8987,-2.8987,-2.8987,-2.884,-2.8154,-2.7871,-2.7467,-2.6035,-2.5558,-2.5191,-2.453,-2.4263,-2.419,-2.419,-2.3639,-2.3116,-2.3006,-2.1795,-2.0768,-2.0539,-1.9892,-1.9368,-1.9194,-1.9178,-1.9129,-1.8948,-1.8852,-1.8698,-1.8584,-1.8442,-1.8323,-1.8205,-1.7525,-1.699,-1.6699,-1.546,-1.474,-1.4639,-1.4014,-1.4014,-1.4639,-1.4014,-1.398,-1.447,-1.3836,-1.3472,-2.9465,-2.9785,-2.9897,-2.9283,-2.914,-2.8472,-2.6077,-2.4351,0.0,0.0,0.0,-1.8696,-2.0427,-2.0731,-2.1808,-2.5,0.0,0.0,0.0,0.0,-3.4395,0.0,0.0,0.0,0.0,0.0,0.0,0.0,-3.8944,-3.8887,-3.8921,-3.878,-3.8689,-3.8689,-3.8689,-3.8689,-3.8689,-3.8689,-3.8689,-3.8689,-3.8689,-3.8689,-3.8689,-3.8689,-3.7808,-3.6303,-3.6303,-3.5349,-3.3807,-3.3807,-3.3807,-3.3807,-3.3807,-3.3807,-3.3807,-3.3807,-3.3807,-3.3807,-3.3807,-3.3697,-3.344,-3.2472,-3.1262,-3.0173,-3.0026,-2.9537,-2.8987,-2.8987,-2.8987,-2.8987,-2.884,-2.8301,-2.7725,-2.7467,-2.6366,-2.5374,-2.5227,-2.4677,-2.419,-2.419,-2.408,-2.3786,-2.3116,-2.2749,-2.2089,-2.0731,-2.0343,-1.9923,-1.9134,-1.8983,-1.8913,-1.877,-1.8622,-1.8497,-1.8343,-1.8291,-1.8197,-1.8134,-1.789,-1.7418,-1.6733,-1.6451,-1.6045,-1.5426,-1.5291,-1.5291,-1.5426,-1.5291,-1.4986,-1.4504,-1.4368,-1.3971,-2.9429,-2.9741,-2.9711,-2.8994,-2.8224,-2.7154,-2.5044,0.0,0.0,0.0,0.0,-1.7416,-1.8678,0.0,0.0,0.0,0.0,0.0,0.0,0.0,0.0,0.0,0.0,0.0,0.0,0.0,0.0,-3.905,-3.9055,-3.9004,-3.8964,-3.8795,-3.8689,-3.8689,-3.8689,-3.8689,-3.8689,-3.8689,-3.8689,-3.8689,-3.8689,-3.8689,-3.8689,-3.8689,-3.7808,-3.6303,-3.6303,-3.5349,-3.3807,-3.3807,-3.3807,-3.3807,-3.3807,-3.3807,-3.3807,-3.3807,-3.3807,-3.3807,-3.3807,-3.3807,-3.3733,-3.3366,-3.2399,-3.1298,-3.0467,-2.9953,-2.9537,-2.9133,-2.8987,-2.8987,-2.8987,-2.8693,-2.8338,-2.7897,-2.6586,-2.5301,-2.486,-2.4493,-2.419,-2.419,-2.419,-2.408,-2.3676,-2.3263,-2.2712,-2.1905,-2.0967,-2.0154,-1.9588,-1.9048,-1.8641,-1.8477,-1.8348,-1.8205,-1.8057,-1.8027,-1.7983,-1.7961,-1.7872,-1.7658,-1.7287,-1.6891,-1.6519,-1.618,-1.5808,-1.5808,-1.618,-1.5808,-1.5629,-1.5629,-1.5257,-1.4885,-2.8964,-2.9439,-2.9506,-2.8577,-2.7317,-2.585,-2.3988,-2.159,0.0,0.0,-1.7242,-1.633,-1.7127,0.0,0.0,0.0,0.0,0.0,0.0,0.0,0.0,0.0,0.0,0.0,0.0,0.0,0.0,-3.8848,-3.8906,-3.895,-3.895,-3.8795,-3.8689,-3.8689,-3.8689,-3.8689,-3.8689,-3.8689,-3.8689,-3.8689,-3.8689,-3.8689,-3.8689,-3.8689,-3.7808,-3.6303,-3.6303,-3.5349,-3.3807,-3.3807,-3.3807,-3.3807,-3.3807,-3.3807,-3.3807,-3.3807,-3.3807,-3.3807,-3.3807,-3.3807,-3.3807,-3.3807,-3.3256,-3.2362,-3.1078,-3.0467,-3.0063,-2.9427,-2.9133,-2.8987,-2.8987,-2.8987,-2.8767,-2.7787,-2.6586,-2.5374,-2.441,-2.419,-2.419,-2.419,-2.419,-2.419,-2.419,-2.3676,-2.3189,-2.3043,-2.1753,-2.0599,-2.0044,-1.9214,-1.8578,-1.8152,-1.8068,-1.8005,-1.7794,-1.7783,-1.7783,-1.7783,-1.7783,-1.7783,-1.7783,-1.7253,-1.6925,-1.6925,-1.6373,-1.6339,-1.6925,-1.6339,-1.6282,-1.6699,-1.6113,-1.5731,-2.8081,-2.8755,-2.9081,-2.7557,-2.6575,-2.5399,-2.3012,0.0,0.0,-1.7618,-1.6177,-1.527,-1.6082,-1.6309,0.0,0.0,0.0,0.0,0.0,0.0,0.0,0.0,0.0,0.0,0.0,0.0,0.0,-3.8704,-3.8719,-3.8719,-3.8719,-3.8704,-3.8689,-3.8689,-3.8689,-3.8689,-3.8689,-3.8689,-3.8689,-3.8689,-3.8689,-3.8689,-3.8689,-3.8689,-3.7808,-3.6303,-3.6303,-3.5349,-3.3807,-3.3807,-3.3807,-3.3807,-3.3807,-3.3807,-3.3807,-3.3807,-3.3807,-3.3807,-3.3807,-3.3807,-3.3807,-3.3807,-3.3256,-3.2583,-3.2399,-3.1347,-3.0173,-3.0099,-2.9574,-2.8987,-2.8987,-2.8987,-2.862,-2.7079,-2.6612,-2.6062,-2.452,-2.419,-2.419,-2.419,-2.419,-2.419,-2.419,-2.4153,-2.3859,-2.3116,-2.271,-2.1844,-2.0042,-1.9577,-1.9011,-1.7963,-1.7883,-1.7883,-1.7828,-1.7783,-1.7783,-1.7783,-1.7783,-1.7783,-1.7783,-1.7715,-1.7681,-1.7681,-1.7614,-1.7614,-1.7681,-1.7614,-1.7287,-1.6699,-1.6631,-1.6248,-2.6948,-2.7503,-2.7575,-2.6488,-2.5323,-2.3911,-2.1922,0.0,-1.7524,-1.6672,-1.5578,-1.4893,-1.5203,-1.57,-1.6557,-1.8137,-2.0272,-2.2726,0.0,0.0,0.0,0.0,0.0,0.0,0.0,0.0,-3.8175,-3.8652,-3.8689,-3.8689,-3.8689,-3.8689,-3.8689,-3.8689,-3.8689,-3.8689,-3.8689,-3.8689,-3.8689,-3.8689,-3.8689,-3.8689,-3.8689,-3.8689,-3.7808,-3.6303,-3.6303,-3.5349,-3.3807,-3.3807,-3.3807,-3.3807,-3.3807,-3.3807,-3.3807,-3.3807,-3.3807,-3.3807,-3.3807,-3.3807,-3.3807,-3.3807,-3.3256,-3.2509,-3.2008,-3.1421,-3.0723,-2.9757,-2.9244,-2.8987,-2.8987,-2.8987,-2.873,-2.7603,-2.6921,-2.6219,-2.5053,-2.4401,-2.4006,-2.3976,-2.3966,-2.3966,-2.3966,-2.3966,-2.3856,-2.3519,-2.2911,-2.2117,-2.1174,-2.0068,-1.9143,-1.8539,-1.8087,-1.7816,-1.7783,-1.7783,-1.7783,-1.7783,-1.7783,-1.7783,-1.7783,-1.7783,-1.7783,-1.7783,-1.7783,-1.7783,-1.7783,-1.7783,-1.7659,-1.7354,-1.7354,-1.7219,-2.5645,-2.6341,-2.6512,-2.5514,-2.4271,-2.276,0.0,0.0,-1.6872,-1.6077,-1.5211,-1.4642,-1.4642,-1.5142,-1.5919,-1.7068,-1.8989,-2.1324,-2.4016,0.0,0.0,0.0,0.0,0.0,0.0,-3.7199,-3.7823,-3.8652,-3.8689,-3.8689,-3.8689,-3.8689,-3.8689,-3.8689,-3.8689,-3.8689,-3.8689,-3.8689,-3.8689,-3.8689,-3.8689,-3.8689,-3.8689,-3.8689,-3.7808,-3.6303,-3.6303,-3.5349,-3.3807,-3.3807,-3.3807,-3.3807,-3.3807,-3.3807,-3.3807,-3.3807,-3.3807,-3.3807,-3.3807,-3.3807,-3.3807,-3.3807,-3.3256,-3.2436,-3.1641,-3.125,-3.0797,-2.9647,-2.917,-2.8987,-2.8987,-2.8987,-2.8803,-2.797,-2.7292,-2.652,-2.5354,-2.4588,-2.4042,-2.3703,-2.361,-2.361,-2.361,-2.361,-2.361,-2.361,-2.2979,-2.235,-2.1885,-2.0709,-1.9681,-1.898,-1.8437,-1.802,-1.7817,-1.7783,-1.7783,-1.7783,-1.7783,-1.7783,-1.7783,-1.7783,-1.7783,-1.7783,-1.7783,-1.7783,-1.7783,-1.7783,-1.7783,-1.7783,-1.7783,-1.7783,-2.4226,-2.5401,-2.6209,-2.464,-2.3602,-2.2354,0.0,-1.806,-1.6658,-1.5864,-1.505,-1.4493,-1.4493,-1.4493,-1.5091,-1.6836,-1.7832,-1.9607,-2.2952,0.0,0.0,0.0,0.0,0.0,0.0,-3.6523,-3.7823,-3.8652,-3.8689,0.0,-3.8689,-3.8689,-3.8689,-3.8689,-3.8689,-3.8689,-3.8689,-3.8689,-3.8689,-3.8689,-3.8689,-3.8689,-3.8689,-3.8689,-3.7808,-3.6303,-3.6303,-3.5349,-3.3807,-3.3807,-3.3807,-3.3807,-3.3807,-3.3807,-3.3807,-3.3807,-3.3807,-3.3807,-3.3807,-3.3807,-3.3807,-3.3807,-3.3256,-3.2436,-3.1641,-3.0834,-3.021,-3.021,-2.961,-2.8987,-2.8987,-2.8987,-2.8803,-2.797,-2.7698,-2.7086,-2.5272,-2.4799,-2.4397,-2.3413,-2.32,-2.32,-2.32,-2.32,-2.32,-2.32,-2.3141,-2.2749,-2.1739,-2.1534,-2.0822,-1.907,-1.8877,-1.8572,-1.785,-1.7783,-1.7783,-1.7783,-1.7783,-1.7783,-1.7783,-1.7783,-1.7783,-1.7783,-1.7783,-1.7783,-1.7783,-1.7783,-1.7783,-1.7783,-1.7783,-1.7783,-2.2253,-2.2914,-2.3208,-2.2694,-2.1519,-2.0115,-1.8794,-1.7252,-1.5857,-1.505,-1.4677,-1.4493,-1.4493,-1.4493,-1.5068,-1.6756,-1.777,0.0,0.0,0.0,0.0,0.0,0.0,0.0,0.0,0.0,-3.8432,-3.8689,-3.8689,-3.8689,-3.8689,-3.8689,-3.8689,-3.8689,-3.8689,-3.8689,-3.8689,-3.8689,-3.8689,-3.8689,-3.8689,-3.8689,-3.8689,-3.8689,-3.7808,-3.6303,-3.6303,-3.5349,-3.3807,-3.3807,-3.3807,-3.3807,-3.3807,-3.3807,-3.3807,-3.3807,-3.3807,-3.3807,-3.3807,-3.3807,-3.3807,-3.3807,-3.2889,-3.1715,-3.147,-3.0834,-3.0075,-2.943,-2.9016,-2.8785,-2.8737,-2.8761,-2.8737,-2.8517,-2.796,-2.7272,-2.6572,-2.5433,-2.4405,-2.3858,-2.333,-2.298,-2.298,-2.298,-2.298,-2.298,-2.2914,-2.2717,-2.2324,-2.176,-2.1118,-2.0526,-1.9532,-1.8606,-1.785,-1.7783,-1.7783,-1.7783,-1.7783,-1.7783,-1.7783,-1.7783,-1.7783,-1.7783,-1.7783,-1.7783,-1.7783,-1.7783,-1.7783,-1.7783,-1.7783,-1.7783,0.0,-2.0637,-2.0784,-2.049,-1.9609,-1.8574,-1.7436,-1.6408,-1.5454,-1.4677,-1.4493,-1.4493,-1.4493,-1.4493,-1.505,-1.6691,-1.7665,0.0,0.0,0.0,0.0,0.0,0.0,0.0,0.0,-3.7477,-3.8358,-3.8689,-3.8689,-3.8689,-3.8689,-3.8689,-3.8689,-3.8689,-3.8689,-3.8689,-3.8689,-3.8689,-3.8689,-3.8689,-3.8689,-3.8689,-3.8689,-3.8689,-3.7991,-3.6743,-3.6413,-3.5532,0.0,-3.3917,-3.3807,-3.3807,-3.3807,-3.3807,-3.3807,-3.3807,-3.3807,-3.3807,-3.3807,-3.3807,-3.3807,-3.3807,-3.2693,-3.131,-3.0955,-3.032,-2.9515,-2.8846,-2.8589,-2.8487,-2.837,-2.8409,-2.8513,-2.8626,-2.8189,-2.7605,-2.7089,-2.6047,-2.4923,-2.3964,-2.3412,-2.2999,-2.2724,-2.2655,-2.2655,-2.2655,-2.2609,-2.2542,-2.2487,-2.201,-2.1549,-2.1237,-2.0344,-1.935,-1.829,-1.7952,-1.7783,-1.7783,-1.7783,-1.7783,-1.7783,-1.7783,-1.7783,-1.7783,-1.7783,-1.7783,-1.7783,-1.7783,-1.7783,-1.7783,-1.7783,-1.7783,0.0,-1.85,-1.9022,-1.8207,-1.8016,-1.7619,-1.6041,-1.5643,0.0,-1.464,-1.4493,-1.453,-1.4567,-1.4603,-1.5117,-1.6798,-1.7759,0.0,0.0,0.0,0.0,0.0,0.0,0.0,-3.6303,-3.7125,-3.7896,-3.8652,-3.8689,-3.8689,-3.8689,-3.8689,-3.8689,-3.8689,-3.8689,-3.8689,-3.8689,-3.8689,-3.8689,-3.8689,-3.8689,-3.8689,-3.8689,-3.8689,-3.8248,-3.7456,-3.6707,-3.5862,-3.4931,-3.4211,-3.3844,-3.3807,-3.3807,-3.3807,-3.3807,-3.3807,-3.3807,-3.3807,-3.3807,-3.3807,-3.3807,-3.3733,-3.2653,-3.1185,-3.0281,-2.9405,-2.8724,-2.8451,-2.8259,-2.8134,-2.7926,-2.7982,-2.8112,-2.8311,-2.8331,-2.8004,-2.708,-2.6613,-2.5799,-2.3852,-2.3444,-2.3173,-2.2415,-2.2313,-2.2313,-2.2313,-2.2313,-2.2313,-2.2313,-2.2313,-2.2057,-2.136,-2.1224,-2.0615,-1.9193,-1.8335,-1.785,-1.7783,-1.7783,-1.7783,-1.7783,-1.7783,-1.7783,-1.7783,-1.7783,-1.7783,-1.7783,-1.7783,-1.7783,-1.7783,-1.7783,-1.7783,-1.5227,0.0,-1.8207,-1.7385,-1.7165,-1.6908,0.0,-1.5233,-1.4714,0.0,0.0,-1.4677,-1.5307,-1.5417,-1.6151,-1.8353,-1.941,-2.0878,0.0,0.0,0.0,0.0,0.0,-3.7015,-3.7199,-3.7955,-3.8505,-3.8689,-3.8689,-3.8689,-3.8689,-3.8689,-3.8689,-3.8689,-3.8689,-3.8689,-3.8689,-3.8689,-3.8689,-3.8689,-3.8689,-3.8689,-3.8689,-3.8689,-3.8248,-3.7492,-3.7309,-3.6376,-3.5004,-3.4784,-3.4344,-3.3807,-3.3807,-3.3807,-3.3807,-3.3807,-3.3807,-3.3807,-3.3807,-3.3807,-3.3697,-3.3073,-3.2541,-3.186,-3.0209,-2.914,-2.8435,-2.8161,-2.7954,-2.7768,-2.7627,-2.7701,-2.7826,-2.8051,-2.7982,-2.7855,-2.7542,-2.6789,-2.5784,-2.4482,-2.3797,-2.3173,-2.2415,-2.2313,-2.2313,-2.2313,-2.2313,-2.2313,-2.2313,-2.2313,-2.2212,-2.2057,-2.1529,-2.1055,-2.0683,-1.9418,-1.8403,-1.785,-1.7783,-1.7783,-1.7783,-1.7783,-1.7783,-1.7783,-1.7783,-1.7783,-1.7783,-1.7783,-1.7783,-1.7783,-1.7783,-1.7783,-1.4362,-1.5716,-1.6885,-1.6475,-1.6365,-1.6255,-1.5784,0.0,0.0,0.0,0.0,0.0,-1.5564,-1.6004,0.0,-1.9455,-2.0841,0.0,0.0,0.0,0.0,0.0,0.0,-3.8028,0.0,-3.8432,-3.8689,-3.8689,-3.8689,-3.8689,-3.8689,-3.8689,-3.8689,-3.8689,-3.8689,-3.8689,-3.8689,-3.8689,-3.8689,-3.8689,-3.8689,-3.8689,-3.8689,-3.8689,-3.8469,-3.8006,-3.7272,-3.6413,-3.5518,-3.4747,-3.4211,-3.3807,-3.3766,-3.3739,-3.3698,-3.3671,-3.3629,-3.3601,-3.3601,-3.3601,-3.3528,-3.3127,-3.2587,-3.1931,-3.0808,-2.9533,-2.8393,-2.7845,-2.7547,-2.7384,-2.7181,-2.7244,-2.743,-2.7636,-2.7657,-2.7597,-2.7517,-2.7007,-2.6158,-2.4773,-2.4169,-2.3545,-2.2496,-2.2313,-2.2313,-2.2313,-2.2313,-2.2313,-2.2313,-2.2313,-2.2313,-2.2313,-2.1955,-2.1563,-2.1224,-2.0446,-1.9621,-1.8865,-1.8831,-1.8831,-1.8831,-1.8493,-1.8166,-1.7817,-1.7783,-1.7783,-1.7783,-1.7783,-1.7783,-1.7817,-1.8166,-1.8121,-1.412,-1.5117,-1.5875,-1.5888,-1.5967,-1.6041,-1.5894,0.0,0.0,0.0,0.0,0.0,0.0,0.0,0.0,0.0,0.0,0.0,0.0,0.0,0.0,0.0,-3.7808,0.0,-3.8689,-3.8689,-3.8689,-3.8689,-3.8689,-3.8689,-3.8689,-3.8689,-3.8689,-3.8689,-3.8689,-3.8689,-3.8689,-3.8689,-3.8689,-3.8689,-3.8689,-3.8652,-3.8505,-3.8505,-3.8469,-3.8248,-3.689,-3.6229,-3.5973,-3.4578,-3.3917,-3.3793,-3.3712,-3.3629,-3.353,-3.343,-3.3342,-3.3238,-3.3238,-3.3238,-3.3238,-3.3238,-3.2619,-3.18,-3.1485,-3.0229,-2.8703,-2.7656,-2.7218,-2.7005,-2.6758,-2.6842,-2.7023,-2.721,-2.7307,-2.7341,-2.7272,-2.7165,-2.6578,-2.4995,-2.4575,-2.4068,-2.2699,-2.2381,-2.2313,-2.2313,-2.2313,-2.2313,-2.2313,-2.2313,-2.2313,-2.2313,-2.2313,-2.2057,-2.1427,-2.136,-2.1075,-2.0373,-2.0137,-2.0002,-2.0002,-1.9406,-1.8775,-1.8155,-1.8155,-1.8155,-1.8155,-1.8155,-1.8155,-1.8155,-1.8775,-1.8741,-1.3994,-1.5363,-1.6572,-1.6684,-1.7231,-1.7539,-1.6872,0.0,0.0,0.0,0.0,0.0,0.0,0.0,0.0,0.0,0.0,0.0,0.0,0.0,0.0,-3.7125,0.0,-3.8689,-3.8689,-3.8689,-3.8689,-3.8689,-3.8689,-3.8689,-3.8689,-3.8689,-3.8689,-3.8689,-3.8689,-3.8689,-3.8689,-3.8689,-3.8689,-3.8689,-3.8689,-3.8322,-3.7676,-3.7676,-3.7309,-3.6633,-3.6413,-3.5899,-3.5188,-3.4931,-3.4417,-3.3793,-3.3657,-3.3488,-3.3262,-3.306,-3.2858,-3.2634,-3.2634,-3.2634,-3.2634,-3.2634,-3.2448,-3.2052,-3.1097,-3.0543,-2.9849,-2.8185,-2.7335,-2.6909,-2.6725,-2.6809,-2.6959,-2.7085,-2.7104,-2.7071,-2.7117,-2.7023,-2.6637,-2.5625,-2.4948,-2.4237,-2.3376,-2.2719,-2.2313,-2.2313,-2.2313,-2.2313,-2.2313,-2.2313,-2.2313,-2.2313,-2.2313,-2.2245,-2.2144,-2.2124,-2.2076,-2.1941,-2.0711,-2.0002,-2.0002,-1.99,-1.9778,-1.9664,-1.9664,-1.9664,-1.9664,-1.9664,-1.9664,-1.9664,-1.9778,-1.9765,-1.3685,-1.4693,-1.5805,-1.7613,-1.8762,-1.93,-1.8926,0.0,0.0,0.0,0.0,0.0,0.0,0.0,0.0,0.0,0.0,-3.2118,-3.3587,-3.5275,-3.6633,0.0,0.0,-3.8689,-3.8689,-3.8689,-3.8689,-3.8689,-3.8689,-3.8689,-3.8689,-3.8689,-3.8689,-3.8689,-3.8689,-3.8505,-3.8065,-3.8028,-3.8285,-3.8689,-3.8248,-3.786,-3.7492,-3.7052,-3.6633,-3.6266,-3.5789,-3.5371,-3.4968,-3.4527,-3.4137,-3.3793,-3.3601,-3.3321,-3.2999,-3.2584,-3.2351,-3.2231,-3.2231,-3.2231,-3.2231,-3.2231,-3.2144,-3.1897,-3.1371,-3.0793,-3.0165,-2.9299,-2.8231,-2.7284,-2.6809,-2.6759,-2.6809,-2.6858,-2.6841,-2.6859,-2.6874,-2.6859,-2.6572,-2.5744,-2.5338,-2.4864,-2.4135,-2.3729,-2.3342,-2.297,-2.2902,-2.2767,-2.2347,-2.2313,-2.2313,-2.2313,-2.2313,-2.2313,-2.2313,-2.2313,-2.2313,-2.2313,-2.1637,-2.1062,-2.067,-2.0636,-2.042,-2.0002,-2.0002,-2.0002,-2.0002,-2.0002,-2.0002,-2.0002,-2.0467,-2.042,-1.3405,-1.4139,-1.5193,-1.8306,0.0,-2.0548,-2.0768,0.0,0.0,0.0,0.0,0.0,0.0,0.0,0.0,0.0,-3.2485,-3.3954,-3.4321,-3.617,-3.7566,-3.7749,-3.8322,-3.8689,-3.8689,-3.8689,-3.8689,-3.8689,-3.8689,-3.8689,-3.8689,-3.8689,-3.8689,-3.8689,-3.8505,-3.8102,-3.7492,-3.7309,-3.7514,-3.8138,-3.7514,-3.7125,-3.689,-3.6266,-3.5899,-3.5679,-3.5004,-3.4711,-3.4674,-3.4064,-3.3807,-3.378,-3.3581,-3.3142,-3.2614,-3.2021,-3.1822,-3.1822,-3.1822,-3.1822,-3.1822,-3.1822,-3.1747,-3.1651,-3.1523,-3.098,-3.0372,-3.0161,-2.9244,-2.8128,-2.7199,-2.6826,-2.6691,-2.6691,-2.6691,-2.6691,-2.6691,-2.6691,-2.6522,-2.5981,-2.571,-2.5439,-2.4831,-2.4609,-2.4305,-2.3748,-2.3661,-2.3444,-2.2902,-2.2835,-2.2835,-2.2835,-2.2651,-2.2496,-2.2313,-2.2313,-2.2313,-2.2313,-2.2313,-2.2057,-2.1495,-2.1461,-2.1177,-2.0542,-2.0555,-2.0555,-2.0555,-2.0555,-2.0555,-2.0542,-2.1177,-2.1143,-1.3251,-1.4452,-1.5843,-1.8374,0.0,0.0,-2.1519,-2.2244,0.0,-2.2712,0.0,0.0,0.0,0.0,0.0,0.0,-3.322,-3.4357,-3.5899,0.0,-3.7786,-3.8505,-3.8652,-3.8689,-3.8689,-3.8689,-3.8689,-3.8689,-3.8689,-3.8689,-3.8689,-3.8689,-3.8689,-3.8689,-3.797,-3.7566,-3.7492,-3.6758,-3.6413,-3.645,-3.6413,-3.5973,-3.5188,-3.5114,-3.4674,-3.399,-3.3917,-3.388,-3.388,-3.3807,-3.3807,-3.378,-3.3524,-3.2846,-3.1986,-3.1466,-3.1269,-3.1269,-3.1269,-3.1269,-3.1269,-3.1269,-3.1249,-3.1249,-3.123,-3.1176,-3.0973,-3.0311,-3.004,-2.9582,-2.8094,-2.7215,-2.6691,-2.6691,-2.6691,-2.6691,-2.6691,-2.6691,-2.6657,-2.6623,-2.6082,-2.5559,-2.5525,-2.4932,-2.4474,-2.444,-2.4406,-2.4406,-2.4338,-2.4338,-2.4338,-2.4338,-2.3729,-2.3038,-2.2347,-2.2313,-2.2313,-2.2313,-2.2313,-2.2279,-2.2212,-2.2212,-2.2178,-2.2144,-2.2144,-2.2144,-2.2144,-2.2144,-2.2144,-2.2144,-2.2178,-2.2178,-1.3859,-1.4757,-1.59,-1.8887,0.0,0.0,0.0,0.0,-2.5391,-2.5878,-2.6612,0.0,0.0,0.0,0.0,0.0,-3.4137,-3.5569,-3.6193,-3.7404,-3.8358,-3.8652,-3.8689,-3.8689,-3.8689,-3.8689,-3.8689,-3.8689,-3.8689,-3.8689,-3.8689,-3.8689,-3.8469,-3.7955,-3.7676,-3.7015,-3.5973,-3.5628,-3.5224,-3.4761,-3.5238,-3.5334,-3.499,-3.4449,-3.4298,-3.4388,-3.3834,-3.3864,-3.4208,-3.3749,-3.3567,-3.3488,-3.2925,-3.2369,-3.189,-3.1896,-3.1582,-3.1258,-3.1718,-3.1562,-3.119,-3.119,-3.119,-3.119,-3.119,-3.119,-3.1123,-3.0852,-3.0446,-2.9751,-2.8196,-2.7587,-2.7266,-2.6793,-2.6691,-2.6691,-2.6691,-2.6691,-2.6691,-2.6691,-2.6454,-2.6285,-2.6285,-2.6048,-2.5726,-2.5236,-2.5169,-2.5,-2.4541,-2.4508,-2.4508,-2.4508,-2.3831,-2.3274,-2.3004,-2.2564,-2.2313,-2.2313,-2.2313,-2.2313,-2.2313,-2.2313,-2.2313,-2.2313,-2.2313,-2.2313,-2.2313,-2.2313,-2.2313,-2.2313,-2.2313,-2.2313,-1.4588,-1.5202,-1.6042,0.0,0.0,0.0,0.0,0.0,0.0,0.0,-2.9035,0.0,0.0,0.0,0.0,0.0,-3.5018,-3.6376,-3.6648,-3.7845,-3.8689,-3.8689,-3.8689,-3.8689,-3.8689,-3.8689,-3.8689,-3.8689,-3.8689,-3.8689,-3.8689,-3.8469,-3.8065,-3.7529,-3.7015,-3.6156,-3.5004,-3.4747,-3.4344,-3.3807,-3.433,-3.4623,-3.4601,-3.421,-3.428,-3.4606,-3.4211,-3.4089,-3.4179,-3.3676,-3.3301,-3.3008,-3.2368,-3.2106,-3.212,-3.2264,-3.1989,-3.1616,-3.2124,-3.1819,-3.119,-3.119,-3.119,-3.119,-3.119,-3.119,-3.119,-3.119,-3.0852,-3.0142,-2.8872,-2.8162,-2.7689,-2.7165,-2.686,-2.6691,-2.6691,-2.6691,-2.6691,-2.6691,-2.6691,-2.6691,-2.6691,-2.6691,-2.6522,-2.6015,-2.5947,-2.5744,-2.5252,-2.5185,-2.5117,-2.488,-2.4391,-2.3985,-2.3763,-2.3274,-2.3004,-2.3004,-2.2767,-2.255,-2.2313,-2.2313,-2.2313,-2.2313,-2.2313,-2.2313,-2.2313,-2.2313,-2.2313,-2.2313,-2.2313,-2.2313,-1.5284,-1.5863,-1.6411,0.0,0.0,0.0,0.0,0.0,0.0,0.0,0.0,-3.1641,-3.2436,0.0,0.0,-3.4747,-3.5738,-3.6597,-3.7382,-3.8175,-3.8689,-3.8689,-3.8689,-3.8689,-3.8689,-3.8689,-3.8689,-3.8689,-3.8689,-3.8689,-3.8689,-3.7933,-3.7492,-3.7492,-3.5848,-3.5004,-3.5004,-3.4197,-3.3807,-3.3807,-3.3739,-3.3739,-3.383,-3.4483,-3.4628,-3.4351,-3.4927,-3.4566,-3.3616,-3.3616,-3.3071,-3.2248,-3.195,-3.2179,-3.2657,-3.2394,-3.2293,-3.2293,-3.2293,-3.1819,-3.119,-3.119,-3.119,-3.119,-3.119,-3.119,-3.119,-3.119,-3.119,-3.1021,-3.0311,-2.8973,-2.7824,-2.779,-2.7232,-2.6691,-2.6691,-2.6691,-2.6691,-2.6691,-2.6691,-2.6691,-2.6691,-2.6691,-2.6691,-2.6691,-2.6691,-2.6691,-2.6691,-2.6691,-2.642,-2.571,-2.5592,-2.5304,-2.4575,-2.4508,-2.4508,-2.4508,-2.3816,-2.3071,-2.2347,-2.2313,-2.2313,-2.2313,-2.2313,-2.2313,-2.2313,-2.2313,-2.2313,-2.2313,-2.2313,-2.2313,-1.542,-1.6551,0.0,0.0,0.0,0.0,0.0,0.0,0.0,0.0,0.0,-3.2999,-3.2656,0.0,0.0,-3.416,-3.5826,-3.7235,-3.7456,-3.8175,-3.8689,-3.8689,-3.8689,-3.8689,-3.8689,-3.8689,-3.8689,-3.8689,-3.8689,-3.8469,-3.7896,-3.7639,-3.6964,-3.5775,-3.5261,-3.4747,-3.4174,-3.3917,-3.3807,-3.3807,-3.4256,-3.4491,-3.4505,-3.4428,-3.483,-3.5579,-3.4482,-3.404,-3.4049,-3.3525,-3.2788,-3.1964,-3.2298,-3.2162,-3.1832,-3.274,-3.2408,-3.1664,-3.2713,-3.2239,-3.119,-3.119,-3.119,-3.119,-3.119,-3.119,-3.119,-3.119,-3.119,-3.1157,-3.092,-3.0142,-2.9142,-2.806,-2.7621,-2.7317,-2.6793,-2.6691,-2.6691,-2.6691,-2.6691,-2.6691,-2.6691,-2.6691,-2.6691,-2.6691,-2.6691,-2.6691,-2.6691,-2.6691,-2.6623,-2.6387,-2.5913,-2.5507,-2.5304,-2.4812,-2.4508,-2.4508,-2.4305,-2.3831,-2.3105,-2.2598,-2.2313,-2.2313,-2.2313,-2.2313,-2.2313,-2.2313,-2.2313,-2.2313,-2.2313,-2.2313,-1.6153,0.0,0.0,0.0,0.0,0.0,0.0,0.0,0.0,0.0,0.0,-3.366,-3.3183,-3.4124,0.0,-3.4835,-3.6317,-3.7603,-3.7933,-3.8395,-3.8689,-3.8689,-3.8689,-3.8689,-3.8689,-3.8395,-3.8212,-3.8212,-3.7918,-3.7514,-3.7052,-3.667,-3.6046,-3.5041,-3.4674,-3.4284,-3.3807,-3.378,-3.3753,-3.3712,-3.4011,-3.4377,-3.4882,-3.4944,-3.5137,-3.5287,-3.3707,-3.3356,-3.3913,-3.3137,-3.27,-3.2427,-3.2505,-3.2372,-3.2184,-3.2767,-3.2408,-3.1752,-3.2645,-3.2171,-3.119,-3.119,-3.119,-3.119,-3.119,-3.119,-3.119,-3.119,-3.119,-3.119,-3.119,-3.0852,-3.0243,-2.9007,-2.8466,-2.8146,-2.7706,-2.7368,-2.7131,-2.7131,-2.6894,-2.6691,-2.6691,-2.6691,-2.6691,-2.6691,-2.6691,-2.6691,-2.6691,-2.6691,-2.6691,-2.6691,-2.6285,-2.6048,-2.6048,-2.5609,-2.5388,-2.5388,-2.5117,-2.4729,-2.4289,-2.3579,-2.3173,-2.3173,-2.2902,-2.2733,-2.2733,-2.2448,-2.2313,-2.2313,-2.2313,-2.2313,-1.7107,0.0,0.0,0.0,0.0,0.0,0.0,0.0,0.0,0.0,0.0,-3.3807,-3.3807,-3.4527,-3.5371,-3.6156,-3.7052,-3.786,-3.8505,-3.8579,-3.8579,-3.8505,-3.8469,-3.8469,-3.8469,-3.7823,-3.7382,-3.7382,-3.6707,-3.6266,-3.6193,-3.5445,-3.4968,-3.4894,-3.4174,-3.3807,-3.3807,-3.3726,-3.3643,-3.3559,-3.3295,-3.3772,-3.4854,-3.558,-3.5198,-3.3889,-3.2767,-3.2666,-3.3152,-3.2611,-3.2713,-3.3152,-3.2632,-3.2713,-3.3119,-3.253,-3.2259,-3.2226,-3.2293,-3.1819,-3.119,-3.119,-3.119,-3.119,-3.119,-3.119,-3.119,-3.119,-3.119,-3.119,-3.119,-3.119,-3.1021,-3.0378,-2.9634,-2.9077,-2.901,-2.8416,-2.7891,-2.7891,-2.73,-2.6793,-2.6793,-2.6725,-2.6691,-2.6691,-2.6691,-2.6691,-2.6691,-2.6691,-2.6691,-2.6691,-2.6691,-2.6691,-2.6691,-2.6691,-2.6691,-2.6691,-2.6082,-2.571,-2.571,-2.4948,-2.4508,-2.4508,-2.3831,-2.3492,-2.3492,-2.2835,-2.2482,-2.2482,-2.2482,-2.2448,0.0,-1.8888,0.0,0.0,0.0,0.0,0.0,0.0,0.0,0.0,-3.3807,-3.3807,-3.3807,-3.5018,-3.6083,-3.6266,-3.7514,-3.8285,-3.7823,-3.7749,-3.7529,-3.689,-3.6817,-3.6817,-3.6817,-3.667,-3.656,-3.656,-3.6376,-3.6009,-3.5334,-3.5114,-3.4711,-3.41,-3.388,-3.3807,-3.3807,-3.3671,-3.3516,-3.3291,-3.3602,-3.3634,-3.345,-3.3716,-3.3474,-3.2812,-3.2442,-3.2056,-3.1732,-3.2747,-3.2577,-3.1765,-3.278,-3.2544,-3.1732,-3.2158,-3.1921,-3.1515,-3.209,-3.1819,-3.119,-3.119,-3.119,-3.119,-3.119,-3.119,-3.119,-3.119,-3.119,-3.119,-3.119,-3.119,-3.1157,-3.0987,-3.0412,-2.9702,-2.9145,-2.8874,-2.8739,-2.8739,-2.8112,-2.7553,-2.7553,-2.7097,-2.6691,-2.6691,-2.6691,-2.6691,-2.6691,-2.6691,-2.6691,-2.6691,-2.6691,-2.6691,-2.6691,-2.6691,-2.6691,-2.6691,-2.6556,-2.6454,-2.6454,-2.5218,-2.4508,-2.4508,-2.4338,-2.4271,-2.4271,-2.4101,-2.4034,-2.4034,-2.4034,-2.3729,0.0,0.0,0.0,0.0,0.0,0.0,0.0,0.0,0.0,0.0,-3.3807,-3.3807,-3.3807,-3.4835,-3.5826,-3.6229,-3.7,-3.7551,-3.7492,-3.7162,-3.6795,-3.634,-3.6303,-3.6303,-3.6303,-3.5936,-3.5665,-3.5665,-3.5312,-3.4908,-3.4454,-3.439,-3.4165,-3.3698,-3.3671,-3.3629,-3.3601,-3.3415,-3.3187,-3.2972,-3.2977,-3.272,-3.2219,-3.2597,-3.2633,-3.2374,-3.1941,-3.1752,-3.1785,-3.2544,-3.2611,-3.2307,-3.2713,-3.2408,-3.1752,-3.1752,-3.1549,-3.1258,-3.165,-3.1529,-3.119,-3.119,-3.119,-3.119,-3.119,-3.119,-3.119,-3.119,-3.119,-3.119,-3.119,-3.119,-3.119,-3.119,-3.092,-3.0514,-3.0142,-2.9788,-2.9533,-2.9533,-2.8568,-2.779,-2.779,-2.7199,-2.6691,-2.6691,-2.6691,-2.6691,-2.6691,-2.6691,-2.6691,-2.6691,-2.6691,-2.6691,-2.6691,-2.6691,-2.6691,-2.6691,-2.6691,-2.6691,-2.6691,-2.5963,-2.5557,-2.5557,-2.5218,-2.5033,-2.5049,-2.4677,-2.4508,-2.4508,-2.4508,-2.4305,0.0,0.0,0.0,0.0,0.0,0.0,0.0,0.0,0.0,0.0,-3.3766,-3.3807,-3.3807,-3.4454,-3.5224,-3.5973,-3.6193,-3.6486,-3.7015,-3.6486,-3.6009,-3.5862,-3.5862,-3.5862,-3.5862,-3.5238,-3.4784,-3.4784,-3.4174,-3.3807,-3.3807,-3.3726,-3.3629,-3.353,-3.3444,-3.3342,-3.3274,-3.3008,-3.2766,-3.2518,-3.2074,-3.1657,-3.1293,-3.1859,-3.2124,-3.209,-3.1481,-3.1549,-3.2124,-3.2259,-3.2577,-3.2983,-3.2632,-3.2327,-3.2056,-3.1582,-3.1292,-3.119,-3.119,-3.119,-3.119,-3.119,-3.119,-3.119,-3.119,-3.119,-3.119,-3.119,-3.119,-3.119,-3.119,-3.119,-3.119,-3.119,-3.119,-3.119,-3.119,-3.0717,-3.0311,-3.0311,-2.9041,-2.7959,-2.7824,-2.7199,-2.6691,-2.6691,-2.6691,-2.6691,-2.6691,-2.6691,-2.6691,-2.6691,-2.6691,-2.6691,-2.6691,-2.6691,-2.6691,-2.6691,-2.6691,-2.6691,-2.6691,-2.6691,-2.6691,-2.6691,-2.6116,-2.5778,-2.5778,-2.5185,-2.488,-2.488,-2.488,-2.4812,0.0,0.0,0.0,0.0,0.0,0.0,0.0,0.0,0.0,0.0,-3.3629,-3.3807,-3.3807,-3.4454,-3.5041,-3.5151,-3.5826,-3.6083,-3.5408,-3.5261,-3.4894,-3.4211,-3.4137,-3.4137,-3.4137,-3.4027,-3.3954,-3.3954,-3.3844,-3.3807,-3.3807,-3.3671,-3.3516,-3.3276,-3.3075,-3.2874,-3.2634,-3.2468,-3.2231,-3.1897,-3.1488,-3.1288,-3.121,-3.1312,-3.1326,-3.1326,-3.1224,-3.1258,-3.1393,-3.2056,-3.1989,-3.1596,-3.278,-3.2476,-3.1393,-3.1955,-3.1752,-3.119,-3.119,-3.119,-3.119,-3.119,-3.119,-3.119,-3.119,-3.119,-3.119,-3.119,-3.119,-3.119,-3.119,-3.119,-3.119,-3.119,-3.119,-3.119,-3.119,-3.1123,-3.1055,-3.1055,-2.9837,-2.8619,-2.7925,-2.7199,-2.6691,-2.6691,-2.6691,-2.6691,-2.6691,-2.6691,-2.6691,-2.6691,-2.6691,-2.6691,-2.6691,-2.6691,-2.6691,-2.6691,-2.6691,-2.6691,-2.6691,-2.6691,-2.6691,-2.6691,-2.659,-2.6556,-2.6556,-2.6454,-2.6387,-2.6387,-2.6387,-2.6048,-1.7422,-2.0662,0.0,0.0,0.0,0.0,0.0,0.0,0.0,-3.2143,-3.2711,-3.3166,-3.3516,-3.385,-3.4251,-3.4688,-3.4739,-3.4703,-3.4776,-3.444,-3.4031,-3.3721,-3.3726,-3.3766,-3.3807,-3.3807,-3.3807,-3.3807,-3.3807,-3.3807,-3.3807,-3.3629,-3.3401,-3.3045,-3.2827,-3.2551,-3.2231,-3.2091,-3.1841,-3.1511,-3.1293,-3.119,-3.119,-3.119,-3.119,-3.119,-3.119,-3.119,-3.1224,-3.1549,-3.1752,-3.1887,-3.251,-3.2645,-3.2408,-3.2327,-3.209,-3.1752,-3.1326,-3.119,-3.119,-3.119,-3.119,-3.119,-3.119,-3.119,-3.119,-3.119,-3.119,-3.119,-3.119,-3.119,-3.119,-3.119,-3.119,-3.119,-3.119,-3.119,-3.1089,-3.0649,-3.0074,-2.9364,-2.8586,-2.818,-2.7994,-2.7994,-2.7994,-2.7994,-2.7994,-2.7994,-2.7994,-2.7994,-2.7994,-2.7807,-2.7368,-2.7334,-2.7131,-2.6725,-2.6691,-2.6691,-2.6691,-2.6691,-2.6691,-2.6691,-2.6691,-2.6691,-2.6691,-2.6691,-2.6691,-2.6691,-2.6691,-2.6522,-1.7749,-2.0116,-2.1989,0.0,0.0,0.0,0.0,0.0,0.0,0.0,-3.1713,-3.2306,-3.2941,-3.3117,-3.3358,-3.3986,-3.3538,-3.3394,-3.3986,-3.3629,-3.3371,-3.3488,-3.3587,-3.3684,-3.3793,-3.3807,-3.3807,-3.3807,-3.3807,-3.3807,-3.3807,-3.3573,-3.3283,-3.2807,-3.2587,-3.2231,-3.1804,-3.1691,-3.1504,-3.1274,-3.123,-3.119,-3.119,-3.119,-3.119,-3.119,-3.119,-3.119,-3.119,-3.119,-3.1529,-3.2056,-3.2429,-3.278,-3.3085,-3.2936,-3.2733,-3.2496,-3.1935,-3.163,-3.1481,-3.1481,-3.1326,-3.119,-3.119,-3.119,-3.119,-3.119,-3.119,-3.119,-3.119,-3.119,-3.119,-3.119,-3.119,-3.119,-3.119,-3.119,-3.1021,-3.048,-3.0243,-2.9939,-2.9364,-2.9111,-2.901,-2.901,-2.901,-2.901,-2.901,-2.901,-2.901,-2.901,-2.901,-2.8773,-2.8162,-2.7925,-2.7553,-2.6996,-2.6793,-2.6691,-2.6691,-2.6691,-2.6691,-2.6691,-2.6691,-2.6691,-2.6691,-2.6691,-2.6674,-2.6657,-2.6641,-2.6607,-1.5368,-1.7422,0.0,0.0,0.0,0.0,0.0,0.0,0.0,-3.0436,-3.0958,-3.1202,-3.1952,-3.2334,-3.2551,-3.2603,-3.2568,-3.2551,-3.2603,-3.275,-3.2921,-3.3166,-3.3401,-3.3609,-3.378,-3.3807,-3.3807,-3.3807,-3.3807,-3.3807,-3.3807,-3.3567,-3.3132,-3.2551,-3.2196,-3.1786,-3.1249,-3.123,-3.121,-3.121,-3.121,-3.119,-3.119,-3.119,-3.119,-3.119,-3.119,-3.119,-3.119,-3.119,-3.1224,-3.1393,-3.2814,-3.2949,-3.253,-3.3863,-3.3931,-3.3355,-3.3322,-3.2814,-3.2226,-3.2226,-3.1785,-3.119,-3.119,-3.119,-3.119,-3.119,-3.119,-3.119,-3.119,-3.119,-3.119,-3.119,-3.119,-3.119,-3.119,-3.119,-3.119,-3.1157,-3.0581,-3.0108,-3.0074,-2.9465,-2.901,-2.901,-2.901,-2.901,-2.901,-2.901,-2.901,-2.901,-2.901,-2.8976,-2.8942,-2.8247,-2.779,-2.7756,-2.7097,-2.6691,-2.6691,-2.6691,-2.6691,-2.6691,-2.6691,-2.6691,-2.6691,-2.6691,-2.6674,-2.6606,-2.6453,-2.6383,-1.4334,-1.5832,0.0,0.0,0.0,0.0,0.0,0.0,-2.7299,-2.8647,-2.9707,-3.0596,-3.1348,-3.1877,-3.2179,-3.2179,-3.2179,-3.2179,-3.2179,-3.2334,-3.2587,-3.2862,-3.3034,-3.3268,-3.3538,-3.3553,-3.3553,-3.3553,-3.3553,-3.3553,-3.3553,-3.3274,-3.2866,-3.2384,-3.2038,-3.1654,-3.121,-3.119,-3.119,-3.119,-3.119,-3.119,-3.119,-3.119,-3.119,-3.119,-3.119,-3.119,-3.119,-3.119,-3.1481,-3.1955,-3.2496,-3.3106,-3.3715,-3.3761,-3.3931,-3.4032,-3.3558,-3.322,-3.2916,-3.2462,-3.2124,-3.1819,-3.1326,-3.119,-3.119,-3.119,-3.119,-3.119,-3.119,-3.119,-3.119,-3.119,-3.119,-3.119,-3.119,-3.119,-3.119,-3.119,-3.0987,-3.0818,-3.0818,-3.0581,-3.0431,-3.0431,-3.0431,-3.0431,-3.0431,-3.0431,-3.0431,-3.0431,-3.0431,-3.0209,-2.9736,-2.9447,-2.9075,-2.8586,-2.8315,-2.7943,-2.7418,-2.7418,-2.7199,-2.6691,-2.6691,-2.6691,-2.6691,-2.6691,-2.6607,-2.6486,-2.6261,-2.6066,-1.3667,0.0,0.0,0.0,0.0,0.0,0.0,0.0,-2.5642,-2.7131,-2.8247,-2.933,-3.0615,-3.1127,-3.142,-3.1696,-3.1731,-3.1731,-3.1731,-3.1895,-3.2109,-3.2368,-3.2568,-3.2814,-3.3086,-3.3117,-3.3117,-3.3117,-3.3117,-3.3117,-3.3117,-3.283,-3.2487,-3.2091,-3.1765,-3.1481,-3.119,-3.119,-3.119,-3.119,-3.119,-3.119,-3.119,-3.119,-3.119,-3.119,-3.119,-3.119,-3.119,-3.119,-3.1495,-3.1955,-3.2192,-3.3072,-3.41,-3.3863,-3.4235,-3.481,-3.4303,-3.3998,-3.3694,-3.3207,-3.2699,-3.2226,-3.1718,-3.1393,-3.1258,-3.1515,-3.1582,-3.163,-3.1867,-3.1732,-3.1495,-3.1258,-3.119,-3.119,-3.119,-3.119,-3.119,-3.119,-3.119,-3.119,-3.119,-3.119,-3.119,-3.119,-3.119,-3.119,-3.119,-3.119,-3.119,-3.119,-3.119,-3.0987,-3.0514,-3.0243,-2.9905,-2.9416,-2.9145,-2.8773,-2.8213,-2.7925,-2.7553,-2.7097,-2.6826,-2.6691,-2.6691,-2.6691,-2.659,-2.6349,-2.6066,-2.5719,0.0,0.0,0.0,0.0,0.0,0.0,0.0,0.0,-2.3105,-2.6015,-2.6657,-2.7402,-2.9668,-3.0108,-3.0345,-3.1055,-3.119,-3.119,-3.119,-3.1366,-3.156,-3.1788,-3.1951,-3.2179,-3.245,-3.2502,-3.2502,-3.2502,-3.2502,-3.2502,-3.2502,-3.2351,-3.2074,-3.1617,-3.1346,-3.119,-3.119,-3.119,-3.119,-3.119,-3.119,-3.119,-3.119,-3.119,-3.119,-3.119,-3.119,-3.119,-3.119,-3.119,-3.119,-3.1258,-3.1989,-3.2713,-3.3491,-3.4201,-3.4945,-3.56,-3.56,-3.5148,-3.4539,-3.4506,-3.3546,-3.2361,-3.2327,-3.1853,-3.1393,-3.2124,-3.2327,-3.2496,-3.322,-3.2848,-3.2124,-3.1393,-3.1224,-3.119,-3.119,-3.119,-3.119,-3.119,-3.119,-3.119,-3.119,-3.119,-3.119,-3.119,-3.119,-3.119,-3.119,-3.119,-3.119,-3.119,-3.119,-3.119,-3.119,-3.0548,-3.0123,-3.0123,-2.9465,-2.9044,-2.9044,-2.8263,-2.7858,-2.7858,-2.7131,-2.6776,-2.6725,-2.6691,-2.6556,-2.6279,-2.5866,-2.5285,-1.3041,0.0,0.0,0.0,0.0,0.0,0.0,0.0,0.0,-2.4609,-2.5963,-2.7232,-2.8976,-2.9736,-3.0176,-3.0378,-3.0852,-3.119,-3.119,-3.1274,-3.1428,-3.162,-3.1802,-3.1931,-3.2109,-3.2144,-3.2144,0.0,-3.2144,-3.2144,-3.2144,-3.1931,-3.1657,-3.1408,-3.1269,-3.119,-3.119,-3.119,-3.119,-3.119,-3.119,-3.119,-3.119,-3.119,-3.119,-3.119,-3.119,-3.119,-3.119,-3.119,-3.119,-3.1224,-3.1427,-3.2273,-3.3423,-3.3626,-3.4484,-3.56,-3.56,-3.5464,-3.5216,-3.4675,-3.4201,-3.3795,-3.3254,-3.2949,-3.2848,-3.3051,-3.3085,-3.3152,-3.3355,-3.2848,-3.2259,-3.2056,-3.1582,-3.119,-3.119,-3.119,-3.119,-3.119,-3.119,-3.119,-3.119,-3.119,-3.119,-3.119,-3.119,-3.119,-3.119,-3.119,-3.119,-3.119,-3.119,-3.119,-3.119,-3.1021,-3.0886,-3.0886,-3.0683,-3.0345,-2.9837,-2.9582,-2.9228,-2.8687,-2.8468,-2.806,-2.7416,-2.6945,-2.6539,-2.6206,-2.5323,-2.4553,-1.4082,0.0,0.0,0.0,0.0,0.0,-1.7151,-1.8855,0.0,0.0,-2.4255,-2.5406,-2.7232,-2.7943,-2.8398,-2.9041,-2.9499,-3.0108,-3.1055,-3.1249,-3.1293,-3.1408,-3.1519,-3.156,-3.1657,-3.1657,-3.1657,-3.1657,-3.1657,-3.1657,-3.1657,-3.1523,-3.137,-3.1254,-3.123,-3.119,-3.119,-3.119,-3.119,-3.119,-3.119,-3.119,-3.119,-3.119,-3.119,-3.119,-3.119,-3.119,-3.119,-3.119,-3.119,-3.119,-3.119,-3.2104,-3.3423,-3.3423,-3.4315,-3.56,-3.56,-3.56,-3.5532,-3.5115,-3.4742,-3.4404,-3.3998,-3.366,-3.3457,-3.3761,-3.41,-3.4247,-3.3931,-3.3525,-3.3139,-3.2835,-3.2408,-3.2104,-3.2104,-3.2104,-3.1935,-3.1326,-3.119,-3.119,-3.119,-3.119,-3.119,-3.119,-3.119,-3.119,-3.119,-3.119,-3.119,-3.119,-3.119,-3.119,-3.119,-3.119,-3.119,-3.119,-3.119,-3.0987,-3.0581,-3.0277,-2.9905,-2.9465,-2.9179,-2.8477,-2.7451,-2.721,-2.6596,-2.5645,-2.4855,-2.4162,-1.5933,-1.59,0.0,0.0,-1.5798,0.0,-1.6597,-1.7738,-1.9384,0.0,-2.2057,-2.2801,-2.4864,-2.5288,-2.5812,-2.7215,-2.7486,-2.8331,-3.0649,-3.0954,-3.0954,-3.0954,-3.0954,-3.0954,-3.0954,-3.0954,-3.0954,-3.0954,-3.0954,-3.0954,-3.0954,-3.1021,-3.1089,-3.1089,-3.1157,-3.119,-3.119,-3.119,-3.119,-3.119,-3.119,-3.119,-3.119,-3.119,-3.119,-3.119,-3.119,-3.119,-3.119,-3.119,-3.119,-3.119,-3.119,-3.2104,-3.3423,-3.3423,-3.4315,-3.56,-3.56,-3.56,-3.56,-3.56,-3.5182,-3.4607,-3.4607,-3.4167,-3.3795,-3.4438,-3.5115,-3.543,-3.4776,-3.4539,-3.4336,-3.3694,-3.3457,-3.3423,-3.3423,-3.3423,-3.3017,-3.1698,-3.1427,-3.1427,-3.1326,-3.1326,-3.1292,-3.119,-3.119,-3.119,-3.119,-3.119,-3.119,-3.119,-3.119,-3.119,-3.119,-3.119,-3.119,-3.119,-3.119,-3.119,-3.119,-3.0581,-3.0224,-3.0224,-2.9443,-2.8442,-2.7273,-2.7422,-2.6555,-2.4843,-2.4451,-2.4036,-1.8099,-1.7828,-1.7343,-1.7174,0.0,0.0,-1.5944,-1.6948,-1.8302,0.0,-2.0534,-2.1732,-2.2753,-2.3444,-2.412,-2.5015,-2.5642,-2.6826,-2.9111,-2.9416,-2.9416,-2.9416,-2.9416,-2.9416,-2.9416,-2.9416,-2.9416,-2.9416,-2.9416,-2.9416,-2.9416,-2.9973,-3.0311,-3.0311,-3.0886,-3.119,-3.119,-3.119,-3.119,-3.119,-3.119,-3.119,-3.119,-3.119,-3.119,-3.119,-3.119,-3.119,-3.119,-3.119,-3.119,-3.119,-3.119,-3.2104,-3.3423,-3.3423,-3.4315,-3.56,-3.56,-3.56,-3.56,-3.56,-3.5498,-3.5363,-3.5363,-3.5261,-3.5194,-3.5329,-3.5498,-3.5566,-3.543,-3.4945,-3.4438,-3.4303,-3.3829,-3.3423,-3.3423,-3.3423,-3.3322,-3.3051,-3.2983,-3.278,-3.2192,-3.209,-3.1887,-3.1292,-3.119,-3.119,-3.119,-3.119,-3.119,-3.119,-3.119,-3.119,-3.119,-3.119,-3.119,-3.119,-3.119,-3.119,-3.119,-3.1055,-3.0948,-3.0816,-2.9663,-2.885,-2.8283,-2.7243,-2.5938,-2.4491,-2.4235,-2.3952,-2.05,-2.0061,-1.9316,-1.8538,0.0,0.0,0.0,-1.7016,-1.8031,-1.8741,-1.9519,-2.0264,-2.1028,-2.1468,-2.1955,-2.2714,-2.3154,-2.4052,-2.5929,-2.7469,-2.8552,-2.8942,-2.901,-2.901,-2.901,-2.901,-2.901,-2.901,-2.901,-2.901,-2.901,-2.9348,-2.9736,-3.0108,-3.048,-3.0818,-3.119,-3.119,-3.119,-3.119,-3.119,-3.119,-3.119,-3.119,-3.119,-3.119,-3.119,-3.119,-3.119,-3.119,-3.119,-3.119,-3.119,-3.2104,-3.3423,-3.3423,-3.4315,-3.56,-3.56,-3.56,-3.56,-3.56,-3.56,-3.56,-3.56,-3.56,-3.56,-3.56,-3.56,-3.56,-3.56,-3.5329,-3.5047,-3.5047,-3.4754,-3.4484,-3.4484,-3.4484,-3.4484,-3.4484,-3.4484,-3.4167,-3.3017,-3.253,-3.2158,-3.1819,-3.1427,-3.119,-3.119,-3.119,-3.119,-3.119,-3.119,-3.119,-3.119,-3.119,-3.119,-3.119,-3.119,-3.119,-3.119,-3.119,-3.1052,-3.0675,-2.9812,-2.8909,-2.8044,-2.7259,-2.6143,-2.4748,-2.421,-2.3824,0.0,0.0,0.0,0.0,0.0,-1.8674,0.0,0.0,0.0,-1.8369,-1.8572,0.0,0.0,0.0,0.0,0.0,0.0,0.0,0.0,-2.5033,0.0,-2.7994,-2.813,-2.8197,-2.8333,-2.8367,-2.8299,-2.813,-2.8265,-2.8367,-2.8367,-2.8604,-2.9025,-2.9649,-2.9973,-3.0412,-3.0987,-3.1123,-3.119,-3.119,-3.119,-3.119,-3.119,-3.119,-3.119,-3.119,-3.119,-3.119,-3.119,-3.119,-3.119,-3.119,-3.119,-3.2104,-3.3423,-3.3423,-3.4315,-3.56,-3.56,-3.56,-3.56,-3.56,-3.56,-3.56,-3.56,-3.56,-3.56,-3.56,-3.56,-3.56,-3.56,-3.56,-3.56,-3.56,-3.56,-3.56,-3.56,-3.56,-3.56,-3.56,-3.56,-3.516,-3.3829,-3.2983,-3.2462,-3.2327,-3.1684,-3.119,-3.119,-3.119,-3.119,-3.1171,-3.1151,-3.1131,-3.1112,-3.1092,-3.1072,-3.1072,-3.1072,-3.1092,-3.1092,-3.1092,-3.0797,-3.0267,-2.975,-2.8881,-2.7651,-2.7278,-2.6382,-2.4967,-2.4277,-2.3816,0.0,0.0,0.0,0.0,-2.0399,0.0,0.0,0.0,-1.7659,-1.7061,0.0,0.0,0.0,0.0,0.0,0.0,0.0,0.0,-2.1224,-2.1732,-2.2714,-2.4778,-2.5015,-2.5286,-2.5913,-2.5981,-2.571,-2.5049,-2.5609,-2.5981,-2.5981,-2.7215,-2.7959,-2.806,-2.9379,-3.0142,-3.0224,-3.0852,-3.119,-3.119,-3.119,-3.119,-3.119,-3.119,-3.119,-3.119,-3.119,-3.119,-3.119,-3.119,-3.119,-3.119,-3.119,-3.2104,-3.3423,-3.3423,-3.4315,-3.56,-3.56,-3.56,-3.56,-3.56,-3.56,-3.56,-3.56,-3.56,-3.56,-3.56,-3.56,-3.56,-3.56,-3.56,-3.56,-3.56,-3.56,-3.56,-3.56,-3.56,-3.56,-3.56,-3.56,-3.5329,-3.4506,-3.3761,-3.3051,-3.2395,-3.1684,-3.119,-3.119,-3.119,-3.1151,-3.1052,-3.0972,-3.0892,-3.079,-3.0634,-3.0572,-3.0572,-3.0572,-3.0613,-3.077,-3.0634,-3.0405,-3.0032,-2.9461,-2.881,-2.8137,-2.7267,-2.6079,-2.465,-2.4537,-2.4178,0.0,0.0,0.0,0.0,0.0,0.0,-1.776,0.0,-1.8335,0.0,0.0,0.0,0.0,0.0,0.0,0.0,-1.8538,0.0,0.0,0.0,-2.0716,0.0,0.0,0.0,-2.4289,-2.4323,-2.4188,-2.3898,-2.4541,-2.5135,-2.5559,-2.659,-2.735,-2.779,-2.889,-2.9668,-3.0108,-3.0818,-3.119,-3.119,-3.119,-3.119,-3.119,-3.119,-3.119,-3.119,-3.119,-3.119,-3.119,-3.119,-3.119,-3.119,-3.119,-3.1833,-3.2814,-3.3254,-3.4066,-3.5013,-3.543,-3.56,-3.56,-3.56,-3.56,-3.56,-3.56,-3.56,-3.56,-3.56,-3.56,-3.56,-3.56,-3.56,-3.56,-3.56,-3.56,-3.56,-3.56,-3.56,-3.56,-3.56,-3.56,-3.5498,-3.5216,-3.4167,-3.3288,-3.2983,-3.1935,-3.119,-3.119,-3.119,-3.1131,-3.0972,-3.0716,-3.0489,-3.0321,-3.0032,-2.9881,-2.9881,-3.0011,-3.0204,-3.0468,-3.03,-3.0044,-2.9683,-2.9143,-2.8535,-2.7865,-2.744,-2.6765,-2.5734,-2.4963,-2.4455,-2.7858,0.0,0.0,0.0,0.0,0.0,0.0,0.0,0.0,0.0,0.0,0.0,0.0,0.0,0.0,0.0,0.0,-1.7986,0.0,-1.8606,0.0,0.0,0.0,0.0,0.0,-2.2665,-2.2699,-2.2496,-2.3342,-2.4222,-2.4966,-2.5879,-2.6725,-2.7486,-2.8502,-2.9281,-2.9803,-3.0717,-3.119,-3.119,-3.119,-3.119,-3.119,-3.119,-3.119,-3.119,-3.119,-3.119,-3.119,-3.119,-3.119,-3.119,-3.119,-3.1549,-3.209,-3.2814,-3.3694,-3.4573,-3.5115,-3.543,-3.56,-3.56,-3.56,-3.56,-3.56,-3.56,-3.56,-3.56,-3.56,-3.56,-3.56,-3.56,-3.56,-3.56,-3.56,-3.56,-3.56,-3.56,-3.56,-3.56,-3.56,-3.56,-3.56,-3.4518,-3.3694,-3.3694,-3.2611,-3.1732,-3.1549,-3.1515,-3.1314,-3.0871,-3.0489,-3.0118,-2.9859,-2.9451,-2.9203,-2.9203,-2.9461,-2.9772,-3.0097,-2.9913,-2.9671,-2.9316,-2.8865,-2.8301,-2.7585,-2.7585,-2.7345,-2.6866,-2.5704,-2.4963,0.0,0.0,0.0,-2.2854,0.0,0.0,0.0,0.0,-1.891,0.0,0.0,0.0,0.0,0.0,0.0,0.0,0.0,0.0,0.0,0.0,0.0,0.0,0.0,0.0,0.0,-2.0805,-2.0953,-2.017,-2.1502,-2.2685,-2.3444,-2.4864,-2.5981,-2.6691,-2.8197,-2.901,-2.9044,-3.0446,-3.119,-3.119,-3.119,-3.119,-3.119,-3.119,-3.119,-3.119,-3.119,-3.119,-3.119,-3.119,-3.119,-3.119,-3.119,-3.119,-3.1326,-3.2056,-3.3241,-3.4506,-3.4539,-3.5013,-3.56,-3.56,-3.56,-3.56,-3.56,-3.56,-3.56,-3.56,-3.56,-3.56,-3.56,-3.56,-3.56,-3.56,-3.56,-3.56,-3.56,-3.56,-3.56,-3.56,-3.56,-3.56,-3.56,-3.4979,-3.4438,-3.4438,-3.3829,-3.3085,-3.2361,-3.2259,-3.1867,-3.0816,-3.03,-2.9859,-2.9538,-2.9028,-2.8724,-2.8724,-2.8982,-2.9257,-2.9595,-2.9425,-2.9266,-2.9097,-2.8668,-2.8137,-2.7585,-2.7585,-2.7585,-2.7555,-2.6866,-2.5854,-2.9533,-2.8196,-2.664,-2.4916,-2.3376,-2.1854,0.0,0.0,0.0,0.0,0.0,0.0,0.0,0.0,0.0,0.0,0.0,0.0,0.0,0.0,0.0,0.0,0.0,0.0,0.0,0.0,-1.9565,-1.9283,-2.0703,-2.209,-2.3342,-2.4797,-2.5947,-2.6657,-2.7672,-2.845,-2.8976,-2.9973,-3.0717,-3.119,-3.119,-3.119,-3.119,-3.119,-3.119,-3.119,-3.119,-3.119,-3.119,-3.119,-3.119,-3.119,-3.119,-3.119,-3.1292,-3.2022,-3.2936,-3.3931,-3.4912,-3.5397,-3.56,-3.56,-3.56,-3.56,-3.56,-3.56,-3.56,-3.56,-3.56,-3.56,-3.56,-3.56,-3.56,-3.56,-3.56,-3.56,-3.56,-3.56,-3.56,-3.56,-3.56,-3.5577,-3.5543,-3.5273,-3.4903,-3.4551,-3.3863,-3.3322,-3.3051,-3.2598,-3.2049,-3.1366,-3.0272,-2.9429,-2.9005,-2.8367,-2.7953,-2.7953,-2.8229,-2.8518,-2.8865,-2.8795,-2.8748,-2.8701,-2.8398,-2.8039,-2.7585,-2.7585,-2.7585,-2.7585,-2.7375,-2.6542,-3.1089,-2.9973,-2.8635,-2.7165,-2.5473,-2.3782,-2.2307,-2.2361,-2.2699,0.0,0.0,0.0,0.0,0.0,0.0,0.0,0.0,0.0,0.0,-1.758,0.0,0.0,0.0,0.0,0.0,0.0,-1.8504,-1.8504,-1.9667,0.0,0.0,-2.4019,-2.527,-2.6285,-2.7283,-2.818,-2.8976,-2.9736,-3.048,-3.119,-3.119,-3.119,-3.119,-3.119,-3.119,-3.119,-3.119,-3.119,-3.119,-3.119,-3.119,-3.119,-3.119,-3.119,-3.1258,-3.1752,-3.2544,-3.3626,-3.5092,-3.56,-3.56,-3.56,-3.56,-3.56,-3.56,-3.56,-3.56,-3.56,-3.56,-3.56,-3.56,-3.56,-3.56,-3.56,-3.56,-3.56,-3.56,-3.56,-3.56,-3.56,-3.56,-3.5554,-3.5429,-3.5211,-3.4975,-3.4757,-3.4286,-3.3839,-3.357,-3.3134,-3.2426,-3.1462,-3.0319,-2.9304,-2.8398,-2.7885,-2.7585,-2.7585,-2.7815,-2.8063,-2.8374,-2.835,-2.835,-2.8398,-2.8186,-2.7915,-2.7585,-2.7585,-2.7585,-2.7585,-2.7585,-2.6896]},{"header":{"parameterUnit":"m.s-1","parameterCategory":1,"la1":30.6,"la2":29.2853,"lo1":-89.7004,"lo2":-87.6739,"dy":0.0162,"dx":0.0183,"nx":112,"ny":82,"refTime":"2026-05-12T12:00:00:Z","depth":0,"parameterNumber":3,"parameterNumberName":"V-component_of_WINDS"},"data":[0.0,0.0,0.0,0.0,0.0,0.0,0.0,0.0,0.0,0.0,0.0,0.0,0.0,0.0,0.0,0.0,0.0,0.0,0.0,0.0,0.0,0.0,0.0,0.0,0.0,0.0,0.0,0.0,0.0,0.0,0.0,0.0,0.0,0.0,0.0,0.0,0.0,0.0,0.0,0.0,0.0,0.0,0.0,0.0,0.0,0.0,0.0,0.0,0.0,0.0,0.0,0.0,0.0,0.0,0.0,0.0,0.0,0.0,0.0,0.0,0.0,0.0,0.0,0.0,0.0,0.0,0.0,0.0,0.0,0.0,0.0,0.0,0.0,0.0,0.0,0.0,0.0,0.0,0.0,0.0,0.0,0.0,0.0,0.0,0.0,0.0,0.0,0.0,0.0,0.0,0.2249,0.3161,0.376,0.3874,0.3347,0.3301,0.3447,0.3783,0.0,0.0,0.0,0.0,0.0,0.0,0.0,0.0,0.0,0.0,0.0,0.0,0.0,0.0,0.0,0.0,0.0,0.0,0.0,0.0,0.0,0.0,0.0,0.0,0.0,0.0,0.0,0.0,0.0,0.0,0.0,0.0,0.0,0.0,0.0,0.0,0.0,0.0,0.0,0.0,0.0,0.0,0.0,0.0,0.0,0.0,0.0,0.0,0.0,0.0,0.0,0.0,0.0,0.0,0.0,0.0,0.0,0.0,0.0,0.0,0.0,0.0,0.0,0.0,0.0,0.0,0.0,0.0,0.0,0.0,0.0,0.0,0.0,0.0,0.0,0.0,0.0,0.0,0.0,0.0,0.0,0.0,0.0,0.0,0.0,0.0,0.0,0.0,0.0,0.0,0.0,0.0,0.0,0.0,0.0,0.0,0.0,0.0,0.0,0.0,0.0,0.0,0.0,0.0,0.2323,0.3416,0.4362,0.462,0.3862,0.3784,0.3804,0.3811,0.0,0.0,0.0,0.0,0.0,0.0,0.0,0.0,0.0,0.0,0.0,0.0,0.0,0.0,0.0,0.0,0.0,0.0,0.0,0.0,0.0,0.0,0.0,0.0,0.0,0.0,0.0,0.0,0.0,0.0,0.0,0.0,0.0,0.0,0.0,0.0,0.0,0.0,0.0,0.0,0.0,0.0,0.0,0.0,0.0,0.0,0.0,0.0,0.0,0.0,0.0,0.0,0.0,0.0,0.0,0.0,0.0,0.0,0.0,0.0,0.0,0.0,0.0,0.0,0.0,0.0,0.0,0.0,0.0,0.0,0.0,0.0,0.0,0.0,0.0,0.0,0.0,0.0,0.0,0.0,0.0,0.0,0.0,0.0,0.0,0.0,0.0,0.0,0.0,0.0,0.0,0.0,0.0,0.0,0.0,0.0,0.0,0.0,0.0,0.0,0.0,0.0,0.0,0.2131,0.2882,0.3473,0.4453,0.4713,0.3923,0.3874,0.3868,0.3809,0.3815,0.0,0.0,0.0,0.0,0.0,0.0,0.0,0.0,0.0,0.0,0.0,0.0,0.0,0.0,0.0,0.0,0.0,0.0,0.0,0.0,0.0,0.0,0.0,0.0,0.0,0.0,0.0,0.0,0.0,0.0,0.0,0.0,0.0,0.0,0.0,0.0,0.0,0.0,0.0,0.0,0.0,0.0,0.0,0.0,0.0,0.0,0.0,0.0,0.0,0.0,0.0,0.0,0.0,0.0,0.0,0.0,0.0,0.0,0.0,0.0,0.0,0.0,0.0,0.0,0.0,0.0,0.0,0.0,0.0,0.0,0.0,0.0,0.0,0.0,0.0,0.0,0.0,0.0,0.0,0.0,0.0,0.0,0.0,0.0,0.0,0.0,0.0,0.0,0.0,0.0,0.0,0.0,0.0,0.0,0.0,0.0,0.0,0.0,0.0,0.0,0.0,0.0,0.2641,0.3292,0.3436,0.4337,0.4603,0.3821,0.3845,0.3868,0.3809,0.3815,0.0,0.0,0.0,0.0,0.0,0.0,0.0,0.0,0.0,0.0,0.0,0.0,0.0,0.0,0.0,0.0,0.0,0.0,0.0,0.0,0.0,0.0,0.0,0.0,0.0,0.0,0.0,0.0,0.0,0.0,0.0,0.0,0.0,0.0,0.0,0.0,0.0,0.0,0.0,0.0,0.0,0.0,0.0,0.0,0.0,0.0,0.0,0.0,0.0,0.0,0.0,0.0,0.0,0.0,0.0,0.0,0.0,0.0,0.0,0.0,0.0,0.0,0.0,0.0,0.0,0.0,0.0,0.0,0.0,0.0,0.0,0.0,0.0,0.0,0.0,0.0,0.0,0.0,0.0,0.0,0.0,0.0,0.0,0.0,0.0,0.0,0.0,0.0,0.0,0.0,0.0,0.0,0.0,0.0,0.0,0.0,0.0,0.0,0.0,0.0,0.0,0.0,0.2548,0.3107,0.3292,0.4167,0.4428,0.3686,0.3794,0.3868,0.3809,0.3815,0.0,0.0,0.0,0.0,0.0,0.0,0.0,0.0,0.0,0.0,0.0,0.0,0.0,0.0,0.0,0.0,0.0,0.0,0.0,0.0,0.0,0.0,0.0,0.0,0.0,0.0,0.0,0.0,0.0,0.0,0.0,0.0,0.0,0.0,0.0,0.0,0.0,0.0,0.0,0.0,0.0,0.0,0.0,0.0,0.0,0.0,0.0,0.0,0.0,0.0,0.0,0.0,0.0,0.0,0.0,0.0,0.0,0.0,0.0,0.0,0.0,0.0,0.0,0.0,0.0,0.0,0.0,0.0,0.0,0.0,0.0,0.0,0.0,0.0,0.0,0.0,0.0,0.0,0.0,0.0,0.0,0.0,0.0,0.0,0.0,0.0,0.0,0.0,0.0,0.0,0.0,0.0,0.0,0.0,0.0,0.0,0.0,0.0,0.0,0.0,0.0,0.0,0.2634,0.3075,0.0,0.4186,0.4345,0.36,0.3772,0.3868,0.3809,0.0,0.0,0.0,0.0,0.0,0.0,0.0,0.0,0.0,0.0,0.0,0.0,0.0,0.0,0.0,0.0,0.0,0.0,0.0,0.0,0.0,0.0,0.0,0.0,0.0,0.0,0.0,0.0,0.0,0.0,0.0,0.0,0.0,0.0,0.0,0.0,0.0,0.0,0.0,0.0,0.0,0.0,0.0,0.0,0.0,0.0,0.0,0.0,0.0,0.0,0.0,0.0,0.0,0.0,0.0,0.0,0.0,0.0,0.0,0.0,0.0,0.0,0.0,0.0,0.0,0.0,0.0,0.0,0.0,0.0,0.0,0.0,0.0,0.0,0.0,0.0,0.0,0.0,0.0,0.0,0.0,0.0,0.0,0.0,0.0,0.0,0.0,0.0,0.0,0.0,0.0,0.0,0.0,0.0,0.0,0.0,0.0,0.0,0.0,0.0,0.0,0.0,0.2319,0.2709,0.3108,0.0,0.4111,0.4285,0.3716,0.3799,0.3921,0.398,0.0,0.0,0.0,0.0,0.0,0.0,0.0,0.0,0.0,0.0,0.0,0.0,0.0,0.0,0.0,0.0,0.0,0.0,0.0,0.0,0.0,0.0,0.0,0.0,0.0,0.0,0.0,0.0,0.0,0.0,0.0,0.0,0.0,0.0,0.0,0.0,0.0,0.0,0.0,0.0,0.0,0.0,0.0,0.0,0.0,0.0,0.0,0.0,0.0,0.0,0.0,0.0,0.0,0.0,0.0,0.0,0.0,0.0,0.0,0.0,0.0,0.0,0.0,0.0,0.0,0.0,0.0,0.0,0.0,0.0,0.0,0.0,0.0,0.0,0.0,0.0,0.0,0.0,0.0,0.0,0.0,0.0,0.0,0.0,0.0,0.0,0.0,0.0,0.0,0.0,0.0,0.0,0.0,0.0,0.0,0.0,0.0,0.0,0.0,0.0,0.0,0.0,0.2238,0.2734,0.3178,0.3384,0.3937,0.4216,0.4017,0.3938,0.4041,0.0,0.0,0.0,0.0,0.0,0.0,0.0,0.0,0.0,0.0,0.0,0.0,0.0,0.0,0.0,0.0,0.0,0.0,0.0,0.0,0.0,0.0,0.0,0.0,0.0,0.0,0.0,0.0,0.0,0.0,0.0,0.0,0.0,0.0,0.0,0.0,0.0,0.0,0.0,0.0,0.0,0.0,0.0,0.0,0.0,0.0,0.0,0.0,0.0,0.0,0.0,0.0,0.0,0.0,0.0,0.0,0.0,0.0,0.0,0.0,0.0,0.0,0.0,0.0,0.0,0.0,0.0,0.0,0.0,0.0,0.0,0.0,0.0,0.0,0.0,0.0,0.0,0.0,0.0,0.0,0.0,0.0,0.0,0.0,0.0,0.0,0.0,0.0,0.0,0.0,0.0,0.0,0.0,0.0,0.0,0.0,0.0,0.0,0.0,0.0,0.0,0.0,0.0,0.2495,0.285,0.3242,0.3638,0.4004,0.4144,0.3955,0.3819,0.3868,0.4094,0.0,0.0,0.0,0.0,0.0,0.0,0.0,0.0,0.0,0.0,0.0,0.0,0.0,0.0,0.0,0.0,0.0,0.0,0.0,0.0,0.0,0.0,0.0,0.0,0.0,0.0,0.0,0.0,0.0,0.0,0.0,0.0,0.0,0.0,0.0,0.0,0.0,0.0,0.0,0.0,0.0,0.0,0.0,0.0,0.0,0.0,0.0,0.0,0.0,0.0,0.0,0.0,0.0,0.0,0.0,0.0,0.0,0.0,0.0,0.0,0.0,0.0,0.0,0.0,0.0,0.0,0.0,0.0,0.0,0.0,0.0,0.0,0.0,0.0,0.0,0.0,0.0,0.0,0.0,0.0,0.0,0.0,0.0,0.0,0.0,0.0,0.0,0.0,0.0,0.0,0.0,0.0,0.0,0.0,0.0,0.0,0.0,0.0,0.0,0.0,0.0,0.0,0.2598,0.2979,0.3376,0.3734,0.3942,0.4079,0.4056,0.3929,0.3917,0.408,0.0,0.0,0.0,0.0,0.0,0.0,0.0,0.0,0.0,0.0,0.0,0.0,0.0,0.0,0.0,0.0,0.0,0.0,0.0,0.0,0.0,0.0,0.0,0.0,0.0,0.0,0.0,0.0,0.0,0.0,0.0,0.0,0.0,0.0,0.0,0.0,0.0,0.0,0.0,0.0,0.0,0.0,0.0,0.0,0.0,0.0,0.0,0.0,0.0,0.0,0.0,0.0,0.0,0.0,0.0,0.0,0.0,0.0,0.0,0.0,0.0,0.0,0.0,0.0,0.0,0.0,0.0,0.0,0.0,0.0,0.0,0.0,0.0,0.0,0.0,0.0,0.0,0.0,0.0,0.0,0.0,0.0,0.0,0.0,0.0,0.0,0.0,0.0,0.0,0.0,0.0,0.0,0.0,0.0,0.0,0.0,0.0,0.0,0.0,0.0,0.0,0.0,0.2611,0.3128,0.3548,0.3671,0.3807,0.4004,0.4254,0.4153,0.41,0.4159,0.0,0.0,0.0,0.0,0.0,0.0,0.0,0.0,0.0,0.0,0.0,0.0,0.0,0.0,0.0,0.0,0.0,0.0,0.0,0.0,0.0,0.0,0.0,0.0,0.0,0.0,0.0,0.0,0.0,0.0,0.0,0.0,0.0,0.0,0.0,0.0,0.0,0.0,0.0,0.0,0.0,0.0,0.0,0.0,0.0,0.0,0.0,0.0,0.0,0.0,0.0,0.0,0.0,0.0,0.0,0.0,0.0,0.0,0.0,0.0,0.2169,0.2084,0.0,0.0,0.0,0.0,0.0,0.0,0.0,0.0,0.0,0.0,0.0,0.0,0.0,0.0,0.0,0.0,0.0,0.0,0.0,0.0,0.0,0.0,0.0,0.0,0.0,0.0,0.0,0.0,0.0,0.0,0.0,0.0,0.0,0.0,0.0,0.0,0.0,0.0,0.0,0.0,0.2624,0.3128,0.3538,0.3619,0.3734,0.3915,0.4127,0.403,0.3925,0.3896,0.3152,0.0,0.0,0.0,0.0,0.0,0.0,0.0,0.0,0.0,0.0,0.0,0.0,0.0,0.0,0.0,0.0,0.0,0.0,0.0,0.0,0.0,0.0,0.0,0.0,0.0,0.0,0.0,0.0,0.0,0.0,0.0,0.0,0.0,0.0,0.0,0.0,0.0,0.0,0.0,0.0,0.0,0.0,0.0,0.0,0.0,0.0,0.0,0.0,0.0,0.0,0.0,0.0,0.0,0.0,0.0,0.0,0.0,0.0,0.0,0.2636,0.2533,0.0,0.0,0.0,0.0,0.0,0.0,0.0,0.0,0.0,0.0,0.0,0.0,0.0,0.0,0.0,0.0,0.0,0.0,0.0,0.0,0.0,0.0,0.0,0.0,0.0,0.0,0.0,0.0,0.0,0.0,0.0,0.0,0.0,0.0,0.0,0.0,0.0,0.0,0.0,0.0,0.2847,0.3217,0.3517,0.3545,0.3622,0.3759,0.3983,0.4053,0.4032,0.3908,0.3588,0.0,0.0,0.0,0.0,0.0,0.0,0.0,0.0,0.0,0.0,0.0,0.0,0.0,0.0,0.0,0.0,0.0,0.0,0.0,0.0,0.0,0.0,0.0,0.0,0.0,0.0,0.0,0.0,0.0,0.0,0.0,0.0,0.0,0.0,0.0,0.0,0.0,0.0,0.0,0.0,0.0,0.0,0.0,0.0,0.0,0.0,0.0,0.0,0.0,0.0,0.0,0.0,0.0,0.3025,0.3086,0.3182,0.3209,0.329,0.337,0.3175,0.3109,0.316,0.344,0.0,0.0,0.0,0.0,0.0,0.0,0.0,0.0,0.0,0.0,0.0,0.0,0.0,0.0,0.0,0.0,0.0,0.0,0.0,0.0,0.0,0.0,0.4462,0.4462,0.4436,0.4129,0.3128,0.0,0.0,0.0,0.0,0.0,0.0,0.0,0.0,0.0,0.0,0.0,0.3086,0.3343,0.3495,0.3495,0.3495,0.3612,0.388,0.4142,0.4216,0.4009,0.4209,0.3843,0.0,0.0,0.0,0.0,0.0,0.0,0.0,0.0,0.0,0.0,0.0,0.0,0.0,0.0,0.0,0.0,0.0,0.0,0.0,0.0,0.0,0.0,0.0,0.0,0.0,0.0,0.0,0.0,0.0,0.0,0.0,0.0,0.1475,0.1619,0.0,0.0,0.0,0.0,0.0,0.0,0.0,0.0,0.0,0.0,0.0,0.0,0.0,0.293,0.3013,0.3337,0.3515,0.3515,0.3515,0.3522,0.3542,0.3649,0.371,0.3737,0.3809,0.0,0.3694,0.3739,0.0,0.0,0.0,0.0,0.0,0.0,0.0,0.0,0.0,0.0,0.0,0.0,0.0,0.0,0.0,0.0,0.0,0.0,0.0,0.0,0.0,0.0,0.4754,0.4754,0.4569,0.4355,0.4196,0.4208,0.4099,0.3667,0.386,0.0,0.0,0.0,0.0,0.0,0.0,0.0,0.3095,0.3343,0.3495,0.3495,0.3495,0.3612,0.388,0.4142,0.4216,0.4009,0.4303,0.4074,0.3159,0.3179,0.0,0.0,0.0,0.0,0.0,0.0,0.0,0.0,0.0,0.0,0.0,0.0,0.0,0.0,0.0,0.0,0.0,0.0,0.0,0.0,0.0,0.0,0.0,0.0,0.0,0.0,0.0,0.0,0.0,0.1556,0.1795,0.1867,0.2009,0.206,0.0,0.0,0.0,0.0,0.0,0.0,0.0,0.0,0.0,0.3215,0.3358,0.3499,0.3705,0.3968,0.4143,0.4232,0.4294,0.4334,0.4334,0.4395,0.4423,0.4429,0.4469,0.4477,0.4393,0.4127,0.4177,0.4464,0.0,0.0,0.0,0.0,0.5806,0.5793,0.5641,0.5464,0.5288,0.5168,0.0,0.0,0.0,0.0,0.0,0.0,0.0,0.4957,0.5235,0.5451,0.5531,0.5355,0.5221,0.509,0.493,0.4918,0.4744,0.0,0.4258,0.4215,0.3663,0.0,0.0,0.0,0.0,0.3658,0.3808,0.3929,0.3943,0.3794,0.3792,0.3811,0.3894,0.4142,0.4319,0.4378,0.4678,0.4572,0.395,0.393,0.3555,0.0,0.0,0.0,0.0,0.0,0.0,0.0,0.0,0.0,0.0,0.0,0.0,0.0,0.0,0.0,0.0,0.0,0.0,0.0,0.0,0.0,0.0,0.0,0.0,0.0,0.0,0.0,0.0,0.1925,0.215,0.2218,0.245,0.2546,0.0,0.0,0.0,0.0,0.0,0.0,0.3256,0.331,0.3499,0.3894,0.3982,0.4131,0.4335,0.4504,0.4662,0.4748,0.4863,0.4887,0.4887,0.4887,0.4887,0.4887,0.4887,0.4918,0.4931,0.4461,0.447,0.4825,0.5305,0.5636,0.5903,0.6422,0.6633,0.6633,0.6633,0.6466,0.6247,0.6186,0.5883,0.5481,0.5237,0.0,0.0,0.0,0.0,0.5574,0.5772,0.6003,0.6142,0.5878,0.5825,0.5772,0.5561,0.5537,0.532,0.0,0.4502,0.4422,0.4141,0.0,0.0,0.0,0.0,0.4167,0.4369,0.4409,0.4315,0.4126,0.4113,0.4061,0.3973,0.4221,0.4462,0.4632,0.4912,0.4895,0.4486,0.4484,0.3968,0.2846,0.0,0.0,0.0,0.0,0.0,0.0,0.0,0.0,0.0,0.0,0.0,0.0,0.0,0.0,0.0,0.0,0.0,0.0,0.0,0.0,0.0,0.0,0.0,0.0,0.0,0.0,0.0,0.0,0.0,0.2829,0.2876,0.0,0.0,0.0,0.0,0.3067,0.3364,0.3624,0.3751,0.3894,0.4024,0.4167,0.4497,0.4653,0.4667,0.4823,0.4867,0.4881,0.4887,0.4887,0.4887,0.4887,0.4887,0.4887,0.4887,0.5009,0.5156,0.4678,0.4785,0.5317,0.5773,0.6285,0.6824,0.7547,0.7819,0.7819,0.7819,0.7806,0.7752,0.7491,0.6841,0.6142,0.6129,0.5896,0.0,0.0,0.6142,0.6156,0.6169,0.6182,0.6196,0.6169,0.6169,0.6169,0.6156,0.6156,0.5869,0.0,0.4781,0.4688,0.4436,0.0,0.4369,0.4382,0.4382,0.4382,0.4395,0.4409,0.4395,0.4382,0.4382,0.4326,0.4193,0.443,0.4561,0.4521,0.4823,0.482,0.4416,0.4467,0.4167,0.3466,0.2898,0.0,0.0,0.0,0.0,0.0,0.0,0.0,0.0,0.0,0.0,0.0,0.0,0.0,0.0,0.0,0.0,0.0,0.0,0.0,0.0,0.0,0.0,0.0,0.0,0.0,0.0,0.0,0.0,0.3142,0.3337,0.0,0.348,0.3609,0.3714,0.3792,0.4036,0.4238,0.4362,0.4423,0.4518,0.4645,0.4753,0.4884,0.4972,0.4995,0.5108,0.5235,0.5235,0.5235,0.5235,0.5235,0.5235,0.5235,0.5235,0.5396,0.5662,0.5708,0.5835,0.6052,0.6415,0.6883,0.7363,0.7749,0.7912,0.7912,0.7912,0.7912,0.7885,0.7779,0.7415,0.7043,0.7043,0.6673,0.6333,0.6627,0.6593,0.6499,0.6667,0.6707,0.6667,0.6499,0.6459,0.6405,0.6236,0.6196,0.6102,0.5762,0.5708,0.5615,0.5288,0.5235,0.5184,0.5012,0.4985,0.4985,0.4985,0.4985,0.489,0.4675,0.4648,0.4516,0.4162,0.4343,0.4444,0.4379,0.4636,0.4779,0.4725,0.4828,0.4537,0.3769,0.3549,0.3221,0.0,0.0,0.0,0.0,0.0,0.0,0.0,0.0,0.0,0.0,0.0,0.0,0.0,0.0,0.0,0.0,0.0,0.0,0.0,0.0,0.0,0.0,0.0,0.0,0.0,0.0,0.3551,0.3604,0.3866,0.404,0.404,0.4158,0.426,0.4362,0.4531,0.466,0.4762,0.4816,0.4884,0.4955,0.5094,0.5189,0.5284,0.5299,0.5406,0.5542,0.5542,0.5521,0.5474,0.5474,0.5446,0.5392,0.5392,0.5624,0.6046,0.6495,0.683,0.7131,0.7373,0.7706,0.8117,0.841,0.8498,0.8485,0.8378,0.8218,0.8083,0.8083,0.7869,0.7651,0.7651,0.7348,0.7081,0.7246,0.7166,0.7081,0.7259,0.7233,0.7121,0.6955,0.6814,0.668,0.6512,0.6472,0.6472,0.6472,0.633,0.6129,0.5909,0.5785,0.5651,0.5451,0.536,0.5293,0.5293,0.5293,0.5226,0.4995,0.4968,0.4757,0.4279,0.4371,0.4395,0.4236,0.4496,0.4734,0.4863,0.502,0.4787,0.4117,0.3686,0.3176,0.2598,0.0,0.0,0.0,0.0,0.0,0.0,0.0,0.0,0.0,0.0,0.0,0.0,0.0,0.0,0.0,0.0,0.0,0.0,0.0,0.0,0.0,0.0,0.0,0.3413,0.3751,0.4065,0.4194,0.4389,0.4505,0.4511,0.4648,0.4707,0.4714,0.485,0.4908,0.4908,0.5036,0.5117,0.5117,0.544,0.5596,0.5596,0.5732,0.58,0.58,0.58,0.5732,0.5596,0.5596,0.5549,0.5405,0.5405,0.5704,0.6259,0.6966,0.7749,0.8516,0.8583,0.8798,0.9074,0.9541,0.9715,0.9646,0.9324,0.8884,0.8442,0.8429,0.8203,0.7952,0.7939,0.7925,0.7925,0.7925,0.7912,0.7912,0.7912,0.7709,0.7504,0.7491,0.7241,0.7006,0.7006,0.7006,0.7006,0.7006,0.6593,0.6223,0.6209,0.595,0.5714,0.5714,0.5491,0.0,0.5306,0.5306,0.5306,0.5293,0.5293,0.508,0.4556,0.4567,0.445,0.4122,0.4403,0.4644,0.4783,0.499,0.4903,0.4512,0.3281,0.2637,0.2617,0.0,0.0,0.0,0.0,0.0,0.0,0.0,0.0,0.0,0.0,0.0,0.0,0.0,0.0,0.0,0.0,0.0,0.0,0.0,0.0,0.0,0.364,0.3912,0.3853,0.415,0.4423,0.4551,0.4701,0.483,0.4938,0.4955,0.5053,0.5201,0.5248,0.5324,0.5399,0.544,0.5508,0.5616,0.5698,0.5745,0.5745,0.5779,0.58,0.58,0.58,0.5779,0.5745,0.5745,0.5718,0.5677,0.5677,0.6063,0.679,0.7604,0.8376,0.9096,0.9086,0.9319,0.965,0.9678,0.9715,0.9673,0.9593,0.9459,0.9313,0.9072,0.8924,0.8818,0.8605,0.8417,0.8257,0.8257,0.8096,0.7912,0.7912,0.7846,0.7749,0.7544,0.7424,0.7303,0.7046,0.7006,0.7006,0.7006,0.6873,0.672,0.6526,0.6419,0.6298,0.6084,0.6008,0.0,0.5625,0.5598,0.5518,0.532,0.5293,0.5146,0.4756,0.4556,0.44,0.4248,0.4327,0.4483,0.4712,0.4961,0.4903,0.4512,0.3882,0.3431,0.0,0.0,0.0,0.0,0.0,0.0,0.0,0.0,0.0,0.0,0.0,0.0,0.0,0.0,0.0,0.0,0.0,0.0,0.0,0.0,0.0,0.0,0.4124,0.4442,0.4565,0.4674,0.4775,0.4863,0.5067,0.523,0.5311,0.5379,0.5447,0.5576,0.5583,0.5583,0.5677,0.5677,0.5718,0.58,0.5861,0.5895,0.5895,0.5962,0.5996,0.5996,0.5996,0.5962,0.5895,0.5895,0.5861,0.58,0.58,0.623,0.6971,0.7973,0.8809,0.9524,0.0,0.0,0.0,0.0,0.9997,0.986,0.986,0.978,0.9659,0.9486,0.9391,0.9364,0.9232,0.8965,0.8738,0.8738,0.8524,0.8272,0.8272,0.8179,0.807,0.7919,0.7678,0.7437,0.7241,0.7086,0.7006,0.7006,0.7006,0.0,0.68,0.6667,0.6553,0.6398,0.6277,0.6088,0.5745,0.5701,0.5598,0.5333,0.5293,0.5157,0.4834,0.4648,0.0,0.0,0.0,0.4549,0.4812,0.5009,0.0,0.0,0.0,0.0,0.0,0.0,0.0,0.0,0.3536,0.3901,0.0,0.0,0.0,0.0,0.0,0.0,0.0,0.0,0.0,0.0,0.0,0.0,0.0,0.0,0.0,0.0,0.4551,0.4935,0.5337,0.527,0.5177,0.5177,0.5447,0.5616,0.5616,0.5725,0.58,0.58,0.58,0.5806,0.5827,0.0,0.0,0.0,0.0,0.602,0.602,0.6231,0.63,0.63,0.63,0.6186,0.602,0.602,0.5983,0.5854,0.5854,0.6288,0.7045,0.8179,0.9146,1.0019,1.0464,1.0626,1.0586,1.0586,1.0425,1.0167,1.0167,0.0,0.0,0.9769,0.974,0.9726,0.9729,0.9499,0.9257,0.9217,0.9031,0.8844,0.8818,0.8617,0.8442,0.8402,0.796,0.7531,0.7513,0.7228,0.7006,0.7006,0.7006,0.7006,0.7006,0.6814,0.664,0.664,0.6445,0.6164,0.5852,0.5785,0.5651,0.5373,0.0,0.0,0.4887,0.4821,0.4786,0.4743,0.4688,0.4804,0.509,0.5181,0.5213,0.5244,0.4893,0.4727,0.4707,0.4352,0.4184,0.4184,0.4274,0.4195,0.0,0.0,0.0,0.0,0.0,0.0,0.0,0.0,0.0,0.0,0.0,0.0,0.0,0.0,0.0,0.4416,0.4907,0.5296,0.5385,0.5542,0.5671,0.5671,0.5725,0.5759,0.5759,0.5786,0.58,0.58,0.58,0.5854,0.5939,0.5946,0.6044,0.6204,0.6238,0.6252,0.6252,0.6286,0.63,0.63,0.63,0.0,0.6252,0.6252,0.6238,0.6211,0.6211,0.6661,0.7442,0.8382,0.9665,1.1075,1.0983,1.0801,1.0586,1.0586,1.0559,1.0506,1.0506,1.0466,1.0385,1.0114,1.0033,0.9993,0.9753,0.9646,0.0,0.9284,0.9178,0.9071,0.8871,0.8764,0.8657,0.8456,0.8096,0.7776,0.7544,0.7228,0.7006,0.7006,0.7006,0.7006,0.7006,0.6953,0.6913,0.6913,0.6873,0.6747,0.6453,0.6231,0.5976,0.5665,0.544,0.528,0.5213,0.4955,0.4838,0.4941,0.5032,0.5242,0.5622,0.5819,0.5984,0.6141,0.6074,0.6035,0.6035,0.5957,0.5918,0.5898,0.4922,0.4434,0.0,0.0,0.0,0.0,0.0,0.0,0.0,0.0,0.0,0.0,0.0,0.3663,0.3993,0.0,0.4624,0.4907,0.5262,0.5562,0.5677,0.582,0.5888,0.5813,0.5867,0.5915,0.5915,0.5989,0.6067,0.6067,0.6067,0.6064,0.6139,0.6146,0.6179,0.63,0.63,0.63,0.63,0.63,0.6338,0.6447,0.6563,0.6641,0.6764,0.6834,0.6911,0.6911,0.6911,0.7373,0.8199,0.9431,1.0635,1.1637,1.149,1.1189,1.0814,1.0814,1.072,1.0586,1.0586,1.0586,1.0559,1.0381,1.0341,1.0345,1.0198,1.002,0.9833,0.9539,0.9324,0.9138,0.8884,0.8804,0.8778,0.8631,0.8257,0.7859,0.7736,0.7326,0.7006,0.7006,0.7006,0.7006,0.7006,0.7006,0.7006,0.7006,0.7006,0.69,0.6627,0.6371,0.6075,0.5728,0.5451,0.5293,0.5293,0.5174,0.5086,0.5053,0.5205,0.5389,0.5591,0.5834,0.6058,0.6292,0.6341,0.6358,0.6394,0.6394,0.6394,0.6387,0.5762,0.5352,0.0,0.0,0.0,0.0,0.0,0.0,0.0,0.0,0.3297,0.3474,0.3812,0.4185,0.4484,0.4755,0.5047,0.5351,0.5549,0.5725,0.5952,0.602,0.603,0.5908,0.6003,0.6071,0.6071,0.6186,0.63,0.63,0.63,0.63,0.63,0.63,0.63,0.63,0.63,0.63,0.63,0.63,0.6416,0.6679,0.6942,0.7211,0.745,0.771,0.7863,0.7863,0.794,0.8389,0.9226,1.0582,1.1463,1.1993,1.1993,1.1672,1.1156,1.1035,1.0848,1.0667,1.0613,1.0586,1.0586,1.0586,1.0586,1.0586,1.0586,1.0425,1.0127,0.978,0.9512,0.9217,0.8898,0.8804,0.8804,0.8804,0.8378,0.7992,0.7992,0.7566,0.7166,0.71,0.7108,0.7073,0.7006,0.7006,0.7006,0.7006,0.7006,0.6913,0.6707,0.6445,0.6169,0.5825,0.5548,0.536,0.5293,0.5354,0.5308,0.515,0.5312,0.5438,0.5497,0.5778,0.6065,0.6362,0.6464,0.6547,0.6648,0.6648,0.6648,0.6648,0.657,0.6309,0.3969,0.3923,0.399,0.3874,0.3878,0.3838,0.0,0.0,0.3758,0.3914,0.4192,0.4491,0.4662,0.4904,0.5162,0.5365,0.5596,0.5833,0.5966,0.6146,0.6265,0.6252,0.6265,0.6272,0.6272,0.6286,0.63,0.63,0.63,0.63,0.63,0.63,0.63,0.63,0.63,0.63,0.63,0.63,0.6486,0.6865,0.7433,0.7893,0.8266,0.8836,0.9112,0.9112,0.948,0.9997,1.0596,1.1143,1.1724,1.2251,1.2251,1.2051,1.1739,1.1182,1.0969,1.0902,1.068,1.0586,1.0586,1.0586,1.0586,1.0586,1.0586,1.0573,1.0425,0.9876,0.9659,0.9512,0.8951,0.8804,0.8804,0.8804,0.8564,0.8348,0.8348,0.807,0.7726,0.7491,0.7437,0.7357,0.7046,0.7006,0.7006,0.7006,0.7006,0.6993,0.6953,0.672,0.6445,0.6169,0.5838,0.5558,0.532,0.5309,0.5295,0.5284,0.5411,0.5599,0.5831,0.6164,0.6536,0.6991,0.7184,0.7358,0.7549,0.7549,0.7549,0.7549,0.7174,0.6777,0.3681,0.3743,0.0,0.0,0.3931,0.4003,0.399,0.4102,0.4279,0.449,0.4707,0.4897,0.5085,0.5214,0.5345,0.0,0.5718,0.5888,0.6132,0.6139,0.6159,0.6286,0.6179,0.6159,0.6293,0.63,0.63,0.63,0.63,0.6338,0.6447,0.6695,0.682,0.6841,0.7047,0.7125,0.6988,0.6988,0.7257,0.7787,0.8275,0.877,0.9301,0.9793,0.9981,1.0019,1.0432,1.0807,1.1168,1.1589,1.1972,1.2305,1.2305,1.2225,1.2064,1.165,1.1289,1.0969,1.0862,1.0734,1.0586,1.0586,1.0586,1.0586,1.0586,1.0586,1.0506,1.006,0.982,0.9593,0.9138,0.8911,0.8804,0.8804,0.8591,0.8402,0.8402,0.8136,0.7872,0.7762,0.7611,0.745,0.733,0.7134,0.7006,0.7006,0.7006,0.7006,0.7006,0.6774,0.6432,0.5963,0.582,0.5665,0.5447,0.5482,0.5559,0.5592,0.5671,0.5827,0.6014,0.6337,0.6701,0.7092,0.7329,0.7539,0.7705,0.7705,0.7705,0.7686,0.7525,0.7349,0.358,0.0,0.0,0.3921,0.4063,0.4206,0.4321,0.4484,0.466,0.4894,0.4995,0.5128,0.5358,0.5358,0.5399,0.5691,0.5779,0.5895,0.6159,0.6139,0.6132,0.6286,0.6159,0.6177,0.6363,0.6338,0.63,0.63,0.63,0.643,0.6744,0.7209,0.7557,0.7713,0.8102,0.8234,0.8095,0.8043,0.8275,0.8818,0.9263,0.9793,1.0331,1.0781,1.0993,1.1005,1.1292,1.1515,1.1663,1.1972,1.2157,1.2305,1.2305,1.2305,1.2278,1.2064,1.1698,1.1209,1.1049,1.0862,1.0693,1.0613,1.0586,1.0586,1.0586,1.0586,1.0533,1.0207,0.9913,0.9619,0.9284,0.8991,0.8804,0.8804,0.8644,0.8523,0.8523,0.8323,0.8125,0.8045,0.7869,0.7692,0.754,0.7295,0.71,0.7006,0.7006,0.7006,0.7006,0.6774,0.6426,0.5999,0.5881,0.581,0.5734,0.5775,0.5858,0.5983,0.6044,0.6122,0.6198,0.6473,0.6777,0.7092,0.7348,0.7539,0.7705,0.7705,0.7705,0.7705,0.7705,0.7705,0.0,0.0,0.418,0.418,0.4429,0.4674,0.4674,0.4796,0.4914,0.5063,0.4988,0.5013,0.5344,0.5237,0.5204,0.5549,0.5711,0.5854,0.5979,0.6159,0.6293,0.63,0.6293,0.637,0.0,0.6416,0.63,0.63,0.63,0.6556,0.7143,0.7819,0.8453,0.9045,0.9419,0.9625,0.9615,0.9364,0.9442,0.9857,1.0447,1.0944,1.1366,1.1972,1.2268,1.2268,1.2268,1.2268,1.2268,1.2305,1.2305,1.2305,1.2305,1.2305,1.2305,1.2291,1.2104,1.1792,1.1196,1.0982,1.0961,1.068,1.0586,1.0586,1.0586,1.0586,1.0533,1.0207,0.9913,0.9619,0.9284,0.8991,0.8804,0.8804,0.8804,0.8791,0.8791,0.8791,0.8697,0.8442,0.8375,0.8188,0.7584,0.7477,0.7383,0.7046,0.7006,0.7006,0.7006,0.6774,0.6606,0.6579,0.6215,0.6062,0.6253,0.615,0.6198,0.6457,0.6488,0.6488,0.6488,0.6624,0.6835,0.7103,0.7299,0.751,0.7705,0.7705,0.7705,0.7705,0.7705,0.7705,0.0,0.0,0.4416,0.4518,0.4694,0.4863,0.4928,0.4988,0.5042,0.509,0.5063,0.5029,0.5067,0.5069,0.5164,0.544,0.5644,0.5854,0.5973,0.6071,0.6146,0.6286,0.6173,0.0,0.0,0.0,0.0,0.6872,0.7133,0.7573,0.8224,0.9027,0.9671,1.0131,1.0732,1.0943,1.0817,1.0728,1.0892,1.1312,1.1737,1.2069,1.2321,1.2311,1.2305,1.2305,1.2305,1.2305,1.2305,1.2305,1.2305,1.2305,1.2305,1.2305,1.2305,1.2305,1.2238,1.2078,1.1476,1.1156,1.0942,1.068,1.0586,1.0586,1.0586,1.0586,1.0573,1.0466,1.009,0.9659,0.9566,0.9165,0.8804,0.8804,0.8804,0.8804,0.8804,0.8804,0.8778,0.8684,0.8536,0.8268,0.7842,0.7625,0.7383,0.7046,0.7006,0.7006,0.7006,0.6913,0.68,0.6613,0.6586,0.6517,0.6326,0.6459,0.6594,0.669,0.6749,0.6792,0.682,0.6955,0.7121,0.7299,0.7447,0.7598,0.7705,0.7705,0.7705,0.7705,0.7705,0.7705,0.5048,0.4849,0.4675,0.4748,0.4884,0.4975,0.5015,0.5063,0.5083,0.5036,0.4935,0.4897,0.4887,0.4921,0.504,0.5243,0.5569,0.5833,0.5899,0.6044,0.6184,0.6402,0.6356,0.6525,0.0,0.0,0.0,0.7772,0.8195,0.8803,0.9586,1.0388,1.1023,1.1494,1.207,1.231,1.218,1.2083,1.2154,1.2433,1.2661,1.2803,1.2945,1.2719,1.2559,1.2502,1.2502,1.2398,1.2305,1.2305,1.2305,1.2305,1.2305,1.2305,1.2305,1.2305,1.2305,1.2211,1.1588,1.1303,1.1089,1.072,1.0586,1.0586,1.0586,1.0586,1.0586,1.0586,1.0238,0.982,0.9742,0.9325,0.8911,0.8831,0.8804,0.8804,0.8804,0.8804,0.8804,0.8804,0.8657,0.8404,0.7979,0.7589,0.7241,0.7033,0.7006,0.7006,0.7006,0.7006,0.6926,0.676,0.6813,0.6805,0.6629,0.6864,0.7098,0.7288,0.7273,0.7323,0.7491,0.7422,0.7421,0.751,0.7598,0.7656,0.7705,0.7705,0.7705,0.7705,0.7705,0.7705,0.5478,0.5144,0.4901,0.4908,0.5009,0.5069,0.4935,0.4995,0.5049,0.4894,0.466,0.4566,0.0,0.0,0.4775,0.5042,0.5494,0.5793,0.58,0.6102,0.6377,0.0,0.0,0.0,0.0,0.0,0.0,0.8906,0.0,1.0168,1.1106,1.1762,1.2433,1.3039,1.3428,1.3626,1.3626,1.3347,1.3253,1.3253,1.324,1.3227,1.3227,1.3213,1.3039,1.2784,1.2784,1.261,1.2305,1.2305,1.2305,1.2305,1.2305,1.2305,1.2305,1.2305,1.2305,1.2225,1.1615,1.1402,1.1295,1.0801,1.06,1.0586,1.0586,1.0586,1.0586,1.0586,1.0341,1.0047,0.978,0.9472,0.9138,0.8898,0.8818,0.8804,0.8804,0.8804,0.8804,0.8804,0.8791,0.8604,0.8005,0.7419,0.702,0.7006,0.7006,0.7006,0.7006,0.7006,0.7027,0.7027,0.6915,0.6955,0.7199,0.7349,0.7663,0.8158,0.8036,0.8076,0.8379,0.7973,0.7725,0.7705,0.7705,0.7705,0.7705,0.7705,0.7705,0.7705,0.7705,0.7705,0.6344,0.5663,0.5069,0.5223,0.531,0.5264,0.5083,0.4988,0.4897,0.4662,0.4429,0.4301,0.0,0.0,0.0,0.4894,0.5352,0.0,0.5786,0.6102,0.0,0.6788,0.0,0.8029,0.8421,0.919,0.0,0.0,1.0594,1.1018,1.1815,1.241,1.302,1.3519,1.3791,1.3975,1.3975,1.3895,1.3868,1.3854,1.3641,1.3493,1.348,1.3307,1.3039,1.2784,1.2784,1.261,1.2305,1.2305,1.2305,1.2305,1.2305,1.2305,1.2305,1.2305,1.2305,1.2251,1.1877,1.161,1.1335,1.0995,1.0774,1.0586,1.0586,1.0586,1.0586,1.0586,1.0341,1.007,1.002,0.959,0.9191,0.9124,0.8938,0.8804,0.8804,0.8804,0.8804,0.8804,0.8631,0.8363,0.7965,0.7615,0.7281,0.7033,0.7006,0.7006,0.7006,0.7091,0.7188,0.728,0.7411,0.7477,0.7501,0.7794,0.8075,0.8263,0.8412,0.8477,0.8414,0.8297,0.8066,0.7705,0.7705,0.7705,0.7705,0.7705,0.7705,0.7705,0.7705,0.7705,0.6932,0.6133,0.5445,0.547,0.5377,0.5203,0.4986,0.4823,0.4633,0.4328,0.4104,0.0,0.0,0.0,0.0,0.0,0.0,0.0,0.588,0.6233,0.6705,0.0,0.8265,0.0,0.9458,1.006,1.0656,0.0,1.1347,1.1725,1.2439,1.3134,1.3603,1.387,1.3997,1.4082,1.4082,1.4082,1.4082,1.4082,1.3921,1.3841,1.3786,1.3667,1.336,1.2985,1.2985,1.2705,1.2305,1.2305,1.2305,1.2305,1.2305,1.2305,1.2305,1.2305,1.2305,1.2278,1.2118,1.1864,1.1557,1.1129,1.0908,1.076,1.0626,1.0586,1.0586,1.0586,1.0466,1.0287,1.0154,0.9844,0.9537,0.9271,0.9084,0.8938,0.8831,0.8804,0.8804,0.8804,0.8577,0.8348,0.815,0.7785,0.7437,0.7241,0.7129,0.7112,0.7175,0.7251,0.7377,0.7607,0.7801,0.7972,0.8071,0.837,0.8635,0.882,0.8875,0.8936,0.8928,0.859,0.8277,0.8008,0.7817,0.7798,0.8008,0.7798,0.7817,0.8008,0.7798,0.7705,0.7412,0.6649,0.5947,0.5687,0.5352,0.5015,0.4735,0.4552,0.4348,0.4022,0.0,0.3609,0.3907,0.3937,0.4117,0.4585,0.0,0.5513,0.6051,0.647,0.7199,0.8457,0.9271,0.9965,1.0568,1.0968,1.1361,1.1737,1.188,1.2266,1.3027,1.3743,1.4082,1.4082,1.4082,1.4082,1.4082,1.4082,1.4082,1.4082,1.4082,1.4082,1.4082,1.4082,1.3761,1.3213,1.3213,1.2866,1.2305,1.2305,1.2305,1.2305,1.2305,1.2305,1.2305,1.2305,1.2305,1.2305,1.2305,1.2131,1.1873,1.1289,1.1062,1.0942,1.072,1.0626,1.0586,1.0586,1.0586,1.0533,1.0247,1.011,0.9963,0.9444,0.9271,0.9138,0.8898,0.8831,0.8804,0.8804,0.8604,0.8442,0.8402,0.796,0.7584,0.7527,0.7363,0.7314,0.744,0.7482,0.7607,0.7946,0.8172,0.8423,0.8765,0.897,0.9211,0.9527,0.9392,0.9394,0.9592,0.8926,0.8532,0.8473,0.8071,0.8071,0.8473,0.8071,0.8051,0.8375,0.7988,0.7759,0.8206,0.7288,0.6457,0.5958,0.5467,0.4988,0.4627,0.4294,0.0,0.0,0.0,0.3297,0.3602,0.3679,0.387,0.4436,0.0,0.0,0.0,0.0,0.7822,0.0,0.0,0.0,0.0,0.0,0.0,0.0,1.2232,1.2541,1.3307,1.3828,1.4082,1.4082,1.4082,1.4082,1.4082,1.4082,1.4082,1.4082,1.4082,1.4082,1.4082,1.4082,1.3761,1.3213,1.3213,1.2866,1.2305,1.2305,1.2305,1.2305,1.2305,1.2305,1.2305,1.2305,1.2305,1.2305,1.2305,1.2265,1.2171,1.1859,1.1417,1.0982,1.0929,1.0787,1.0586,1.0586,1.0586,1.0586,1.0533,1.0301,1.0057,0.9963,0.9564,0.9204,0.9151,0.8951,0.8804,0.8804,0.8764,0.8657,0.8442,0.8308,0.8067,0.7571,0.7606,0.7723,0.7804,0.7863,0.8028,0.8357,0.8683,0.8947,0.9171,0.9446,0.9625,0.9744,0.9865,0.9829,0.9612,0.9474,0.924,0.8906,0.8828,0.8828,0.8906,0.8828,0.8652,0.8395,0.8316,0.8066,0.8752,0.7934,0.7099,0.6561,0.5871,0.5247,0.484,0.0,0.0,0.0,0.0,0.3346,0.3609,0.0,0.0,0.0,0.0,0.0,0.0,0.0,0.0,0.0,0.0,0.0,0.0,0.0,0.0,1.2924,1.2784,1.2814,1.3179,1.3786,1.4082,1.4082,1.4082,1.4082,1.4082,1.4082,1.4082,1.4082,1.4082,1.4082,1.4082,1.4082,1.3761,1.3213,1.3213,1.2866,1.2305,1.2305,1.2305,1.2305,1.2305,1.2305,1.2305,1.2305,1.2305,1.2305,1.2305,1.2305,1.2278,1.2144,1.1832,1.143,1.1089,1.0902,1.0787,1.064,1.0586,1.0586,1.0586,1.0479,1.0314,1.0154,0.9644,0.9178,0.9018,0.8884,0.8804,0.8804,0.8804,0.8764,0.8617,0.8496,0.8295,0.8,0.7944,0.799,0.8239,0.8406,0.8643,0.8987,0.9248,0.9527,0.9804,0.9941,1.0019,1.0059,1.0137,1.0118,0.998,0.9728,0.9513,0.9318,0.9104,0.9104,0.9318,0.9104,0.9023,0.9023,0.8809,0.8594,0.9202,0.8581,0.7906,0.7291,0.6527,0.576,0.5318,0.4762,0.0,0.0,0.3803,0.3583,0.3777,0.0,0.0,0.0,0.0,0.0,0.0,0.0,0.0,0.0,0.0,0.0,0.0,0.0,0.0,1.3519,1.3349,1.3222,1.3222,1.3786,1.4082,1.4082,1.4082,1.4082,1.4082,1.4082,1.4082,1.4082,1.4082,1.4082,1.4082,1.4082,1.3761,1.3213,1.3213,1.2866,1.2305,1.2305,1.2305,1.2305,1.2305,1.2305,1.2305,1.2305,1.2305,1.2305,1.2305,1.2305,1.2305,1.2305,1.2104,1.1819,1.135,1.1089,1.0942,1.0747,1.064,1.0586,1.0586,1.0586,1.0506,1.0114,0.9644,0.9204,0.8884,0.8804,0.8804,0.8804,0.8804,0.8804,0.8804,0.8617,0.8469,0.8415,0.8296,0.8349,0.8663,0.8985,0.9313,0.9626,0.9784,0.998,1.0273,1.0293,1.0293,1.0293,1.0293,1.0293,1.0293,0.9961,0.9747,0.9747,0.9453,0.9434,0.9747,0.9434,0.9377,0.9592,0.9279,0.9082,0.9635,0.9343,0.896,0.8195,0.737,0.6628,0.6032,0.0,0.0,0.4577,0.4221,0.3985,0.4122,0.418,0.0,0.0,0.0,0.0,0.0,0.0,0.0,0.0,0.0,0.0,0.0,0.0,0.0,1.4039,1.3997,1.3997,1.3997,1.4039,1.4082,1.4082,1.4082,1.4082,1.4082,1.4082,1.4082,1.4082,1.4082,1.4082,1.4082,1.4082,1.3761,1.3213,1.3213,1.2866,1.2305,1.2305,1.2305,1.2305,1.2305,1.2305,1.2305,1.2305,1.2305,1.2305,1.2305,1.2305,1.2305,1.2305,1.2104,1.1899,1.1832,1.141,1.0982,1.0955,1.0801,1.0586,1.0586,1.0586,1.0452,0.9889,0.9686,0.9486,0.8925,0.8804,0.8804,0.8804,0.8804,0.8804,0.8804,0.8791,0.8684,0.8442,0.8746,0.902,0.9054,0.9495,0.9923,1.0215,1.0118,1.0118,1.0293,1.0293,1.0293,1.0293,1.0293,1.0293,1.0293,1.0254,1.0234,1.0234,1.0195,1.0195,1.0234,1.0195,0.998,0.9592,0.9554,0.9357,0.9444,0.9269,0.8927,0.8352,0.7621,0.6885,0.6312,0.0,0.5066,0.4781,0.4485,0.4323,0.4377,0.4484,0.4611,0.4754,0.4914,0.5404,0.0,0.0,0.0,0.0,0.0,0.0,0.0,0.0,1.3895,1.4068,1.4082,1.4082,1.4082,1.4082,1.4082,1.4082,1.4082,1.4082,1.4082,1.4082,1.4082,1.4082,1.4082,1.4082,1.4082,1.4082,1.3761,1.3213,1.3213,1.2866,1.2305,1.2305,1.2305,1.2305,1.2305,1.2305,1.2305,1.2305,1.2305,1.2305,1.2305,1.2305,1.2305,1.2305,1.2104,1.1873,1.165,1.1436,1.1182,1.0868,1.068,1.0586,1.0586,1.0586,1.0492,1.0047,0.9865,0.9738,0.9398,0.9245,0.9185,0.9263,0.929,0.929,0.929,0.929,0.9247,0.9146,0.9402,0.9674,0.9958,1.0088,1.0259,1.0623,1.039,1.0235,1.0293,1.0293,1.0293,1.0293,1.0293,1.0293,1.0293,1.0293,1.0293,1.0293,1.0293,1.0293,1.0293,1.0293,1.0195,1.002,1.002,0.9941,0.9144,0.9167,0.9032,0.8568,0.7974,0.7313,0.0,0.0,0.5462,0.5127,0.4887,0.474,0.474,0.4847,0.4981,0.5096,0.5199,0.5689,0.6802,0.0,0.0,0.0,0.0,0.0,0.0,1.3493,1.372,1.4068,1.4082,1.4082,1.4082,1.4082,1.4082,1.4082,1.4082,1.4082,1.4082,1.4082,1.4082,1.4082,1.4082,1.4082,1.4082,1.4082,1.3761,1.3213,1.3213,1.2866,1.2305,1.2305,1.2305,1.2305,1.2305,1.2305,1.2305,1.2305,1.2305,1.2305,1.2305,1.2305,1.2305,1.2305,1.2104,1.1846,1.1516,1.1335,1.1209,1.0827,1.0653,1.0586,1.0586,1.0586,1.0519,1.018,1.0102,1.0047,0.9923,0.9841,0.9836,0.994,0.9961,0.9961,0.9961,0.9961,0.9961,0.9961,1.0141,1.0392,1.0733,1.0723,1.0742,1.0875,1.0645,1.043,1.0312,1.0293,1.0293,1.0293,1.0293,1.0293,1.0293,1.0293,1.0293,1.0293,1.0293,1.0293,1.0293,1.0293,1.0293,1.0293,1.0293,1.0293,0.8818,0.9245,0.9539,0.8938,0.8591,0.8136,0.0,0.6573,0.6084,0.5754,0.5478,0.5293,0.5293,0.5293,0.5363,0.5572,0.5537,0.5878,0.6962,0.0,0.0,0.0,0.0,0.0,0.0,1.3293,1.372,1.4068,1.4082,0.0,1.4082,1.4082,1.4082,1.4082,1.4082,1.4082,1.4082,1.4082,1.4082,1.4082,1.4082,1.4082,1.4082,1.4082,1.3761,1.3213,1.3213,1.2866,1.2305,1.2305,1.2305,1.2305,1.2305,1.2305,1.2305,1.2305,1.2305,1.2305,1.2305,1.2305,1.2305,1.2305,1.2104,1.1846,1.1516,1.1223,1.0995,1.0995,1.0814,1.0586,1.0586,1.0586,1.0519,1.018,1.0356,1.0533,1.0339,1.0558,1.0798,1.0794,1.0788,1.0788,1.0788,1.0788,1.0788,1.0788,1.1007,1.1188,1.1196,1.142,1.1423,1.0954,1.0898,1.0723,1.0332,1.0293,1.0293,1.0293,1.0293,1.0293,1.0293,1.0293,1.0293,1.0293,1.0293,1.0293,1.0293,1.0293,1.0293,1.0293,1.0293,1.0293,0.8072,0.8312,0.8418,0.8232,0.7806,0.7321,0.684,0.6279,0.5772,0.5478,0.536,0.5293,0.5293,0.5293,0.5428,0.581,0.586,0.0,0.0,0.0,0.0,0.0,0.0,0.0,0.0,0.0,1.3988,1.4082,1.4082,1.4082,1.4082,1.4082,1.4082,1.4082,1.4082,1.4082,1.4082,1.4082,1.4082,1.4082,1.4082,1.4082,1.4082,1.4082,1.3761,1.3213,1.3213,1.2866,1.2305,1.2305,1.2305,1.2305,1.2305,1.2305,1.2305,1.2305,1.2305,1.2305,1.2305,1.2305,1.2305,1.2305,1.1971,1.1543,1.1415,1.1223,1.1021,1.1077,1.1066,1.1122,1.1247,1.1185,1.1031,1.084,1.0873,1.1019,1.1279,1.1257,1.1348,1.1766,1.16,1.1426,1.1426,1.1426,1.1426,1.1426,1.1644,1.1857,1.1932,1.1907,1.1857,1.1791,1.1248,1.0742,1.0332,1.0293,1.0293,1.0293,1.0293,1.0293,1.0293,1.0293,1.0293,1.0293,1.0293,1.0293,1.0293,1.0293,1.0293,1.0293,1.0293,1.0293,0.0,0.7486,0.7539,0.7433,0.7113,0.676,0.6346,0.5972,0.5625,0.536,0.5293,0.5293,0.5293,0.5293,0.5478,0.5993,0.6169,0.0,0.0,0.0,0.0,0.0,0.0,0.0,0.0,1.3641,1.3961,1.4082,1.4082,1.4082,1.4082,1.4082,1.4082,1.4082,1.4082,1.4082,1.4082,1.4082,1.4082,1.4082,1.4082,1.4082,1.4082,1.4082,1.3828,1.3373,1.3253,1.2933,0.0,1.2345,1.2305,1.2305,1.2305,1.2305,1.2305,1.2305,1.2305,1.2305,1.2305,1.2305,1.2305,1.2305,1.194,1.1512,1.1458,1.1261,1.1072,1.129,1.1514,1.1763,1.2042,1.195,1.1701,1.1421,1.1461,1.1646,1.1955,1.2077,1.2257,1.2675,1.2547,1.2326,1.2178,1.2141,1.2141,1.2141,1.2308,1.2431,1.2529,1.2421,1.2285,1.22,1.1716,1.1172,1.0586,1.0391,1.0293,1.0293,1.0293,1.0293,1.0293,1.0293,1.0293,1.0293,1.0293,1.0293,1.0293,1.0293,1.0293,1.0293,1.0293,1.0293,0.0,0.6734,0.69,0.6627,0.6579,0.6413,0.5838,0.5674,0.0,0.5347,0.5293,0.5306,0.532,0.5333,0.5521,0.6156,0.6486,0.0,0.0,0.0,0.0,0.0,0.0,0.0,1.3213,1.3467,1.3746,1.4068,1.4082,1.4082,1.4082,1.4082,1.4082,1.4082,1.4082,1.4082,1.4082,1.4082,1.4082,1.4082,1.4082,1.4082,1.4082,1.4082,1.3921,1.3586,1.336,1.3053,1.2757,1.2452,1.2318,1.2305,1.2305,1.2305,1.2305,1.2305,1.2305,1.2305,1.2305,1.2305,1.2305,1.2278,1.2046,1.1737,1.1586,1.1361,1.1279,1.1748,1.2104,1.2489,1.2948,1.2826,1.2443,1.1981,1.2135,1.2395,1.2448,1.298,1.3466,1.3529,1.3535,1.3379,1.2974,1.2915,1.2915,1.2915,1.2915,1.2915,1.2915,1.2915,1.2734,1.2301,1.2223,1.1872,1.1053,1.0586,1.0332,1.0293,1.0293,1.0293,1.0293,1.0293,1.0293,1.0293,1.0293,1.0293,1.0293,1.0293,1.0293,1.0293,1.0293,1.0293,0.5561,0.0,0.6627,0.6371,0.629,0.6196,0.0,0.5544,0.5373,0.0,0.0,0.536,0.5571,0.5611,0.5878,0.668,0.7089,0.7625,0.0,0.0,0.0,0.0,0.0,1.3427,1.3493,1.3814,1.4015,1.4082,1.4082,1.4082,1.4082,1.4082,1.4082,1.4082,1.4082,1.4082,1.4082,1.4082,1.4082,1.4082,1.4082,1.4082,1.4082,1.4082,1.3921,1.36,1.3533,1.324,1.2784,1.2703,1.2543,1.2305,1.2305,1.2305,1.2305,1.2305,1.2305,1.2305,1.2305,1.2305,1.2265,1.2037,1.2126,1.227,1.2091,1.1921,1.1888,1.2428,1.2887,1.3282,1.3662,1.3511,1.3161,1.2673,1.2826,1.31,1.3211,1.3503,1.3745,1.3922,1.3704,1.3379,1.2974,1.2915,1.2915,1.2915,1.2915,1.2915,1.2915,1.2915,1.2856,1.2734,1.2398,1.2125,1.1911,1.1211,1.0625,1.0332,1.0293,1.0293,1.0293,1.0293,1.0293,1.0293,1.0293,1.0293,1.0293,1.0293,1.0293,1.0293,1.0293,1.0293,0.5423,0.5817,0.6146,0.6017,0.5976,0.5936,0.5745,0.0,0.0,0.0,0.0,0.0,0.5665,0.5825,0.0,0.7081,0.7611,0.0,0.0,0.0,0.0,0.0,0.0,1.3841,0.0,1.3988,1.4082,1.4082,1.4082,1.4082,1.4082,1.4082,1.4082,1.4082,1.4082,1.4082,1.4082,1.4082,1.4082,1.4082,1.4082,1.4082,1.4082,1.4082,1.4001,1.3786,1.352,1.3253,1.2971,1.269,1.2452,1.2305,1.2415,1.2489,1.2599,1.2673,1.2783,1.2856,1.2856,1.2856,1.2828,1.2675,1.2877,1.3145,1.3196,1.3188,1.324,1.3393,1.3734,1.4142,1.4529,1.441,1.4052,1.3554,1.3601,1.3722,1.3795,1.4021,1.4203,1.4123,1.3919,1.3594,1.2988,1.2915,1.2915,1.2915,1.2915,1.2915,1.2915,1.2915,1.2915,1.2915,1.2676,1.2418,1.2223,1.1775,1.1328,1.0919,1.0899,1.0899,1.0899,1.0704,1.0488,1.0312,1.0293,1.0293,1.0293,1.0293,1.0293,1.0312,1.0488,1.0488,0.5615,0.5746,0.5837,0.5802,0.5812,0.5838,0.5785,0.0,0.0,0.0,0.0,0.0,0.0,0.0,0.0,0.0,0.0,0.0,0.0,0.0,0.0,0.0,1.3761,0.0,1.4082,1.4082,1.4082,1.4082,1.4082,1.4082,1.4082,1.4082,1.4082,1.4082,1.4082,1.4082,1.4082,1.4082,1.4082,1.4082,1.4082,1.4068,1.4015,1.4015,1.4001,1.3921,1.3427,1.3186,1.3093,1.2585,1.2345,1.2342,1.2562,1.2783,1.3039,1.3295,1.3513,1.3768,1.3768,1.3768,1.3768,1.3768,1.393,1.4242,1.4557,1.4744,1.4823,1.455,1.4625,1.4854,1.5294,1.5225,1.4902,1.4392,1.4291,1.4309,1.4273,1.4558,1.4657,1.4286,1.4153,1.386,1.3105,1.2954,1.2915,1.2915,1.2915,1.2915,1.2915,1.2915,1.2915,1.2915,1.2915,1.2734,1.234,1.2301,1.2168,1.1822,1.1685,1.1606,1.1606,1.1232,1.084,1.0508,1.0508,1.0508,1.0508,1.0508,1.0508,1.0508,1.084,1.082,0.5922,0.6188,0.6424,0.6238,0.6336,0.6405,0.6182,0.0,0.0,0.0,0.0,0.0,0.0,0.0,0.0,0.0,0.0,0.0,0.0,0.0,0.0,1.3467,0.0,1.4082,1.4082,1.4082,1.4082,1.4082,1.4082,1.4082,1.4082,1.4082,1.4082,1.4082,1.4082,1.4082,1.4082,1.4082,1.4082,1.4082,1.4082,1.3948,1.3666,1.3666,1.3533,1.3333,1.3253,1.3066,1.2851,1.2757,1.2569,1.2342,1.2709,1.3149,1.3608,1.3991,1.4458,1.4958,1.4958,1.4958,1.4958,1.4958,1.5174,1.546,1.5632,1.5942,1.6165,1.5865,1.5465,1.5186,1.5352,1.5284,1.5098,1.4706,1.4754,1.4813,1.4647,1.4902,1.5032,1.4757,1.4367,1.3958,1.3496,1.315,1.2915,1.2915,1.2915,1.2915,1.2915,1.2915,1.2915,1.2915,1.2915,1.2876,1.2817,1.2773,1.2778,1.27,1.2018,1.1606,1.1606,1.1547,1.1447,1.141,1.141,1.141,1.141,1.141,1.141,1.141,1.1447,1.1469,0.6237,0.6275,0.6346,0.6872,0.7038,0.7048,0.6935,0.0,0.0,0.0,0.0,0.0,0.0,0.0,0.0,0.0,0.0,1.169,1.2225,1.2839,1.3333,0.0,0.0,1.4082,1.4082,1.4082,1.4082,1.4082,1.4082,1.4082,1.4082,1.4082,1.4082,1.4082,1.4082,1.4015,1.3854,1.3841,1.3935,1.4082,1.3921,1.3733,1.36,1.344,1.3333,1.32,1.3026,1.2918,1.277,1.261,1.2425,1.2342,1.2856,1.3462,1.4135,1.5065,1.5561,1.5807,1.5807,1.5807,1.5807,1.5807,1.607,1.6384,1.6549,1.6719,1.6807,1.6831,1.6258,1.5633,1.5439,1.5371,1.5284,1.5118,1.5147,1.5196,1.5089,1.5196,1.5226,1.4863,1.4629,1.4355,1.3899,1.3665,1.3477,1.3262,1.3223,1.3145,1.2935,1.2915,1.2915,1.2915,1.2915,1.2915,1.2915,1.2915,1.2915,1.2915,1.2524,1.2191,1.1934,1.1914,1.1819,1.1606,1.1606,1.1606,1.1606,1.1606,1.1606,1.1606,1.1816,1.1819,0.6556,0.6369,0.6293,0.735,0.0,0.7504,0.7584,0.0,0.0,0.0,0.0,0.0,0.0,0.0,0.0,0.0,1.1824,1.2358,1.2492,1.312,1.3626,1.3693,1.3948,1.4082,1.4082,1.4082,1.4082,1.4082,1.4082,1.4082,1.4082,1.4082,1.4082,1.4082,1.4015,1.3868,1.36,1.3533,1.3654,1.3881,1.3654,1.3467,1.3427,1.32,1.3066,1.2986,1.2784,1.2677,1.2663,1.2398,1.2305,1.2378,1.3017,1.3897,1.4906,1.6228,1.6698,1.6698,1.6698,1.6698,1.6698,1.6698,1.6925,1.7185,1.7339,1.735,1.7315,1.7369,1.6926,1.6281,1.5703,1.5488,1.541,1.541,1.541,1.541,1.541,1.541,1.5312,1.5,1.4844,1.4687,1.4336,1.4172,1.3997,1.3711,1.3627,1.3535,1.3223,1.3184,1.3184,1.3184,1.3111,1.2988,1.2915,1.2915,1.2915,1.2915,1.2915,1.2734,1.2379,1.2359,1.2227,1.192,1.1897,1.1897,1.1897,1.1897,1.1897,1.192,1.2227,1.2207,0.6861,0.672,0.6664,0.7494,0.0,0.0,0.7806,0.8096,0.0,0.8295,0.0,0.0,0.0,0.0,0.0,0.0,1.2091,1.2505,1.3066,0.0,1.3706,1.4015,1.4068,1.4082,1.4082,1.4082,1.4082,1.4082,1.4082,1.4082,1.4082,1.4082,1.4082,1.4082,1.3773,1.3626,1.36,1.3333,1.3253,1.3267,1.3253,1.3093,1.2851,1.2824,1.2663,1.2371,1.2345,1.2331,1.2331,1.2305,1.2305,1.2378,1.3163,1.4581,1.6298,1.7442,1.7872,1.7872,1.7872,1.7872,1.7872,1.7872,1.7906,1.7906,1.794,1.7954,1.7837,1.75,1.7344,1.7122,1.6261,1.5752,1.541,1.541,1.541,1.541,1.541,1.541,1.5391,1.5371,1.5059,1.4793,1.4774,1.4394,1.4094,1.4075,1.4055,1.4055,1.4016,1.4016,1.4016,1.4016,1.3665,1.3301,1.2935,1.2915,1.2915,1.2915,1.2915,1.2895,1.2856,1.2856,1.2837,1.2817,1.2817,1.2817,1.2817,1.2817,1.2817,1.2817,1.2837,1.2837,0.7466,0.7257,0.7121,0.809,0.0,0.0,0.0,0.0,0.9273,0.9419,0.9686,0.0,0.0,0.0,0.0,0.0,1.2425,1.2946,1.3173,1.3614,1.3961,1.4068,1.4082,1.4082,1.4082,1.4082,1.4082,1.4082,1.4082,1.4082,1.4082,1.4082,1.4001,1.3814,1.3666,1.3427,1.3093,1.3012,1.2864,1.2652,1.2826,1.2904,1.2822,1.2709,1.2781,1.2985,1.2903,1.3042,1.3346,1.3124,1.3053,1.3149,1.4402,1.5613,1.6822,1.7954,1.8188,1.8047,1.8266,1.8223,1.8008,1.8008,1.8008,1.8008,1.8008,1.8008,1.7969,1.7812,1.7578,1.722,1.632,1.5968,1.5742,1.5469,1.541,1.541,1.541,1.541,1.541,1.541,1.5273,1.5176,1.5176,1.5039,1.4816,1.457,1.4531,1.4434,1.4133,1.4114,1.4114,1.4114,1.3724,1.3437,1.3281,1.3027,1.2915,1.2915,1.2915,1.2915,1.2915,1.2915,1.2915,1.2915,1.2915,1.2915,1.2915,1.2915,1.2915,1.2915,1.2915,1.2915,0.8086,0.7851,0.7652,0.0,0.0,0.0,0.0,0.0,0.0,0.0,1.0568,0.0,0.0,0.0,0.0,0.0,1.2746,1.324,1.3293,1.3774,1.4082,1.4082,1.4082,1.4082,1.4082,1.4082,1.4082,1.4082,1.4082,1.4082,1.4082,1.4001,1.3854,1.3613,1.3427,1.316,1.2784,1.269,1.2543,1.2305,1.258,1.2688,1.2636,1.2791,1.3159,1.3719,1.3866,1.4164,1.4552,1.4338,1.4221,1.431,1.5525,1.6491,1.7304,1.8254,1.8422,1.8208,1.85,1.8325,1.8008,1.8008,1.8008,1.8008,1.8008,1.8008,1.8008,1.8008,1.7812,1.7402,1.6711,1.63,1.6026,1.5684,1.5508,1.541,1.541,1.541,1.541,1.541,1.541,1.541,1.541,1.541,1.5312,1.5019,1.498,1.4863,1.4543,1.4504,1.4465,1.4328,1.4082,1.3848,1.3685,1.3437,1.3281,1.3281,1.3145,1.3052,1.2915,1.2915,1.2915,1.2915,1.2915,1.2915,1.2915,1.2915,1.2915,1.2915,1.2915,1.2915,0.8603,0.8523,0.8317,0.0,0.0,0.0,0.0,0.0,0.0,0.0,0.0,1.1516,1.1846,0.0,0.0,1.269,1.3052,1.332,1.356,1.3895,1.4082,1.4082,1.4082,1.4082,1.4082,1.4082,1.4082,1.4082,1.4082,1.4082,1.4082,1.376,1.36,1.36,1.3092,1.2784,1.2784,1.2489,1.2305,1.2305,1.2489,1.2489,1.2355,1.3064,1.3771,1.4448,1.5187,1.5616,1.581,1.581,1.5774,1.5772,1.6367,1.711,1.787,1.8421,1.8598,1.8598,1.8598,1.8325,1.8008,1.8008,1.8008,1.8008,1.8008,1.8008,1.8008,1.8008,1.8008,1.791,1.75,1.677,1.6105,1.6085,1.5723,1.541,1.541,1.541,1.541,1.541,1.541,1.541,1.541,1.541,1.541,1.541,1.541,1.541,1.541,1.541,1.5254,1.4844,1.4813,1.4609,1.4153,1.4114,1.4114,1.4114,1.375,1.332,1.2935,1.2915,1.2915,1.2915,1.2915,1.2915,1.2915,1.2915,1.2915,1.2915,1.2915,1.2915,0.868,0.9057,0.0,0.0,0.0,0.0,0.0,0.0,0.0,0.0,0.0,1.2011,1.1926,0.0,0.0,1.2476,1.3039,1.3507,1.3586,1.3895,1.4082,1.4082,1.4082,1.4082,1.4082,1.4082,1.4082,1.4082,1.4082,1.4001,1.3746,1.3653,1.3454,1.3065,1.2878,1.269,1.2438,1.2345,1.2305,1.2305,1.2893,1.3154,1.3116,1.3954,1.4919,1.5934,1.6079,1.6465,1.6976,1.6715,1.6616,1.6595,1.7219,1.7554,1.7827,1.876,1.8711,1.8281,1.8887,1.8613,1.8008,1.8008,1.8008,1.8008,1.8008,1.8008,1.8008,1.8008,1.8008,1.7988,1.7852,1.7402,1.6868,1.6242,1.5987,1.5811,1.5469,1.541,1.541,1.541,1.541,1.541,1.541,1.541,1.541,1.541,1.541,1.541,1.541,1.541,1.5371,1.5234,1.4961,1.4727,1.4609,1.4289,1.4114,1.4114,1.3997,1.3724,1.334,1.3047,1.2915,1.2915,1.2915,1.2915,1.2915,1.2915,1.2915,1.2915,1.2915,1.2915,0.9209,0.0,0.0,0.0,0.0,0.0,0.0,0.0,0.0,0.0,0.0,1.2251,1.2078,1.2462,0.0,1.2679,1.3174,1.364,1.376,1.3975,1.4082,1.4082,1.4082,1.4082,1.4082,1.3975,1.3908,1.3908,1.3801,1.3654,1.344,1.3347,1.312,1.2797,1.2663,1.2478,1.2305,1.2378,1.2452,1.2562,1.3312,1.3976,1.4493,1.5149,1.6059,1.7115,1.7221,1.7642,1.8175,1.7805,1.7709,1.7882,1.8064,1.8222,1.8395,1.887,1.8711,1.8286,1.8848,1.8574,1.8008,1.8008,1.8008,1.8008,1.8008,1.8008,1.8008,1.8008,1.8008,1.8008,1.8008,1.7812,1.7461,1.6789,1.6476,1.625,1.5996,1.5801,1.5664,1.5664,1.5527,1.541,1.541,1.541,1.541,1.541,1.541,1.541,1.541,1.541,1.541,1.541,1.5176,1.5039,1.5039,1.4785,1.4621,1.4621,1.4465,1.4277,1.4023,1.3613,1.3379,1.3379,1.3223,1.3125,1.3125,1.2993,1.2915,1.2915,1.2915,1.2915,0.9901,0.0,0.0,0.0,0.0,0.0,0.0,0.0,0.0,0.0,0.0,1.2305,1.2305,1.261,1.2918,1.316,1.344,1.3733,1.4015,1.4041,1.4041,1.4015,1.4001,1.4001,1.4001,1.372,1.356,1.356,1.336,1.32,1.3173,1.2945,1.277,1.2744,1.2438,1.2305,1.2305,1.2526,1.2746,1.2966,1.3834,1.4904,1.6206,1.6497,1.712,1.7972,1.8397,1.8812,1.9141,1.8828,1.8887,1.9141,1.8792,1.8887,1.9121,1.8734,1.8578,1.8559,1.8598,1.8325,1.8008,1.8008,1.8008,1.8008,1.8008,1.8008,1.8008,1.8008,1.8008,1.8008,1.8008,1.8008,1.791,1.7539,1.7109,1.6746,1.6707,1.6406,1.6144,1.6144,1.5762,1.5469,1.5469,1.543,1.541,1.541,1.541,1.541,1.541,1.541,1.541,1.541,1.541,1.541,1.541,1.541,1.541,1.541,1.5059,1.4844,1.4844,1.4367,1.4114,1.4114,1.3724,1.3529,1.3529,1.3184,1.3013,1.3013,1.3013,1.2993,0.0,1.0878,0.0,0.0,0.0,0.0,0.0,0.0,0.0,0.0,1.2305,1.2305,1.2305,1.2746,1.3133,1.32,1.3654,1.3935,1.372,1.3693,1.3613,1.3427,1.34,1.34,1.34,1.3347,1.3307,1.3307,1.324,1.3106,1.2904,1.2824,1.2677,1.2412,1.2331,1.2305,1.2305,1.2673,1.3076,1.3535,1.461,1.5773,1.6952,1.6856,1.7333,1.8235,1.8495,1.8461,1.832,1.8906,1.8809,1.834,1.8926,1.8789,1.832,1.852,1.8383,1.8149,1.8481,1.8325,1.8008,1.8008,1.8008,1.8008,1.8008,1.8008,1.8008,1.8008,1.8008,1.8008,1.8008,1.8008,1.7988,1.7891,1.7559,1.7148,1.6785,1.6629,1.6551,1.6551,1.623,1.5948,1.5948,1.5644,1.541,1.541,1.541,1.541,1.541,1.541,1.541,1.541,1.541,1.541,1.541,1.541,1.541,1.541,1.5332,1.5273,1.5273,1.4523,1.4114,1.4114,1.4016,1.3977,1.3977,1.388,1.3841,1.3841,1.3841,1.3665,0.0,0.0,0.0,0.0,0.0,0.0,0.0,0.0,0.0,0.0,1.2305,1.2305,1.2305,1.2679,1.3039,1.3186,1.3467,1.3667,1.36,1.348,1.3347,1.3227,1.3213,1.3213,1.3213,1.308,1.3025,1.3025,1.2852,1.2705,1.2583,1.2644,1.2689,1.2599,1.2673,1.2783,1.2856,1.3331,1.3789,1.4294,1.5333,1.6403,1.7448,1.7653,1.7996,1.8456,1.8348,1.8286,1.8305,1.8789,1.8828,1.8652,1.8887,1.8711,1.8286,1.8286,1.8169,1.8047,1.8227,1.8203,1.8008,1.8008,1.8008,1.8008,1.8008,1.8008,1.8008,1.8008,1.8008,1.8008,1.8008,1.8008,1.8008,1.8008,1.7852,1.7617,1.7402,1.7155,1.7051,1.7051,1.6535,1.6085,1.6085,1.5703,1.541,1.541,1.541,1.541,1.541,1.541,1.541,1.541,1.541,1.541,1.541,1.541,1.541,1.541,1.541,1.541,1.541,1.4952,1.4718,1.4718,1.4523,1.4453,1.4426,1.4211,1.4114,1.4114,1.4114,1.3997,0.0,0.0,0.0,0.0,0.0,0.0,0.0,0.0,0.0,0.0,1.2415,1.2305,1.2305,1.2583,1.2864,1.3093,1.3173,1.328,1.3427,1.328,1.3106,1.3053,1.3053,1.3053,1.3053,1.2826,1.2703,1.2703,1.2438,1.2305,1.2305,1.2526,1.2783,1.3039,1.3258,1.3513,1.3783,1.431,1.476,1.5207,1.6123,1.701,1.775,1.8255,1.85,1.8481,1.813,1.8169,1.85,1.8578,1.8809,1.9043,1.8792,1.8617,1.8461,1.8188,1.8066,1.8008,1.8008,1.8008,1.8008,1.8008,1.8008,1.8008,1.8008,1.8008,1.8008,1.8008,1.8008,1.8008,1.8008,1.8008,1.8008,1.8008,1.8008,1.8008,1.8008,1.7734,1.75,1.75,1.6809,1.6183,1.6105,1.5703,1.541,1.541,1.541,1.541,1.541,1.541,1.541,1.541,1.541,1.541,1.541,1.541,1.541,1.541,1.541,1.541,1.541,1.541,1.541,1.541,1.5078,1.4883,1.4883,1.4504,1.4328,1.4328,1.4328,1.4289,0.0,0.0,0.0,0.0,0.0,0.0,0.0,0.0,0.0,0.0,1.2783,1.2305,1.2305,1.2583,1.2797,1.2837,1.3039,1.3133,1.2931,1.2878,1.2744,1.2452,1.2425,1.2425,1.2425,1.2385,1.2358,1.2358,1.2318,1.2305,1.2305,1.2673,1.3076,1.3571,1.3954,1.4422,1.4958,1.5313,1.5807,1.6384,1.732,1.7837,1.7974,1.8032,1.8086,1.8086,1.8027,1.8047,1.8125,1.8461,1.8422,1.8242,1.8926,1.875,1.8125,1.8403,1.8286,1.8008,1.8008,1.8008,1.8008,1.8008,1.8008,1.8008,1.8008,1.8008,1.8008,1.8008,1.8008,1.8008,1.8008,1.8008,1.8008,1.8008,1.8008,1.8008,1.8008,1.7969,1.793,1.793,1.7227,1.6523,1.6163,1.5703,1.541,1.541,1.541,1.541,1.541,1.541,1.541,1.541,1.541,1.541,1.541,1.541,1.541,1.541,1.541,1.541,1.541,1.541,1.541,1.541,1.5352,1.5332,1.5332,1.5273,1.5234,1.5234,1.5234,1.5039,1.0059,1.1869,0.0,0.0,0.0,0.0,0.0,0.0,0.0,1.4143,1.4012,1.3738,1.3076,1.3079,1.3234,1.3402,1.3379,1.3365,1.3393,1.3177,1.2936,1.265,1.2526,1.2415,1.2305,1.2305,1.2305,1.2305,1.2305,1.2305,1.2305,1.2783,1.3368,1.4027,1.453,1.5136,1.5807,1.6175,1.6664,1.7198,1.775,1.8008,1.8008,1.8008,1.8008,1.8008,1.8008,1.8008,1.8027,1.8169,1.8286,1.8364,1.8769,1.8848,1.8711,1.8617,1.8481,1.8286,1.8086,1.8008,1.8008,1.8008,1.8008,1.8008,1.8008,1.8008,1.8008,1.8008,1.8008,1.8008,1.8008,1.8008,1.8008,1.8008,1.8008,1.8008,1.8008,1.8008,1.7949,1.7695,1.7363,1.6953,1.6504,1.6269,1.6122,1.6122,1.6122,1.6122,1.6122,1.6122,1.6122,1.6122,1.6122,1.6055,1.5801,1.5781,1.5664,1.543,1.541,1.541,1.541,1.541,1.541,1.541,1.541,1.541,1.541,1.541,1.541,1.541,1.541,1.5312,1.0273,1.1643,1.2695,0.0,0.0,0.0,0.0,0.0,0.0,0.0,1.5084,1.5107,1.4366,1.4057,1.3988,1.4208,1.4064,1.4003,1.4208,1.3844,1.3441,1.3149,1.2893,1.2636,1.2342,1.2305,1.2305,1.2305,1.2305,1.2305,1.2305,1.2929,1.3659,1.4478,1.5152,1.5895,1.6733,1.7028,1.7373,1.7784,1.794,1.8008,1.8008,1.8008,1.8008,1.8008,1.8008,1.8008,1.8008,1.8008,1.8203,1.8461,1.8676,1.8926,1.9102,1.8968,1.8851,1.8715,1.8437,1.8262,1.813,1.813,1.8086,1.8008,1.8008,1.8008,1.8008,1.8008,1.8008,1.8008,1.8008,1.8008,1.8008,1.8008,1.8008,1.8008,1.8008,1.8008,1.791,1.7598,1.7461,1.7285,1.6953,1.6765,1.6707,1.6707,1.6707,1.6707,1.6707,1.6707,1.6707,1.6707,1.6707,1.657,1.63,1.6163,1.5948,1.5586,1.5469,1.541,1.541,1.541,1.541,1.541,1.541,1.541,1.541,1.541,1.5439,1.5468,1.5497,1.5555,0.885,1.0059,0.0,0.0,0.0,0.0,0.0,0.0,0.0,1.5466,1.5647,1.577,1.6105,1.5596,1.5136,1.5117,1.51,1.5136,1.5117,1.4796,1.4314,1.3738,1.3368,1.2943,1.2378,1.2305,1.2305,1.2305,1.2305,1.2305,1.2305,1.3053,1.4021,1.5136,1.5877,1.6768,1.7906,1.794,1.7974,1.7974,1.7974,1.8008,1.8008,1.8008,1.8008,1.8008,1.8008,1.8008,1.8008,1.8008,1.8027,1.8125,1.8945,1.9023,1.8734,1.9551,1.959,1.9258,1.9238,1.8945,1.8559,1.8559,1.8305,1.8008,1.8008,1.8008,1.8008,1.8008,1.8008,1.8008,1.8008,1.8008,1.8008,1.8008,1.8008,1.8008,1.8008,1.8008,1.8008,1.7988,1.7656,1.7383,1.7363,1.7012,1.6707,1.6707,1.6707,1.6707,1.6707,1.6707,1.6707,1.6707,1.6707,1.6687,1.6668,1.6309,1.6085,1.6065,1.5644,1.541,1.541,1.541,1.541,1.541,1.541,1.541,1.541,1.541,1.5517,1.5711,1.5816,1.5931,0.8297,0.9141,0.0,0.0,0.0,0.0,0.0,0.0,1.521,1.5839,1.6425,1.6916,1.7332,1.6594,1.5913,1.5913,1.5913,1.5913,1.5913,1.5596,1.5152,1.4545,1.415,1.3695,1.3127,1.309,1.309,1.309,1.309,1.309,1.309,1.3783,1.4633,1.549,1.628,1.7097,1.7974,1.8008,1.8008,1.8008,1.8008,1.8008,1.8008,1.8008,1.8008,1.8008,1.8008,1.8008,1.8008,1.8008,1.813,1.8403,1.8715,1.9065,1.9416,1.9492,1.959,1.9648,1.9375,1.918,1.9004,1.8695,1.85,1.8325,1.8086,1.8008,1.8008,1.8008,1.8008,1.8008,1.8008,1.8008,1.8008,1.8008,1.8008,1.8008,1.8008,1.8008,1.8008,1.8008,1.7891,1.7793,1.7793,1.7656,1.7525,1.7525,1.7525,1.7525,1.7525,1.7525,1.7525,1.7525,1.7525,1.7441,1.7168,1.7044,1.6829,1.6504,1.6348,1.6133,1.587,1.587,1.5703,1.541,1.541,1.541,1.541,1.541,1.5555,1.5836,1.6132,1.6446,0.7891,0.0,0.0,0.0,0.0,0.0,0.0,0.0,1.4805,1.5664,1.6309,1.6934,1.7676,1.7166,1.6707,1.6853,1.6872,1.6872,1.6872,1.6559,1.614,1.5525,1.51,1.4653,1.4129,1.4057,1.4057,1.4057,1.4057,1.4057,1.4057,1.4617,1.5365,1.6175,1.689,1.7495,1.8008,1.8008,1.8008,1.8008,1.8008,1.8008,1.8008,1.8008,1.8008,1.8008,1.8008,1.8008,1.8008,1.8008,1.8184,1.8403,1.8539,1.9046,1.9687,1.9551,1.9766,2.0098,1.9805,1.9629,1.9453,1.9124,1.8831,1.8559,1.8266,1.8125,1.8047,1.8149,1.8188,1.8262,1.8398,1.832,1.8184,1.8047,1.8008,1.8008,1.8008,1.8008,1.8008,1.8008,1.8008,1.8008,1.8008,1.8008,1.8008,1.8008,1.8008,1.8008,1.8008,1.8008,1.8008,1.8008,1.8008,1.7891,1.7617,1.7461,1.7266,1.6941,1.6785,1.657,1.6289,1.6163,1.5948,1.5644,1.5488,1.541,1.541,1.541,1.5584,1.5989,1.6446,1.6983,0.0,0.0,0.0,0.0,0.0,0.0,0.0,0.0,1.334,1.5019,1.5391,1.582,1.7129,1.7383,1.7519,1.793,1.8008,1.8008,1.8008,1.7701,1.727,1.668,1.628,1.5825,1.5261,1.5242,1.5242,1.5242,1.5242,1.5242,1.5242,1.5561,1.621,1.7166,1.7735,1.8008,1.8008,1.8008,1.8008,1.8008,1.8008,1.8008,1.8008,1.8008,1.8008,1.8008,1.8008,1.8008,1.8008,1.8008,1.8008,1.8047,1.8422,1.8887,1.9336,1.9746,2.0176,2.0605,2.0605,2.0293,1.9941,1.9922,1.9319,1.8637,1.8617,1.8344,1.8125,1.85,1.8617,1.8715,1.918,1.8965,1.85,1.8125,1.8027,1.8008,1.8008,1.8008,1.8008,1.8008,1.8008,1.8008,1.8008,1.8008,1.8008,1.8008,1.8008,1.8008,1.8008,1.8008,1.8008,1.8008,1.8008,1.8008,1.8008,1.7637,1.7435,1.7435,1.7012,1.6726,1.6726,1.6359,1.6124,1.6124,1.5664,1.542,1.543,1.541,1.5642,1.6104,1.6758,1.7623,0.7491,0.0,0.0,0.0,0.0,0.0,0.0,0.0,0.0,1.4172,1.4952,1.5723,1.6687,1.7168,1.7422,1.7539,1.7812,1.8008,1.8008,1.7784,1.751,1.7079,1.6821,1.649,1.6053,1.5983,1.5983,0.0,1.5983,1.5983,1.5983,1.649,1.701,1.7545,1.7872,1.8008,1.8008,1.8008,1.8008,1.8008,1.8008,1.8008,1.8008,1.8008,1.8008,1.8008,1.8008,1.8008,1.8008,1.8008,1.8008,1.8027,1.8144,1.8633,1.9297,1.9414,1.9959,2.0605,2.0605,2.0527,2.0332,2.0019,1.9746,1.9512,1.9199,1.9023,1.8965,1.9082,1.9102,1.9141,1.9258,1.8965,1.8578,1.8461,1.8188,1.8008,1.8008,1.8008,1.8008,1.8008,1.8008,1.8008,1.8008,1.8008,1.8008,1.8008,1.8008,1.8008,1.8008,1.8008,1.8008,1.8008,1.8008,1.8008,1.8008,1.791,1.7832,1.7832,1.7715,1.7519,1.7227,1.7122,1.6875,1.6562,1.6395,1.6242,1.6029,1.5596,1.5671,1.6296,1.7567,1.8629,0.811,0.0,0.0,0.0,0.0,0.0,0.9902,1.0858,0.0,0.0,1.4004,1.4668,1.5723,1.6133,1.6437,1.6809,1.7031,1.7383,1.793,1.7906,1.775,1.7545,1.7426,1.727,1.701,1.701,1.701,1.701,1.701,1.701,1.701,1.7339,1.7613,1.7818,1.794,1.8008,1.8008,1.8008,1.8008,1.8008,1.8008,1.8008,1.8008,1.8008,1.8008,1.8008,1.8008,1.8008,1.8008,1.8008,1.8008,1.8008,1.8008,1.8535,1.9297,1.9297,1.9862,2.0605,2.0605,2.0605,2.0566,2.0273,2.0059,1.9863,1.9629,1.9434,1.9316,1.9492,1.9687,1.9822,1.959,1.9355,1.9085,1.8909,1.8711,1.8535,1.8535,1.8535,1.8437,1.8086,1.8008,1.8008,1.8008,1.8008,1.8008,1.8008,1.8008,1.8008,1.8008,1.8008,1.8008,1.8008,1.8008,1.8008,1.8008,1.8008,1.8008,1.8008,1.8008,1.7891,1.7656,1.748,1.7266,1.7012,1.6804,1.6691,1.6657,1.6148,1.6258,1.7095,1.8224,1.9133,0.9199,0.918,0.0,0.0,0.9121,0.0,0.9534,1.0215,1.1191,0.0,1.2734,1.3164,1.4355,1.4637,1.4902,1.5752,1.5909,1.6398,1.7695,1.7871,1.7871,1.7871,1.7871,1.7871,1.7871,1.7871,1.7871,1.7871,1.7871,1.7871,1.7871,1.791,1.7949,1.7949,1.7988,1.8008,1.8008,1.8008,1.8008,1.8008,1.8008,1.8008,1.8008,1.8008,1.8008,1.8008,1.8008,1.8008,1.8008,1.8008,1.8008,1.8008,1.8008,1.8535,1.9297,1.9297,1.9862,2.0605,2.0605,2.0605,2.0605,2.0605,2.0312,1.998,1.998,1.9727,1.9512,1.9883,2.0273,2.0507,2.0078,1.9941,1.9824,1.9453,1.9316,1.9297,1.9297,1.9297,1.9062,1.8301,1.8144,1.8144,1.8086,1.8086,1.8066,1.8008,1.8008,1.8008,1.8008,1.8008,1.8008,1.8008,1.8008,1.8008,1.8008,1.8008,1.8008,1.8008,1.8008,1.8008,1.8008,1.7656,1.7494,1.7494,1.7128,1.7132,1.7459,1.6928,1.7204,1.8174,1.8762,1.9291,1.0449,1.0293,1.0038,0.9941,0.0,0.0,0.9182,0.9785,1.0566,0.0,1.1855,1.2515,1.3169,1.3535,1.3926,1.4406,1.4805,1.5488,1.6765,1.6941,1.6941,1.6941,1.6941,1.6941,1.6941,1.6941,1.6941,1.6941,1.6941,1.6941,1.6941,1.7305,1.75,1.75,1.7832,1.8008,1.8008,1.8008,1.8008,1.8008,1.8008,1.8008,1.8008,1.8008,1.8008,1.8008,1.8008,1.8008,1.8008,1.8008,1.8008,1.8008,1.8008,1.8535,1.9297,1.9297,1.9862,2.0605,2.0605,2.0605,2.0605,2.0605,2.0546,2.0468,2.0468,2.041,2.037,2.0449,2.0546,2.0586,2.0507,2.0176,1.9883,1.9805,1.9531,1.9297,1.9297,1.9297,1.9238,1.9082,1.9043,1.8926,1.8539,1.8481,1.8364,1.8066,1.8008,1.8008,1.8008,1.8008,1.8008,1.8008,1.8008,1.8008,1.8008,1.8008,1.8008,1.8008,1.8008,1.8008,1.8008,1.793,1.7958,1.8107,1.8356,1.869,1.9122,1.8289,1.812,1.8581,1.8977,1.9396,1.1836,1.1582,1.1152,1.0703,0.0,0.0,0.0,0.9824,1.041,1.082,1.127,1.1699,1.2171,1.2426,1.2676,1.3081,1.3334,1.3887,1.4933,1.5859,1.6484,1.6668,1.6707,1.6707,1.6707,1.6707,1.6707,1.6707,1.6707,1.6707,1.6707,1.6902,1.7168,1.7383,1.7598,1.7793,1.8008,1.8008,1.8008,1.8008,1.8008,1.8008,1.8008,1.8008,1.8008,1.8008,1.8008,1.8008,1.8008,1.8008,1.8008,1.8008,1.8008,1.8535,1.9297,1.9297,1.9862,2.0605,2.0605,2.0605,2.0605,2.0605,2.0605,2.0605,2.0605,2.0605,2.0605,2.0605,2.0605,2.0605,2.0605,2.0449,2.0234,2.0234,2.0116,1.9959,1.9959,1.9959,1.9959,1.9959,1.9959,1.9727,1.9062,1.8734,1.852,1.8325,1.8144,1.8008,1.8008,1.8008,1.8008,1.8008,1.8008,1.8008,1.8008,1.8008,1.8008,1.8008,1.8008,1.8008,1.8008,1.8008,1.8245,1.8798,1.936,1.9868,2.0282,2.0033,1.97,1.9336,1.9387,1.9552,0.0,0.0,0.0,0.0,0.0,1.0781,0.0,0.0,0.0,1.0605,1.0723,0.0,0.0,0.0,0.0,0.0,0.0,0.0,0.0,1.4453,0.0,1.6122,1.62,1.6239,1.6317,1.6336,1.6297,1.62,1.6278,1.6336,1.6336,1.6473,1.6758,1.7161,1.7305,1.7559,1.7891,1.7969,1.8008,1.8008,1.8008,1.8008,1.8008,1.8008,1.8008,1.8008,1.8008,1.8008,1.8008,1.8008,1.8008,1.8008,1.8008,1.8535,1.9297,1.9297,1.9862,2.0605,2.0605,2.0605,2.0605,2.0605,2.0605,2.0605,2.0605,2.0605,2.0605,2.0605,2.0605,2.0605,2.0605,2.0605,2.0605,2.0605,2.0605,2.0605,2.0605,2.0605,2.0605,2.0605,2.0605,2.0351,1.9531,1.9043,1.8695,1.8617,1.8247,1.8008,1.8008,1.8008,1.8008,1.8042,1.8076,1.811,1.8144,1.8178,1.8212,1.8212,1.8212,1.8178,1.8178,1.8178,1.8596,1.9375,2.0161,2.0791,2.1265,2.1553,2.1174,2.0128,1.9924,1.9808,0.0,0.0,0.0,0.0,1.1777,0.0,0.0,0.0,1.0195,0.9825,0.0,0.0,0.0,0.0,0.0,0.0,0.0,0.0,1.2223,1.2515,1.3081,1.427,1.4406,1.4562,1.4961,1.5,1.4844,1.4426,1.4785,1.5,1.5,1.5752,1.6183,1.6242,1.7005,1.7402,1.7494,1.7812,1.8008,1.8008,1.8008,1.8008,1.8008,1.8008,1.8008,1.8008,1.8008,1.8008,1.8008,1.8008,1.8008,1.8008,1.8008,1.8535,1.9297,1.9297,1.9862,2.0605,2.0605,2.0605,2.0605,2.0605,2.0605,2.0605,2.0605,2.0605,2.0605,2.0605,2.0605,2.0605,2.0605,2.0605,2.0605,2.0605,2.0605,2.0605,2.0605,2.0605,2.0605,2.0605,2.0605,2.0449,1.9922,1.9492,1.9082,1.8656,1.8247,1.8008,1.8008,1.8008,1.8076,1.8245,1.8381,1.8516,1.8684,1.8865,1.8965,1.8965,1.8965,1.8898,1.8717,1.8865,1.9231,1.9737,2.0581,2.1416,2.2231,2.213,2.1546,2.0638,2.0589,2.0288,0.0,0.0,0.0,0.0,0.0,0.0,1.0254,0.0,1.0586,0.0,0.0,0.0,0.0,0.0,0.0,0.0,1.0703,0.0,0.0,0.0,1.1931,0.0,0.0,0.0,1.4023,1.4043,1.3965,1.3763,1.4133,1.4512,1.4793,1.5352,1.5831,1.6085,1.668,1.7129,1.7383,1.7793,1.8008,1.8008,1.8008,1.8008,1.8008,1.8008,1.8008,1.8008,1.8008,1.8008,1.8008,1.8008,1.8008,1.8008,1.8008,1.8379,1.8945,1.9199,1.9668,2.0215,2.0507,2.0605,2.0605,2.0605,2.0605,2.0605,2.0605,2.0605,2.0605,2.0605,2.0605,2.0605,2.0605,2.0605,2.0605,2.0605,2.0605,2.0605,2.0605,2.0605,2.0605,2.0605,2.0605,2.0546,2.0332,1.9727,1.9219,1.9043,1.8437,1.8008,1.8008,1.8008,1.811,1.8381,1.8731,1.9098,1.9363,1.9737,1.9966,1.9966,1.977,1.9474,1.9131,1.9396,1.9791,2.0258,2.1028,2.1846,2.2818,2.272,2.231,2.1594,2.0993,2.0566,1.6124,0.0,0.0,0.0,0.0,0.0,0.0,0.0,0.0,0.0,0.0,0.0,0.0,0.0,0.0,0.0,0.0,1.041,0.0,1.0742,0.0,0.0,0.0,0.0,0.0,1.3086,1.3105,1.2988,1.3477,1.3984,1.4414,1.4941,1.543,1.5909,1.6414,1.6863,1.7207,1.7734,1.8008,1.8008,1.8008,1.8008,1.8008,1.8008,1.8008,1.8008,1.8008,1.8008,1.8008,1.8008,1.8008,1.8008,1.8008,1.8169,1.8481,1.8945,1.9453,1.9961,2.0273,2.0507,2.0605,2.0605,2.0605,2.0605,2.0605,2.0605,2.0605,2.0605,2.0605,2.0605,2.0605,2.0605,2.0605,2.0605,2.0605,2.0605,2.0605,2.0605,2.0605,2.0605,2.0605,2.0605,2.0605,1.9979,1.9453,1.9453,1.8828,1.832,1.8169,1.8149,1.8262,1.8549,1.9098,1.9606,1.9998,2.0526,2.0878,2.0878,2.0581,2.0128,1.9639,1.9987,2.0345,2.0719,2.1408,2.2211,2.3095,2.3095,2.2895,2.2493,2.1568,2.0993,0.0,0.0,0.0,1.3228,0.0,0.0,0.0,0.0,1.0918,0.0,0.0,0.0,0.0,0.0,0.0,0.0,0.0,0.0,0.0,0.0,0.0,0.0,0.0,0.0,0.0,1.2012,1.2067,1.1704,1.2445,1.313,1.3535,1.4355,1.5,1.541,1.6239,1.6707,1.6726,1.7578,1.8008,1.8008,1.8008,1.8008,1.8008,1.8008,1.8008,1.8008,1.8008,1.8008,1.8008,1.8008,1.8008,1.8008,1.8008,1.8008,1.8086,1.8461,1.9143,1.9922,1.9941,2.0215,2.0605,2.0605,2.0605,2.0605,2.0605,2.0605,2.0605,2.0605,2.0605,2.0605,2.0605,2.0605,2.0605,2.0605,2.0605,2.0605,2.0605,2.0605,2.0605,2.0605,2.0605,2.0605,2.0605,2.0195,1.9883,1.9883,1.9531,1.9102,1.8637,1.8578,1.8631,1.8792,1.9396,1.9998,2.0539,2.1187,2.1596,2.1596,2.125,2.0869,2.0387,2.07,2.0924,2.1092,2.18,2.2482,2.3095,2.3095,2.3095,2.307,2.2493,2.1694,1.7051,1.632,1.542,1.4422,1.3496,1.2617,0.0,0.0,0.0,0.0,0.0,0.0,0.0,0.0,0.0,0.0,0.0,0.0,0.0,0.0,0.0,0.0,0.0,0.0,0.0,0.0,1.1268,1.1133,1.1953,1.2754,1.3477,1.4316,1.498,1.5391,1.5977,1.6426,1.6687,1.7305,1.7734,1.8008,1.8008,1.8008,1.8008,1.8008,1.8008,1.8008,1.8008,1.8008,1.8008,1.8008,1.8008,1.8008,1.8008,1.8008,1.8066,1.8442,1.8968,1.959,2.0156,2.0488,2.0605,2.0605,2.0605,2.0605,2.0605,2.0605,2.0605,2.0605,2.0605,2.0605,2.0605,2.0605,2.0605,2.0605,2.0605,2.0605,2.0605,2.0605,2.0605,2.0605,2.0605,2.0644,2.078,2.0777,2.0559,1.9999,1.9551,1.9238,1.9082,1.8773,1.8784,1.9315,1.9942,2.0558,2.1219,2.2063,2.2586,2.2586,2.2304,2.1932,2.1408,2.1502,2.1565,2.1628,2.2087,2.2604,2.3095,2.3095,2.3095,2.3095,2.292,2.2272,1.7949,1.7305,1.6574,1.5684,1.4707,1.373,1.2847,1.291,1.3105,0.0,0.0,0.0,0.0,0.0,0.0,0.0,0.0,0.0,0.0,1.0175,0.0,0.0,0.0,0.0,0.0,0.0,1.0684,1.0684,1.1326,0.0,0.0,1.3867,1.459,1.5176,1.5791,1.6269,1.6687,1.7168,1.7598,1.8008,1.8008,1.8008,1.8008,1.8008,1.8008,1.8008,1.8008,1.8008,1.8008,1.8008,1.8008,1.8008,1.8008,1.8008,1.8047,1.8286,1.8789,1.9414,2.0312,2.0605,2.0605,2.0605,2.0605,2.0605,2.0605,2.0605,2.0605,2.0605,2.0605,2.0605,2.0605,2.0605,2.0605,2.0605,2.0605,2.0605,2.0605,2.0605,2.0605,2.0605,2.0605,2.0683,2.0974,2.1262,2.1275,2.0576,2.0297,2.0132,1.9972,1.9713,1.9677,2.0044,2.0643,2.1339,2.2087,2.2732,2.3095,2.3095,2.2878,2.2574,2.2118,2.2149,2.2149,2.2087,2.242,2.2757,2.3095,2.3095,2.3095,2.3095,2.3095,2.2518]}]]